     2              OBSERVATION DATA    G (GPS)             RINEX VERSION / TYPE
ASRINEXO V2.9.9 LH AIUB 01-FEB- 1 17:21                     PGM / RUN BY / DATE
BERN ASHTECH Z-12                                           COMMENT
BIT 2 OF LLI (+4) FLAGS DATA COLLECTED UNDER "AS" CONDITION COMMENT
USNB                                                        MARKER NAME
                                                            OBSERVER / AGENCY
? ASHTECH Z-XII3 1D15                                       REC # / TYPE / VERS
? CHOKE RING                                                ANT # / TYPE
  1112165.2100 -4842860.8100  3985506.5600                  APPROX POSITION XYZ
        0.0000        0.0000        0.0000                  ANTENNA: DELTA H/E/N
     1     1                                                WAVELENGTH FACT L1/2
     5    C1    L1    L2    P1    P2                        # / TYPES OF OBSERV
  2000     7    30     0     0   30.000000                  TIME OF FIRST OBS
                                                            END OF HEADER
 00  7 30  0  0 30.0000000  0  7 20 25 22 29 21 06 30
  23122602.885    -9236048.766 8  -7173660.96346  23122604.184    23122614.2114
  20620895.848   -23534225.756 9 -18314861.46248  20620899.120    20620906.7914
  22850990.768    -9784747.478 8  -7602826.15146  22850989.366    22851000.4544
  21547635.741   -17182182.250 8 -13365672.64647  21547638.236    21547646.6754
  23281808.198    -9805866.727 8  -7624518.50345  23281806.180    23281819.3194
  24624588.176    -3445015.373 8  -2671925.74945  24624591.979    24624603.9134
  22364015.128   -10903479.338 8  -8485095.12946  22364019.469    22364027.5344
 00  7 30  0  1  0.0000000  0  7 20 25 22 29 21 06 30
  23107789.765    -9313857.711 8  -7234291.26246  23107797.291    23107806.6974
  20619735.456   -23540329.427 9 -18319617.56448  20619737.725    20619745.3744
  22829475.616    -9897778.098 8  -7690901.83446  22829480.434    22829491.5214
  21558290.535   -17126183.832 8 -13322037.56647  21558293.894    21558302.6694
  23303546.414    -9691611.500 8  -7535488.60545  23303548.339    23303560.8014
  24613833.668    -3501529.485 8  -2715962.62845  24613836.871    24613848.6654
  22377703.650   -10831535.007 8  -8429034.63646  22377709.561    22377718.4184
 00  7 30  0  1 30.0000000  0  7 20 25 22 29 21 06 30
  23093069.838    -9391258.987 8  -7294603.89546  23093069.093    23093078.1764
  20618626.216   -23546159.321 9 -18324160.32948  20618628.379    20618635.9314
  22808005.848   -10010598.731 8  -7778813.88046  22808011.169    22808022.2384
  21569004.122   -17069887.643 8 -13278170.45047  21569006.743    21569015.7154
  23325316.622    -9577184.802 8  -7446325.10745  23325322.463    23325335.3314
  24603129.400    -3557786.586 8  -2759799.19745  24603131.606    24603144.4154
  22391479.511   -10759155.636 8  -8372635.18346  22391482.776    22391492.3644
 00  7 30  0  2  0.0000000  0  7 20 25 22 29 21 06 30
  23078411.300    -9468250.112 8  -7354596.90146  23078416.113    23078426.3644
  20617566.604   -23551716.411 9 -18328490.52648  20617571.053    20617578.6214
  22786580.993   -10123207.032 8  -7866560.49946  22786582.418    22786593.9254
  21579775.065   -17013293.546 8 -13234071.19747  21579776.647    21579785.0304
  23347134.171    -9462589.292 8  -7357030.07145  23347129.746    23347142.2984
  24592465.628    -3613784.310 7  -2803433.67345  24592473.689    24592488.4754
  22405333.758   -10686343.666 8  -8315898.61846  22405338.455    22405347.6284
 00  7 30  0  2 30.0000000  0  7 20 25 22 29 21 06 30
  23063845.332    -9544828.539 8  -7414268.34046  23063845.391    23063854.1174
  20616563.246   -23557000.966 9 -18332608.35648  20616565.411    20616572.9044
  22765190.818   -10235600.466 8  -7954139.66946  22765194.399    22765205.4644
  21590599.818   -16956401.878 8 -13189740.07347  21590602.774    21590611.3304
  23368967.927    -9347828.478 8  -7267606.19445  23368968.209    23368981.6584
  24581867.035    -3669519.951 7  -2846863.87445  24581867.795    24581883.6804
  22419275.912   -10613101.667 8  -8258826.96946  22419276.010    22419285.3054
 00  7 30  0  3  0.0000000  0  7 20 25 22 29 21 06 30
  23049341.778    -9620991.734 8  -7473616.22146  23049351.713    23049360.6204
  20615607.879   -23562013.574 9 -18336514.28848  20615611.368    20615619.0474
  22743848.829   -10347775.781 8  -8041548.88846  22743848.325    22743859.1794
  21601481.140   -16899212.611 8 -13145177.07147  21601485.999    21601494.6924
  23390825.840    -9232905.239 8  -7178055.74545  23390836.840    23390851.0664
  24571309.762    -3724990.811 7  -2890087.74045  24571312.442    24571327.5064
  22433289.893   -10539431.936 8  -8201422.02546  22433295.322    22433304.6384
 00  7 30  0  3 30.0000000  0  7 20 25 22 29 21 06 30
  23034939.251    -9696737.392 8  -7532638.75346  23034938.354    23034946.0104
  20614705.213   -23566755.034 9 -18340208.93248  20614709.160    20614716.7554
  22722540.835   -10459730.063 8  -8128785.89446  22722544.329    22722554.9884
  21612423.486   -16841725.659 8 -13100382.08747  21612424.857    21612433.3264
  23412738.809    -9117821.866 8  -7088380.55445  23412738.262    23412750.4314
  24560810.631    -3780194.161 7  -2933103.14845  24560807.271    24560821.0564
  22447393.335   -10465336.973 8  -8143685.72046  22447394.904    22447404.1074
 00  7 30  0  4  0.0000000  0  7 20 25 22 29 21 06 30
  23020595.904    -9772062.898 8  -7591333.86946  23020603.580    23020613.1584
  20613857.021   -23571226.074 9 -18343692.85948  20613858.270    20613865.9214
  22701283.100   -10571460.845 8  -8215848.76046  22701282.024    22701293.5364
  21623416.274   -16783941.310 8 -13055355.39247  21623421.031    21623429.7704
  23434645.659    -9002581.946 7  -6998583.34845  23434666.572    23434679.7524
  24550349.890    -3835127.404 8  -2975908.17245  24550354.660    24550368.2944
  22461570.261   -10390819.118 8  -8085619.90046  22461575.814    22461584.7794
 00  7 30  0  4 30.0000000  0  7 20 25 22 29 21 06 30
  23006350.268    -9846965.748 8  -7649699.67746  23006351.684    23006359.0574
  20613056.739   -23575426.989 9 -18346966.30248  20613059.079    20613066.4684
  22680058.569   -10682965.719 8  -8302735.54246  22680063.174    22680074.6654
  21634472.329   -16725859.582 8 -13010096.95547  21634473.869    21634482.3864
  23456624.577    -8887188.007 8  -6908666.11045  23456624.725    23456640.0184
  24539946.603    -3889787.845 7  -3018500.54145  24539951.262    24539966.3184
  22475832.785   -10315881.015 8  -8027226.60146  22475835.600    22475844.8424
 00  7 30  0  5  0.0000000  0  7 20 25 22 29 21 06 30
  22992177.032    -9921443.503 8  -7707734.24746  22992176.988    22992186.3754
  20612309.015   -23579358.435 9 -18350029.76548  20612311.114    20612318.2754
  22658880.915   -10794242.100 8  -8389444.28946  22658887.440    22658899.0774
  21645580.156   -16667480.476 8 -12964606.81147  21645583.335    21645591.4704
  23478613.225    -8771642.999 8  -6818631.22145  23478612.776    23478626.9014
  24529599.531    -3944172.831 7  -3060878.30045  24529602.856    24529616.3624
  22490174.748   -10240525.297 8  -7968507.90046  22490175.336    22490185.0174
 00  7 30  0  5 30.0000000  0  7 20 25 22 29 21 06 30
  22978083.275    -9995493.728 8  -7765435.64046  22978086.448    22978095.2614
  20611609.002   -23583021.161 9 -18352883.84348  20611613.723    20611621.3244
  22637756.249   -10905286.794 8  -8475972.51446  22637757.205    22637767.5524
  21656745.093   -16608804.056 8 -12918884.98647  21656748.638    21656757.6124
  23500613.672    -8655950.167 7  -6728481.10145  23500628.609    23500642.7354
  24519305.733    -3998279.900 7  -3103039.51045  24519305.393    24519319.0794
  22504592.314   -10164754.457 8  -7909465.72346  22504594.627    22504604.0234
 00  7 30  0  6  0.0000000  0  7 20 25 22 29 21 06 30
  22964076.049   -10069114.045 8  -7822802.08946  22964077.187    22964085.0674
  20610965.733   -23586415.728 9 -18355528.95348  20610967.882    20610975.2894
  22616672.484   -11016096.982 8  -8562318.00546  22616670.981    22616681.5794
  21667968.337   -16549830.539 8 -12872931.67547  21667971.006    21667979.8144
  23522676.677    -8540112.316 8  -6638218.00145  23522672.320    23522685.8754
  24509061.399    -4052106.451 7  -3144982.09145  24509063.261    24509077.5284
  22519089.178   -10088571.036 8  -7850102.06046  22519091.922    22519100.6964
 00  7 30  0  6 30.0000000  0  7 20 25 22 29 21 06 30
  22950149.367   -10142301.822 8  -7879831.50346  22950150.275    22950158.4094
  20610370.928   -23589542.835 9 -18357965.65448  20610372.968    20610380.3234
  22595625.282   -11126670.138 8  -8648478.82446  22595628.694    22595639.7354
  21679244.760   -16490559.976 8 -12826746.89147  21679249.865    21679258.9364
  23544737.797    -8424132.409 8  -6547844.20345  23544742.792    23544756.7814
  24498873.024    -4105649.803 8  -3186704.01745  24498875.719    24498888.2564
  22533665.999   -10011977.586 8  -7790418.88046  22533666.900    22533676.1144
 00  7 30  0  7  0.0000000  0  7 20 25 22 29 21 06 30
  22936302.602   -10215054.893 8  -7936522.14646  22936305.206    22936314.2054
  20609824.851   -23592403.343 9 -18360194.62248  20609828.739    20609835.9734
  22574632.592   -11237003.923 8  -8734453.10546  22574632.902    22574643.2764
  21690580.823   -16430992.512 8 -12780330.75847  21690584.933    21690594.3294
  23566837.190    -8308012.781 8  -6457361.50645  23566839.217    23566853.6654
  24488735.879    -4158907.212 8  -3228203.11845  24488740.722    24488752.4384
  22548313.753    -9934976.636 8  -7730418.17546  22548319.588    22548328.8964
 00  7 30  0  7 30.0000000  0  7 20 25 22 29 21 06 30
  22922542.605   -10287370.626 8  -7992872.02846  22922544.003    22922552.3224
  20609331.047   -23594997.819 9 -18362216.28448  20609334.708    20609342.4714
  22553680.092   -11347095.650 8  -8820238.78146  22553682.307    22553693.4004
  21701972.693   -16371128.294 8 -12733683.38947  21701976.925    21701986.2274
  23588962.758    -8191756.783 8  -6366772.57145  23588962.580    23588976.6604
  24478658.935    -4211876.317 8  -3269477.55445  24478660.165    24478673.8374
  22563044.962    -9857570.492 8  -7670101.72046  22563049.255    22563058.9104
 00  7 30  0  8  0.0000000  0  7 20 25 22 29 21 06 30
  22908860.797   -10359246.749 8  -8048879.37746  22908865.810    22908874.3774
  20608887.561   -23597326.624 9 -18364030.92548  20608891.505    20608899.1804
  22532778.212   -11456942.218 8  -8905833.41146  22532780.160    22532791.0404
  21713424.404   -16310967.476 8 -12686804.90247  21713425.319    21713434.8524
  23611100.259    -8075367.829 8  -6276080.04245  23611110.661    23611124.4964
  24468634.963    -4264554.259 7  -3310525.14145  24468635.840    24468649.0534
  22577855.432    -9779761.672 8  -7609471.52446  22577855.589    22577865.8894
 00  7 30  0  8 30.0000000  0  7 20 25 22 29 21 06 30
  22895274.061   -10430680.841 8  -8104542.27246  22895271.879    22895280.8634
  20608495.585   -23599390.396 9 -18365639.05348  20608498.743    20608506.1664
  22511918.074   -11566540.829 8  -8991234.81646  22511923.757    22511934.8934
  21724926.306   -16250510.200 8 -12639695.41547  21724929.824    21724938.8854
  23633279.822    -7958848.307 8  -6185285.71845  23633284.268    23633297.3034
  24458659.257    -4316938.523 7  -3351343.90745  24458666.977    24458680.0754
  22592738.497    -9701552.925 8  -7548529.68646  22592738.822    22592748.2404
 00  7 30  0  9  0.0000000  0  7 20 25 22 29 21 06 30
  22881759.551   -10501670.366 8  -8159858.76746  22881763.636    22881772.6124
  20608153.741   -23601190.199 9 -18367041.48248  20608156.372    20608164.0024
  22491110.728   -11675888.973 8  -9076441.08446  22491115.446    22491126.3304
  21736486.956   -16189756.641 8 -12592355.05847  21736490.745    21736500.3534
  23655482.305    -7842201.423 7  -6094392.19745  23655480.672    23655494.2454
  24448754.288    -4369026.693 8  -3391931.91145  24448756.787    24448768.2444
  22607693.406    -9622947.057 8  -7487278.39246  22607697.049    22607705.8404
 00  7 30  0  9 30.0000000  0  7 20 25 22 29 21 06 30
  22868335.762   -10572212.975 8  -8214827.01046  22868339.921    22868349.6924
  20607861.305   -23602726.038 9 -18368238.22948  20607864.104    20607871.7474
  22470356.752   -11784984.302 8  -9161450.29346  22470354.817    22470365.9204
  21748104.594   -16128706.826 8 -12544783.84447  21748108.702    21748117.5654
  23677690.461    -7725430.395 7  -6003401.94045  23677700.857    23677714.7134
  24438894.423    -4420816.338 7  -3432287.30345  24438899.590    24438913.8244
  22622725.118    -9543946.286 8  -7425719.40246  22622730.345    22622740.1264
 00  7 30  0 10  0.0000000  0  7 20 25 22 29 21 06 30
  22854996.419   -10642306.237 8  -8269445.10546  22855000.894    22855010.7864
  20607619.186   -23603998.670 9 -18369229.88048  20607621.930    20607629.4784
  22449636.317   -11893824.031 8  -9246260.33546  22449643.656    22449654.8684
  21759782.757   -16067361.035 8 -12496981.99547  21759782.481    21759790.9374
  23699932.666    -7608537.741 7  -5912316.89945  23699946.233    23699958.7194
  24429095.900    -4472304.555 7  -3472407.82445  24429102.666    24429114.5904
  22637832.189    -9464552.978 8  -7363854.52646  22637838.037    22637847.0454
 00  7 30  0 10 30.0000000  0  7 20 25 22 29 21 06 30
  22841743.648   -10711947.992 8  -8323711.37846  22841748.908    22841757.7954
  20607427.141   -23605008.929 9 -18370017.08548  20607429.656    20607437.2724
  22428983.717   -12002405.066 8  -9330868.80446  22428981.315    22428992.4554
  21771509.622   -16005719.490 8 -12448949.68847  21771512.707    21771520.8704
  23722219.324    -7491526.196 7  -5821139.23445  23722212.592    23722224.4524
  24419358.929    -4523489.147 7  -3512291.74045  24419361.778    24419375.3974
  22653015.150    -9384770.123 8  -7301686.11246  22653020.525    22653029.8894
 00  7 30  0 11  0.0000000  0  7 20 25 22 29 21 06 30
  22828581.924   -10781135.690 8  -8377623.87146  22828583.012    22828591.2394
  20607283.652   -23605757.764 9 -18370600.57848  20607286.872    20607294.7374
  22408367.374   -12110724.831 8  -9415273.67546  22408368.302    22408379.2544
  21783295.000   -15943782.294 8 -12400686.99047  21783298.886    21783306.6954
  23744492.426    -7374398.935 7  -5729871.32945  23744501.089    23744514.5344
  24409680.427    -4574367.591 7  -3551937.09645  24409679.559    24409693.0424
  22668271.638    -9304600.428 8  -7239216.27846  22668276.011    22668286.1304
 00  7 30  0 11 30.0000000  0  7 20 25 22 29 21 06 30
  22815501.459   -10849867.162 8  -8431180.82646  22815504.273    22815512.5804
  20607191.921   -23606245.302 9 -18370980.46848  20607194.397    20607201.6714
  22387802.876   -12218780.851 8  -9499473.05646  22387806.491    22387816.8884
  21795140.050   -15881549.599 8 -12352194.04147  21795141.387    21795150.1304
  23766806.751    -7257158.910 8  -5638515.54845  23766811.504    23766824.2374
  24400058.194    -4624937.190 8  -3591341.80545  24400056.814    24400069.5354
  22683602.482    -9224046.271 8  -7176446.85046  22683605.031    22683614.1554
 00  7 30  0 12  0.0000000  0  7 20 25 22 29 21 06 30
  22802510.986   -10918140.093 8  -8484380.45546  22802512.124    22802521.2644
  20607146.905   -23606472.372 9 -18371157.40248  20607151.132    20607158.4734
  22367299.364   -12326570.755 8  -9583465.06846  22367294.638    22367304.7284
  21807037.907   -15819021.774 8 -12303471.11647  21807039.913    21807048.3514
  23789144.284    -7139809.050 7  -5547074.22145  23789142.159    23789156.5274
  24390486.597    -4675195.516 7  -3630503.97545  24390492.651    24390504.8454
  22699004.753    -9143109.880 8  -7113379.56946  22699007.584    22699016.6104
 00  7 30  0 12 30.0000000  0  7 20 25 22 29 21 06 30
  22789606.155   -10985951.985 8  -8537220.82446  22789608.118    22789617.5354
  20607153.760   -23606439.383 9 -18371131.69348  20607157.250    20607164.7744
  22346832.153   -12434091.612 8  -9667247.41846  22346834.715    22346844.8484
  21818991.476   -15756198.749 8 -12254518.16247  21818994.501    21819003.6554
  23811485.526    -7022352.584 7  -5455549.84245  23811493.388    23811506.9774
  24380985.102    -4725140.010 7  -3669421.59845  24380987.533    24380999.8074
  22714477.013    -9061794.201 8  -7050016.76446  22714480.681    22714490.2574
 00  7 30  0 13  0.0000000  0  7 20 25 22 29 21 06 30
  22776789.818   -11053300.749 8  -8589700.31546  22776792.210    22776800.5014
  20607208.854   -23606147.128 9 -18370903.95348  20607212.884    20607220.3224
  22326426.144   -12541340.482 8  -9750817.86146  22326425.226    22326435.1384
  21831004.799   -15693081.108 8 -12205335.64647  21831005.920    21831015.1544
  23833858.435    -6904791.947 7  -5363944.31345  23833864.471    23833878.2024
  24371539.779    -4774768.156 7  -3708092.73845  24371544.934    24371555.7734
  22730023.645    -8980101.848 8  -6986360.43146  22730026.627    22730035.4074
 00  7 30  0 13 30.0000000  0  7 20 25 22 29 21 06 30
  22764061.303   -11120184.080 8  -8641817.14246  22764064.900    22764072.1434
  20607315.191   -23605596.098 9 -18370474.57848  20607317.895    20607325.3284
  22306065.529   -12648314.695 8  -9834174.27246  22306068.320    22306078.7124
  21843067.878   -15629668.911 8 -12155923.60646  21843072.849    21843081.2164
  23856262.471    -6787130.139 8  -5272259.94445  23856255.092    23856269.3024
  24362156.285    -4824077.316 7  -3746515.31645  24362159.272    24362174.3294
  22745641.293    -8898035.316 8  -6922412.53046  22745643.392    22745652.7164
 00  7 30  0 14  0.0000000  0  7 20 25 22 29 21 06 30
  22751421.972   -11186599.705 8  -8693569.51646  22751425.628    22751434.9374
  20607470.091   -23604787.277 9 -18369844.31748  20607471.679    20607479.1824
  22285763.675   -12755011.977 8  -9917314.86446  22285764.299    22285775.0594
  21855193.145   -15565962.281 8 -12106282.13046  21855195.619    21855204.7914
  23878661.930    -6669370.098 8  -5180498.96545  23878665.422    23878678.0864
  24352836.385    -4873065.264 7  -3784687.57045  24352838.022    24352851.7764
  22761329.707    -8815597.419 8  -6858175.27246  22761330.126    22761339.6704
 00  7 30  0 14 30.0000000  0  7 20 25 22 29 21 06 30
  22738875.522   -11252545.150 8  -8744955.47846  22738876.718    22738885.7474
  20607670.316   -23603721.065 9 -18369013.49948  20607674.581    20607682.0674
  22265512.567   -12861429.805 8 -10000237.68746  22265513.933    22265523.8164
  21867372.447   -15501961.675 8 -12056411.58846  21867374.152    21867382.9364
  23901087.068    -6551515.318 8  -5088664.18545  23901092.075    23901105.4074
  24343572.437    -4921729.647 7  -3822607.66945  24343577.712    24343590.9024
  22777086.172    -8732790.768 8  -6793650.65446  22777087.766    22777096.7424
 00  7 30  0 15  0.0000000  0  7 20 25 22 29 21 06 30
  22726417.363   -11318018.377 8  -8795973.50246  22726417.386    22726425.8104
  20607921.988   -23602398.130 9 -18367982.63948  20607926.531    20607933.7834
  22245311.954   -12967565.293 8 -10082940.51046  22245316.336    22245326.9124
  21879607.429   -15437667.294 8 -12006312.13046  21879609.115    21879618.3994
  23923533.258    -6433568.168 7  -4996757.42445  23923537.572    23923550.6984
  24334377.785    -4970067.934 7  -3860273.71745  24334380.034    24334391.9584
  22792906.344    -8649617.601 8  -6728840.44346  22792914.864    22792924.5924
 00  7 30  0 15 30.0000000  0  7 20 25 22 29 21 06 30
  22714045.237   -11383017.059 8  -8846621.74246  22714048.979    22714057.4434
  20608224.184   -23600819.012 9 -18366752.15848  20608226.924    20608234.4374
  22225175.731   -13073415.481 8 -10165420.98346  22225173.516    22225184.1934
  21891897.360   -15373079.299 8 -11955983.86846  21891900.264    21891909.0244
  23945996.363    -6315531.570 7  -4904781.00745  23945996.376    23946011.9194
  24325238.625    -5018077.709 7  -3897683.78945  24325242.554    24325255.9294
  22808810.657    -8566081.086 8  -6663747.10446  22808812.516    22808820.8174
 00  7 30  0 16  0.0000000  0  7 20 25 22 29 21 06 30
  22701772.127   -11447539.032 8  -8896898.52546  22701770.531    22701779.2174
  20608572.618   -23598984.380 9 -18365322.56548  20608575.858    20608583.3014
  22205083.060   -13178977.770 8 -10247677.11846  22205086.024    22205096.9754
  21904245.571   -15308197.981 8 -11905427.05346  21904247.232    21904255.4574
  23968472.132    -6197408.508 7  -4812737.20645  23968476.654    23968491.4214
  24316168.342    -5065756.357 7  -3934835.81445  24316170.216    24316180.5684
  22824774.055    -8482183.606 8  -6598372.48446  22824777.139    22824786.3894
 00  7 30  0 16 30.0000000  0  7 20 25 22 29 21 06 30
  22689579.160   -11511582.042 8  -8946802.10446  22689583.389    22689592.9694
  20608971.030   -23596894.658 9 -18363694.20348  20608973.744    20608980.9404
  22185050.799   -13284250.190 8 -10329707.42046  22185053.583    22185063.6704
  21916646.920   -15243023.572 8 -11854641.85346  21916649.552    21916657.6754
  23990969.375    -6079202.115 7  -4720628.52045  23990969.974    23990984.5674
  24307161.596    -5113101.363 8  -3971727.87245  24307160.774    24307170.9374
  22840808.396    -8397927.644 8  -6532718.55346  22840810.457    22840819.7164
 00  7 30  0 17  0.0000000  0  7 20 25 22 29 21 06 30
  22677484.222   -11575144.055 8  -8996330.85746  22677487.562    22677496.6794
  20609415.912   -23594550.748 9 -18361867.78448  20609419.645    20609427.2284
  22165074.880   -13389230.048 8 -10411509.73946  22165076.133    22165085.9784
  21929104.342   -15177556.492 8 -11803628.61746  21929107.927    21929116.1294
  24013474.079    -5960915.161 7  -4628457.02345  24013479.504    24013492.1484
  24298208.483    -5160110.440 7  -4008358.20945  24298213.688    24298227.7534
  22856910.699    -8313316.145 8  -6466787.56346  22856911.682    22856921.1734
 00  7 30  0 17 30.0000000  0  7 20 25 22 29 21 06 30
  22665479.496   -11638222.683 8  -9045482.96946  22665484.338    22665492.7834
  20609911.514   -23591953.090 9 -18359843.63348  20609913.747    20609921.6544
  22145152.277   -13493914.262 8 -10493081.72146  22145155.506    22145165.1824
  21941622.164   -15111797.154 8 -11752387.63146  21941621.152    21941629.7764
  24035989.814    -5842550.224 7  -4536224.70645  24036003.152    24036017.5014
  24289337.861    -5206781.242 7  -4044724.93345  24289333.189    24289347.0474
  22873078.518    -8228351.415 8  -6400581.33346  22873079.945    22873089.6324
 00  7 30  0 18  0.0000000  0  7 20 25 22 29 21 06 30
  22653571.535   -11700815.784 8  -9094256.76246  22653573.255    22653582.0004
  20610452.065   -23589102.191 9 -18357622.15348  20610456.099    20610463.9674
  22125287.324   -13598300.132 8 -10574421.21646  22125291.121    22125301.1144
  21954183.728   -15045745.552 8 -11700918.90846  21954189.611    21954199.2574
  24058537.479    -5724110.448 7  -4443934.05345  24058542.737    24058557.3514
  24280517.755    -5253111.303 7  -4080826.13845  24280517.476    24280530.7614
  22889308.462    -8143036.259 8  -6334102.05046  22889314.922    22889324.4554
 00  7 30  0 18 30.0000000  0  7 20 25 22 29 21 06 30
  22641752.738   -11762921.253 8  -9142650.55646  22641755.486    22641763.6304
  20611044.617   -23585998.924 9 -18355204.02348  20611046.710    20611054.4994
  22105475.499   -13702385.272 8 -10655526.36746  22105483.453    22105494.4784
  21966812.001   -14979402.223 8 -11649222.88446  21966815.288    21966824.5874
  24081096.750    -5605598.703 7  -4351587.40545  24081093.638    24081108.7474
  24271763.757    -5299098.209 8  -4116659.95645  24271767.176    24271779.9334
  22905616.717    -8057373.445 8  -6267351.87046  22905616.639    22905625.5864
 00  7 30  0 19  0.0000000  0  7 20 25 22 29 21 06 30
  22630025.026   -11824536.940 8  -9190662.73646  22630030.343    22630038.8254
  20611683.828   -23582643.795 9 -18352589.64048  20611685.444    20611692.9744
  22085735.325   -13806167.477 8 -10736395.48146  22085734.628    22085745.0704
  21979491.637   -14912767.427 8 -11597299.72646  21979494.800    21979504.3614
  24103654.985    -5487018.009 7  -4259186.99145  24103659.609    24103672.2584
  24263079.269    -5344739.576 7  -4152224.52945  24263079.680    24263091.8734
  22921976.699    -7971365.594 8  -6200332.81846  22921983.040    22921991.9524
 00  7 30  0 19 30.0000000  0  7 20 25 22 29 21 06 30
  22618396.591   -11885660.618 8  -9238291.52946  22618398.475    22618407.8764
  20612367.602   -23579037.503 9 -18349779.55248  20612371.874    20612379.3374
  22066043.192   -13909643.988 8 -10817026.36246  22066044.191    22066053.7704
  21992226.496   -14845841.381 8 -11545149.62446  21992230.351    21992240.1884
  24126225.999    -5368370.814 7  -4166734.77445  24126236.520    24126251.3484
  24254451.883    -5390033.125 7  -4187518.10345  24254461.098    24254474.4764
  22938404.385    -7885015.152 8  -6133046.81846  22938414.697    22938424.1314
 00  7 30  0 20  0.0000000  0  7 20 25 22 29 21 06 30
  22606858.072   -11946290.319 8  -9285535.43346  22606860.690    22606869.0674
  20613100.713   -23575180.527 9 -18346774.12448  20613105.548    20613113.3704
  22046409.297   -14012811.882 8 -10897416.81146  22046411.082    22046421.9504
  22005019.959   -14778624.521 8 -11492772.90546  22005022.197    22005030.3624
  24148811.765    -5249660.373 7  -4074233.26545  24148826.715    24148841.4184
  24245900.996    -5434976.506 7  -4222538.78145  24245908.670    24245920.6044
  22954906.009    -7798325.035 8  -6065496.14146  22954911.073    22954919.9804
 00  7 30  0 20 30.0000000  0  7 20 25 22 29 21 06 30
  22595413.390   -12006423.931 8  -9332392.76046  22595417.190    22595426.5484
  20613883.756   -23571073.593 9 -18343573.91648  20613887.284    20613894.8924
  22026835.906   -14115668.467 8 -10977564.70446  22026838.862    22026848.6704
  22017860.038   -14711117.249 8 -11440169.88746  22017867.554    22017877.2974
  24171432.733    -5130889.731 7  -3981684.86645  24171429.133    24171442.4694
  24237418.506    -5479567.423 7  -4257284.83445  24237424.030    24237436.4594
  22971468.318    -7711297.778 8  -5997682.75546  22971472.127    22971481.6794
 00  7 30  0 21  0.0000000  0  7 20 25 22 29 21 06 30
  22584065.089   -12066059.443 8  -9378861.97046  22584069.592    22584078.2904
  20614712.298   -23566717.294 9 -18340179.41048  20614716.244    20614723.6064
  22007320.931   -14218211.353 8 -11057468.16646  22007325.231    22007334.8904
  22030767.482   -14643319.868 8 -11387340.80546  22030768.924    22030778.7584
  24194045.494    -5012061.660 7  -3889091.72045  24194040.639    24194055.0614
  24229001.074    -5523803.674 7  -4291754.52945  24229006.152    24229018.2454
  22988087.211    -7623935.836 8  -5929608.56946  22988096.257    22988105.9234
 00  7 30  0 21 30.0000000  0  7 20 25 22 29 21 06 30
  22572816.051   -12125194.552 8  -9424941.27446  22572814.730    22572824.7174
  20615589.032   -23562111.940 9 -18336590.83448  20615592.378    20615600.0984
  21987869.112   -14320438.523 8 -11137125.61346  21987871.421    21987881.0064
  22043721.742   -14575232.815 8 -11334286.01346  22043725.578    22043735.8554
  24216669.274    -4893178.798 7  -3796455.86245  24216665.414    24216678.6374
  24220648.677    -5567682.723 7  -4325945.84245  24220653.882    24220668.3924
  23004782.209    -7536241.976 8  -5861275.75346  23004784.203    23004792.8554
 00  7 30  0 22  0.0000000  0  7 20 25 22 29 21 06 30
  22561655.664   -12183827.424 8  -9470629.21846  22561658.816    22561667.3504
  20616512.825   -23557258.461 9 -18332808.91848  20616516.296    20616523.8914
  21968477.734   -14422347.068 8 -11216534.78046  21968479.400    21968488.8754
  22056734.411   -14506856.372 8 -11281005.74146  22056737.436    22056747.0394
  24239289.411    -4774244.246 7  -3703779.69245  24239296.629    24239309.9904
  24212369.209    -5611202.200 7  -4359856.98445  24212373.674    24212385.9524
  23021528.568    -7448218.988 8  -5792686.46146  23021534.559    23021543.9694
 00  7 30  0 22 30.0000000  0  6 20 25 22 29 06 30
  22550593.311   -12241955.839 8  -9515924.10646  22550596.560    22550606.5564
  20617485.367   -23552157.238 9 -18328833.95248  20617486.936    20617494.5794
  21949148.913   -14523934.090 8 -11295693.41147  21949148.377    21949158.1294
  22069802.067   -14438191.017 8 -11227500.33346  22069804.924    22069813.8374
  24204163.787    -5654359.969 8  -4393486.33245  24204161.547    24204172.9714
  23038350.757    -7359869.588 8  -5723842.85346  23038346.415    23038356.6414
 00  7 30  0 23  0.0000000  0  6 20 25 22 29 06 30
  22539631.155   -12299577.911 8  -9560824.43946  22539632.296    22539641.8904
  20618499.509   -23546808.819 9 -18324666.37448  20618504.530    20618512.0974
  21929873.003   -14625196.947 8 -11374599.43847  21929877.637    21929888.1554
  22082922.883   -14369237.087 8 -11173770.05646  22082926.326    22082934.8904
  24196014.670    -5697153.763 8  -4426832.01245  24196018.698    24196029.9394
  23055207.768    -7271196.615 8  -5654747.09546  23055220.841    23055231.1054
 00  7 30  0 23 30.0000000  0  6 20 25 22 29 06 30
  22528760.030   -12356691.691 8  -9605328.70146  22528763.562    22528772.7524
  20619566.381   -23541213.959 9 -18320306.76048  20619569.594    20619576.7434
  21910667.122   -14726133.463 8 -11453251.17347  21910670.125    21910680.7344
  22096099.499   -14299994.970 8 -11119815.22746  22096102.543    22096111.4404
  24187944.751    -5739581.217 7  -4459892.25545  24187944.053    24187955.4334
  23072156.650    -7182202.310 8  -5585400.93346  23072155.689    23072165.7694
 00  7 30  0 24  0.0000000  0  6 20 25 22 29 06 30
  22517993.055   -12413295.069 8  -9649435.24546  22517992.863    22518001.6144
  20620676.598   -23535373.677 9 -18315755.91248  20620680.735    20620688.0684
  21891525.551   -14826741.307 8 -11531646.79247  21891525.152    21891535.2804
  22109331.724   -14230465.134 8 -11065636.18346  22109332.977    22109342.3394
  24179936.065    -5781640.084 8  -4492665.28645  24179940.663    24179951.1364
  23089143.322    -7092889.349 8  -5515806.50246  23089150.049    23089161.2644
 00  7 30  0 24 30.0000000  0  6 20 25 22 29 06 30
  22507316.743   -12469385.989 8  -9693142.46746  22507319.189    22507327.4804
  20621835.814   -23529287.924 9 -18311013.78848  20621838.756    20621846.1614
  21872440.526   -14927017.728 8 -11609784.12947  21872442.922    21872453.0404
  22122611.766   -14160647.939 8 -11011233.25546  22122619.283    22122628.0254
  24172001.594    -5823328.220 8  -4525149.44445  24172006.463    24172017.9984
  23106204.126    -7003260.617 8  -5445966.02246  23106207.308    23106217.4984
 00  7 30  0 25  0.0000000  0  6 20 25 22 29 06 30
  22496740.117   -12524962.533 8  -9736448.88046  22496742.635    22496751.4284
  20623041.331   -23522957.637 9 -18306081.10848  20623043.312    20623050.8444
  21853419.088   -15026959.926 8 -11687661.07847  21853425.219    21853434.2354
  22135956.738   -14090543.941 8 -10956606.83746  22135959.296    22135968.6974
  24164141.214    -5864643.368 8  -4557342.96245  24164145.009    24164158.1974
  23123316.208    -6913318.876 8  -5375881.58746  23123323.006    23123332.6344
 00  7 30  0 25 30.0000000  0  6 20 25 22 29 06 30
  22486262.949   -12580022.882 8  -9779353.04846  22486265.622    22486274.9684
  20624290.045   -23516383.396 9 -18300958.33948  20624294.296    20624301.8224
  21834471.223   -15126565.413 8 -11765275.67047  21834470.495    21834480.2734
  22149349.824   -14020153.334 8 -10901757.07546  22149354.718    22149363.5574
  24156353.392    -5905583.319 8  -4589244.11745  24156355.699    24156366.6594
  23140489.335    -6823066.715 8  -5305555.31146  23140496.420    23140506.7724
 00  7 30  0 26  0.0000000  0  6 20 25 22 29 06 30
  22475886.296   -12634564.913 8  -9821853.33246  22475887.103    22475895.9414
  20625588.562   -23509565.871 9 -18295645.99048  20625591.716    20625599.2474
  21815576.691   -15225832.039 8 -11842626.18047  21815580.093    21815590.9634
  22162800.187   -13949476.700 8 -10846684.43346  22162804.594    22162813.1304
  24148634.633    -5946145.705 8  -4620851.04345  24148636.150    24148647.7764
  23157723.114    -6732506.558 8  -5234989.03146  23157730.521    23157739.0354
 00  7 30  0 26 30.0000000  0  6 20 25 22 29 06 30
  22465605.383   -12688586.731 8  -9863948.23046  22465606.924    22465615.8454
  20626933.981   -23502505.217 9 -18290144.19248  20626935.213    20626942.8644
  21796751.240   -15324757.444 8 -11919710.79947  21796755.208    21796765.9614
  22176306.067   -13878514.487 8 -10791389.25746  22176307.139    22176316.9194
  24140985.823    -5986328.229 8  -4652161.99945  24140989.511    24141000.9394
  23175022.508    -6641641.147 8  -5164184.88746  23175021.330    23175031.3024
 00  7 30  0 27  0.0000000  0  6 20 25 22 29 06 30
  22455426.588   -12742086.723 8  -9905636.53146  22455425.897    22455433.6914
  20628321.648   -23495202.089 9 -18284453.44648  20628324.894    20628332.6734
  21777997.827   -15423338.809 8 -11996527.35147  21777996.086    21778006.1774
  22189861.199   -13807267.110 8 -10735871.89646  22189865.494    22189874.5224
  24133412.143    -6026128.933 8  -4683175.43445  24133415.016    24133426.3854
  23192359.238    -6550473.224 8  -5093145.02646  23192369.488    23192379.9444
 00  7 30  0 27 30.0000000  0  6 20 25 22 29 06 30
  22445342.381   -12795062.850 8  -9946916.61346  22445344.405    22445352.6424
  20629757.956   -23487657.468 9 -18278574.52548  20629761.048    20629768.4474
  21759302.265   -15521573.539 8 -12073073.79547  21759302.671    21759312.4394
  22203474.208   -13735735.243 8 -10680132.86946  22203477.841    22203486.6324
  24125909.245    -6065545.632 8  -4713889.63945  24125915.231    24125925.5994
  23209770.562    -6459005.678 8  -5021871.71846  23209775.303    23209785.8554
 00  7 30  0 28  0.0000000  0  6 20 25 22 29 06 30
  22435359.646   -12847513.248 8  -9987787.02246  22435364.237    22435372.1634
  20631239.328   -23479871.938 9 -18272507.88048  20631242.771    20631250.0594
  21740677.157   -15619459.014 8 -12149348.09047  21740675.755    21740685.5834
  22217137.448   -13663919.193 8 -10624172.38046  22217144.237    22217152.9184
  24118481.816    -6104576.163 8  -4744302.95745  24118486.667    24118498.8444
  23227233.575    -6367240.865 8  -4950366.72346  23227237.674    23227247.1624
 00  7 30  0 28 30.0000000  0  6 20 25 22 29 06 30
  22425482.919   -12899436.018 8 -10028246.30446  22425483.759    22425491.4004
  20632768.134   -23471845.870 9 -18266253.80148  20632769.978    20632777.3294
  21722116.132   -15716993.196 9 -12225348.64847  21722115.780    21722125.1784
  22230860.126   -13591819.327 8 -10567990.74546  22230864.787    22230873.1894
  24111136.860    -6143218.377 8  -4774413.69545  24111133.524    24111145.6094
  23244749.591    -6275181.688 8  -4878632.39846  23244756.294    23244766.2984
 00  7 30  0 29  0.0000000  0  6 20 25 22 29 06 30
  22415701.749   -12950829.514 8 -10068293.16246  22415703.740    22415710.9594
  20634339.957   -23463579.653 9 -18259812.59848  20634342.943    20634350.1794
  21703617.506   -15814173.831 8 -12301073.73047  21703622.444    21703631.5444
  22244636.583   -13519436.479 8 -10511588.61246  22244638.658    22244647.7044
  24103855.302    -6181470.258 8  -4804220.23245  24103854.976    24103866.6224
  23262327.814    -6182830.800 8  -4806670.74246  23262330.930    23262340.6934
 00  7 30  0 29 30.0000000  0  6 20 25 22 29 06 30
  22406022.904   -13001691.854 8 -10107926.10746  22406024.334    22406032.5054
  20635957.644   -23455074.036 9 -18253184.84548  20635961.611    20635968.7734
  21685195.574   -15910998.007 8 -12376521.03547  21685196.972    21685207.2644
  22258460.729   -13446770.866 8 -10454966.13446  22258465.813    22258475.8914
  24096642.763    -6219329.606 7  -4833720.93745  24096650.010    24096661.7064
  23279958.194    -6090190.707 8  -4734483.72746  23279959.681    23279968.9794
 00  7 30  0 30  0.0000000  0  6 20 25 22 29 06 30
  22396446.166   -13052021.147 8 -10147143.70346  22396446.951    22396454.9274
  20637621.953   -23446329.856 9 -18246371.19048  20637625.614    20637632.9294
  21666840.655   -16007463.165 8 -12451688.59347  21666840.638    21666849.7014
  22272343.080   -13373822.974 8 -10398123.72246  22272347.482    22272357.5764
  24089516.548    -6256794.338 8  -4862914.13245  24089520.446    24089532.0874
  23297642.383    -5997264.327 8  -4662073.63446  23297642.739    23297653.0724
 00  7 30  0 30 30.0000000  0  6 20 25 22 29 06 30
  22386970.595   -13101815.800 8 -10185944.70046  22386972.494    22386979.6324
  20639331.288   -23437347.331 9 -18239371.81548  20639334.908    20639342.2394
  21648551.026   -16103566.943 9 -12526574.56747  21648552.716    21648561.8674
  22286279.430   -13300593.650 8 -10341061.97146  22286282.452    22286292.2494
  24082460.618    -6293862.317 7  -4891798.17545  24082466.648    24082477.8734
  23315374.440    -5904053.945 8  -4589442.27946  23315380.736    23315390.7654
 00  7 30  0 31  0.0000000  0  6 20 25 22 29 06 30
  22377599.810   -13151074.136 8 -10224327.80646  22377597.858    22377606.3234
  20641085.513   -23428127.240 9 -18232187.31948  20641089.402    20641096.6814
  21630332.037   -16199307.287 9 -12601177.33347  21630333.747    21630343.3084
  22300267.564   -13227083.169 8 -10283781.16146  22300270.964    22300280.6504
  24075485.442    -6330531.537 7  -4920371.52945  24075488.166    24075499.7724
  23333170.374    -5810562.692 8  -4516592.02646  23333171.467    23333182.1154
 00  7 30  0 31 30.0000000  0  6 20 25 22 29 06 30
  22368322.558   -13199794.080 8 -10262291.35646  22368326.187    22368335.3824
  20642886.951   -23418669.826 9 -18224817.89848  20642888.974    20642896.1904
  21612180.147   -16294681.841 8 -12675495.07047  21612184.483    21612194.1754
  22314309.572   -13153292.064 8 -10226281.66546  22314312.876    22314321.9464
  24068582.916    -6366800.058 8  -4948632.64045  24068587.318    24068598.6624
  23351012.552    -5716792.749 8  -4443524.63446  23351015.086    23351025.3754
 00  7 30  0 32  0.0000000  0  6 20 25 22 29 06 30
  22359156.643   -13247974.197 8 -10299834.26446  22359158.322    22359166.1884
  20644730.222   -23408975.606 9 -18217263.95448  20644734.147    20644741.1044
  21594102.368   -16389687.764 8 -12749525.57347  21594105.346    21594114.3514
  22328400.921   -13079221.127 8 -10168564.12146  22328407.831    22328418.4674
  24061763.012    -6402665.702 8  -4976579.79345  24061762.932    24061774.2434
  23368909.545    -5622747.147 8  -4370242.48146  23368912.067    23368921.4234
 00  7 30  0 32 30.0000000  0  6 20 25 22 29 06 30
  22350092.220   -13295612.703 8 -10336955.15346  22350093.219    22350100.6564
  20646620.434   -23399045.705 9 -18209526.36748  20646623.331    20646630.8704
  21576095.405   -16484322.581 8 -12823266.89847  21576096.780    21576106.4634
  22342552.092   -13004870.707 8 -10110628.81446  22342556.230    22342566.1584
  24055016.528    -6438126.434 8  -5004211.44845  24055013.778    24055025.1044
  23386861.183    -5528428.270 8  -4296747.28946  23386860.765    23386869.4454
 00  7 30  0 33  0.0000000  0  6 20 25 22 29 06 30
  22341131.722   -13342707.950 8 -10373652.71946  22341131.163    22341139.3074
  20648554.873   -23388880.667 9 -18201605.55348  20648557.779    20648564.8844
  21558153.447   -16578584.032 8 -12896717.27447  21558159.099    21558169.3644
  22356757.368   -12930241.330 8 -10052476.13646  22356758.805    22356769.2564
  24048334.507    -6473180.191 7  -5031525.96045  24048342.356    24048355.1154
  23404855.546    -5433838.857 8  -4223041.29746  23404860.206    23404869.4054
 00  7 30  0 33 30.0000000  0  6 20 25 22 29 06 30
  22332272.754   -13389258.307 8 -10409925.68346  22332272.582    22332281.5124
  20650531.668   -23378480.602 9 -18193501.60248  20650536.716    20650543.9654
  21540291.119   -16672470.079 8 -12969875.14647  21540293.891    21540302.9174
  22371007.273   -12855333.796 8  -9994106.72746  22371013.524    22371022.5964
  24041749.426    -6507825.045 8  -5058521.90145  24041750.836    24041761.9204
  23422901.657    -5338981.976 8  -4149126.93046  23422910.570    23422920.1984
 00  7 30  0 34  0.0000000  0  6 20 25 22 29 06 30
  22323514.793   -13435262.042 8 -10445772.70946  22323518.578    22323526.9614
  20652556.627   -23367846.030 9 -18185214.92048  20652560.385    20652567.7084
  21522496.091   -16765978.398 9 -13042738.69647  21522499.428    21522508.5194
  22385312.912   -12780148.633 8  -9935520.95446  22385320.155    22385330.2064
  24035232.045    -6542058.844 8  -5085197.48045  24035237.198    24035246.4784
  23441008.999    -5243860.035 8  -4075006.02546  23441011.843    23441022.1774
 00  7 30  0 34 30.0000000  0  6 20 25 22 29 06 30
  22314868.841   -13480717.634 8 -10481192.62646  22314868.450    22314876.8254
  20654625.498   -23356977.894 9 -18176746.24448  20654628.413    20654635.9464
  21504774.870   -16859106.139 9 -13115305.67847  21504777.743    21504787.5054
  22399677.059   -12704686.317 8  -9876719.23246  22399680.616    22399690.5434
  24028795.882    -6575879.848 8  -5111551.41845  24028800.987    24028811.8144
  23459153.615    -5148475.502 8  -4000680.48746  23459162.789    23459173.0014
 00  7 30  0 35  0.0000000  0  6 20 25 22 29 06 30
  22306321.006   -13525623.623 8 -10516184.29146  22306323.205    22306330.8224
  20656738.531   -23345876.436 9 -18168095.75548  20656741.204    20656748.2604
  21487126.385   -16951850.797 9 -13187574.15047  21487128.882    21487137.9574
  22414088.297   -12628947.480 8  -9817702.01646  22414093.217    22414102.9954
  24022440.832    -6609286.036 8  -5137582.14345  24022443.477    24022454.3324
  23477358.594    -5052831.138 8  -3926152.50445  23477363.159    23477373.2324
 00  7 30  0 35 30.0000000  0  6 20 25 22 29 06 30
  22297877.285   -13569978.158 8 -10550746.24246  22297882.984    22297890.7994
  20658895.387   -23334542.331 9 -18159263.99048  20658897.986    20658905.2224
  21469550.897   -17044210.383 9 -13259542.56147  21469553.380    21469562.9204
  22428554.888   -12552932.860 8  -9758469.94146  22428558.719    22428568.0364
  24016164.503    -6642275.531 8  -5163288.14945  24016164.623    24016176.8784
  23495604.949    -4956929.712 8  -3851424.13945  23495612.357    23495623.1124
 00  7 30  0 36  0.0000000  0  6 20 25 22 29 06 30
  22289547.581   -13613779.852 8 -10584877.38446  22289548.155    22289555.9844
  20661094.812   -23322976.098 9 -18150251.34548  20661098.869    20661106.2704
  21452046.078   -17136182.968 8 -13331209.41247  21452051.169    21452060.8174
  22443071.925   -12476643.059 8  -9699023.44846  22443075.832    22443085.9524
  24009963.090    -6674846.404 8  -5188667.96445  24009967.097    24009978.6574
  23513912.632    -4860773.960 8  -3776497.64346  23513911.412    23513921.4774
 00  7 30  0 36 30.0000000  0  6 20 25 22 29 06 30
  22281315.535   -13657027.163 8 -10618576.56046  22281318.108    22281326.6334
  20663341.485   -23311178.302 9 -18141058.27348  20663343.816    20663351.1934
  21434621.892   -17227765.894 8 -13402572.62847  21434623.102    21434633.3604
  22457642.719   -12400078.468 8  -9639362.81446  22457645.583    22457656.2104
  24003841.701    -6706996.543 8  -5213719.95545  24003849.317    24003859.2784
  23532257.074    -4764366.469 8  -3701375.04446  23532256.733    23532267.3404
 00  7 30  0 37  0.0000000  0  6 20 25 22 29 06 30
  22273193.263   -13699718.734 8 -10651842.67947  22273193.866    22273202.5854
  20665630.547   -23299149.570 9 -18131685.23348  20665633.046    20665640.0844
  21417270.434   -17318956.534 9 -13473630.19347  21417270.777    21417279.6674
  22472264.049   -12323240.030 8  -9579488.80046  22472267.672    22472278.2424
  23997805.184    -6738724.096 8  -5238442.64545  23997812.465    23997822.7004
  23550642.993    -4667709.792 8  -3626058.22746  23550650.007    23550660.1904
 00  7 30  0 37 30.0000000  0  6 20 25 22 29 06 30
  22265172.665   -13741852.990 8 -10684674.54947  22265176.373    22265184.3584
  20667961.743   -23286890.371 9 -18122132.62048  20667965.573    20667972.9844
  21399991.415   -17409752.624 9 -13544380.30647  21399992.966    21400001.8894
  22486938.853   -12246128.275 8  -9519401.79646  22486942.039    22486952.0064
  23991853.039    -6770027.453 8  -5262834.76045  23991855.710    23991866.1464
  23569084.122    -4570806.446 8  -3550549.16645  23569089.794    23569100.4844
 00  7 30  0 38  0.0000000  0  6 20 25 22 29 06 30
  22257260.274   -13783428.329 8 -10717070.87946  22257264.498    22257272.5254
  20670340.358   -23274400.933 9 -18112400.59348  20670342.421    20670350.0484
  21382785.159   -17500152.226 8 -13614821.47647  21382790.327    21382799.1484
  22501664.990   -12168743.933 8  -9459102.38346  22501668.009    22501676.8634
  23985976.449    -6800904.645 8  -5286894.83345  23985979.223    23985990.5644
  23587575.742    -4473659.626 8  -3474850.41245  23587575.888    23587587.5794
 00  7 30  0 38 30.0000000  0  7 20 25 22 29 06 01 30
  22249459.995   -13824443.283 8 -10749030.55047  22249460.492    22249467.8544
  20672758.941   -23261682.275 9 -18102489.95048  20672762.630    20672770.5084
  21365656.812   -17590153.318 8 -13684952.11447  21365663.348    21365672.1964
  22516439.926   -12091087.592 8  -9398591.03946  22516446.087    22516455.0124
  23980178.197    -6831353.793 8  -5310621.31545  23980184.548    23980196.1024
  24782323.544    -1266967.66817   -964008.04255  24782330.789    24782341.9414
  23606106.800    -4376271.359 8  -3398963.56346  23606108.693    23606118.9914
 00  7 30  0 39  0.0000000  0  7 20 25 22 29 06 01 30
  22241760.516   -13864896.491 8 -10780552.50847  22241762.129    22241769.9064
  20675222.824   -23248734.740 9 -18092400.96548  20675226.679    20675234.0014
  21348612.218   -17679753.236 9 -13754770.13847  21348613.389    21348623.0334
  22531275.495   -12013159.882 8  -9337868.22946  22531275.078    22531283.7894
  23974472.234    -6861373.249 8  -5334013.00145  23974471.965    23974482.6344
  24764283.989    -1361790.047 7  -1037895.53345  24764288.944    24764299.2054
  23624674.222    -4278644.427 8  -3322890.72045  23624686.709    23624697.0884
 00  7 30  0 39 30.0000000  0  7 20 25 22 29 06 01 30
  22234168.791   -13904786.588 8 -10811635.67047  22234170.772    22234179.7844
  20677730.497   -23235558.902 9 -18082134.07848  20677734.059    20677741.3924
  21331636.007   -17768949.459 9 -13824273.59947  21331639.827    21331649.3894
  22546154.580   -11934961.565 8  -9276934.55446  22546155.449    22546164.8064
  23968841.670    -6890960.854 8  -5357068.20045  23968842.320    23968852.3064
  24746233.418    -1456636.168 7  -1111801.53345  24746237.685    24746249.3004
  23643307.396    -4180781.393 8  -3246633.89445  23643309.267    23643319.4994
 00  7 30  0 40  0.0000000  0  7 20 25 22 29 06 01 30
  22226686.740   -13944112.115 8 -10842278.93346  22226687.302    22226696.0694
  20680282.676   -23222155.179 9 -18071689.61748  20680284.793    20680292.2314
  21314740.381   -17857739.741 9 -13893460.73847  21314743.688    21314752.6014
  22561080.983   -11856493.360 8  -9215790.59946  22561087.039    22561097.3404
  23963293.091    -6920115.035 8  -5379785.64645  23963294.114    23963304.9214
  24728185.727    -1551505.245 7  -1185725.45145  24728185.467    24728196.2144
  23661974.439    -4082685.075 8  -3170195.29645  23661976.477    23661986.8004
 00  7 30  0 40 30.0000000  0  7 20 25 22 29 06 01 30
  22219312.009   -13982871.812 8 -10872481.25946  22219311.397    22219320.8534
  20682875.879   -23208524.101 9 -18061068.00148  20682878.821    20682886.0384
  21297923.558   -17946122.347 9 -13962330.21747  21297924.558    21297933.4854
  22576072.432   -11777756.066 8  -9154436.94846  22576070.651    22576081.0684
  23957821.973    -6948834.202 8  -5402164.14745  23957829.490    23957839.4864
  24710136.339    -1646395.917 7  -1259666.17145  24710129.145    24710140.2554
  23680674.067    -3984358.234 8  -3093577.10045  23680688.153    23680698.3664
 00  7 30  0 41  0.0000000  0  7 20 25 22 29 06 01 30
  22212042.619   -14021064.428 8 -10902241.71746  22212044.196    22212051.8794
  20685513.341   -23194666.022 9 -18050269.49648  20685515.985    20685523.2014
  21281180.208   -18034095.125 8 -14030880.33247  21281183.214    21281192.6444
  22591105.347   -11698750.253 8  -9092874.09046  22591105.171    22591114.3954
  23952445.638    -6977116.203 8  -5424201.95845  23952447.372    23952456.6284
  24692069.077    -1741306.954 7  -1333622.76245  24692068.250    24692079.0104
  23699436.374    -3885803.505 8  -3016781.31145  23699442.690    23699452.9184
 00  7 30  0 41 30.0000000  0  7 20 25 22 29 06 01 30
  22204880.228   -14058688.408 8 -10931559.11346  22204884.243    22204892.5134
  20688193.771   -23180581.576 9 -18039294.59848  20688195.925    20688203.1794
  21264518.952   -18121655.566 9 -14099109.15847  21264521.281    21264530.5264
  22606187.382   -11619476.680 8  -9031102.56946  22606190.360    22606200.4864
  23947145.388    -7004959.308 8  -5445897.75245  23947148.227    23947159.0724
  24674002.932    -1836237.049 7  -1407594.20545  24674004.970    24674015.0654
  23718236.893    -3787023.163 8  -2939809.69645  23718239.223    23718249.5524
 00  7 30  0 42  0.0000000  0  7 20 25 22 29 06 01 30
  22197828.801   -14095742.643 8 -10960432.53947  22197832.742    22197841.5184
  20690915.164   -23166271.313 9 -18028143.74648  20690918.992    20690926.3524
  21247936.422   -18208801.169 9 -14167014.72847  21247937.553    21247947.4224
  22621322.903   -11539935.995 8  -8969122.95846  22621326.174    22621336.0554
  23941935.052    -7032362.020 8  -5467250.40545  23941933.177    23941943.9144
  24655935.476    -1931185.157 7  -1481579.67745  24655935.801    24655946.5274
  23737079.063    -3688019.737 8  -2862664.26545  23737078.635    23737089.5084
 00  7 30  0 42 30.0000000  0  7 20 25 22 29 06 01 30
  22190889.278   -14132225.763 8 -10988860.93447  22190890.853    22190899.3424
  20693683.297   -23151735.734 9 -18016817.32248  20693684.973    20693692.2204
  21231430.932   -18295529.900 9 -14234595.46547  21231433.888    21231443.1404
  22636510.673   -11460129.064 8  -8906935.83046  22636513.073    22636523.8944
  23936801.125    -7059322.461 8  -5488258.44645  23936803.545    23936812.9894
  24637858.953    -2026150.056 7  -1555578.22045  24637863.899    24637875.3294
  23755961.109    -3588796.325 8  -2785347.39945  23755960.253    23755971.8104
 00  7 30  0 43  0.0000000  0  7 20 25 22 29 06 01 30
  22184055.501   -14168136.549 8 -11016843.37346  22184056.964    22184065.3034
  20696490.883   -23136975.244 9 -18005315.63348  20696493.789    20696501.0424
  21215007.774   -18381840.027 9 -14301850.04147  21215009.977    21215018.5544
  22651746.778   -11380056.544 8  -8844541.76846  22651751.014    22651760.6094
  23931755.422    -7085838.963 8  -5508920.56745  23931757.673    23931767.9534
  24619786.165    -2121130.502 7  -1629588.84345  24619788.967    24619800.6854
  23774880.249    -3489355.610 8  -2707861.21745  23774884.375    23774894.7604
 00  7 30  0 43 30.0000000  0  7 20 25 22 29 06 01 30
  22177328.964   -14203473.653 8 -11044378.79847  22177332.116    22177341.1224
  20699344.062   -23121990.565 9 -17993639.25948  20699345.288    20699352.5874
  21198664.333   -18467729.411 9 -14368776.75947  21198665.989    21198674.4514
  22667034.841   -11299719.154 8  -8781941.31546  22667038.383    22667049.1094
  23926789.494    -7111909.966 8  -5529235.54045  23926796.801    23926806.2814
  24601711.575    -2216125.306 7  -1703610.68845  24601711.845    24601723.6174
  23793840.337    -3389699.809 8  -2630207.40445  23793847.659    23793858.6754
 00  7 30  0 44  0.0000000  0  7 20 25 22 29 06 01 30
  22170716.838   -14238235.968 8 -11071466.35047  22170717.931    22170725.8194
  20702235.555   -23106781.973 9 -17981788.40048  20702238.994    20702246.8174
  21182397.452   -18553195.416 9 -14435373.56347  21182401.470    21182411.1914
  22682374.381   -11219117.902 8  -8719135.27746  22682376.278    22682386.8234
  23921913.544    -7137533.666 8  -5549201.93545  23921920.691    23921930.6684
  24583630.617    -2311133.104 7  -1777642.65445  24583632.327    24583644.5054
  23812852.124    -3289831.658 8  -2552388.14345  23812852.297    23812863.2774
 00  7 30  0 44 30.0000000  0  7 20 25 22 29 06 01 30
  22164208.035   -14272422.376 8 -11098105.13847  22164211.773    22164220.4594
  20705170.635   -23091349.835 9 -17969763.35048  20705175.662    20705183.3144
  21166216.396   -18638235.861 9 -14501638.75647  21166219.247    21166227.8414
  22697761.192   -11138253.283 8  -8656123.98046  22697764.357    22697775.4054
  23917128.342    -7162708.594 8  -5568818.62245  23917129.285    23917140.3664
  24565544.931    -2406152.680 7  -1851683.79245  24565551.730    24565562.4184
  23831888.279    -3189753.729 8  -2474405.41345  23831896.681    23831906.9434
 00  7 30  0 45  0.0000000  0  7 20 25 22 29 06 01 30
  22157815.106   -14306031.766 8 -11124294.29947  22157816.330    22157825.8564
  20708151.301   -23075695.041 9 -17957564.80048  20708154.463    20708162.1154
  21150117.458   -18722848.704 9 -14567570.78047  21150118.340    21150126.1914
  22713200.569   -11057126.188 8  -8592908.17146  22713202.277    22713213.3004
  23912423.641    -7187433.267 8  -5588084.50945  23912424.645    23912435.7234
  24547466.064    -2501182.635 7  -1925733.04645  24547467.783    24547477.4834
  23850980.631    -3089468.671 8  -2396261.28345  23850979.465    23850991.2764
 00  7 30  0 45 30.0000000  0  7 20 25 22 29 06 01 30
  22151530.560   -14339063.029 8 -11150032.97547  22151530.662    22151540.3384
  20711173.302   -23059817.641 9 -17945192.79348  20711175.809    20711183.5914
  21134094.311   -18807032.330 9 -14633168.34047  21134098.577    21134106.8094
  22728686.911   -10975737.430 8  -8529488.44746  22728690.383    22728700.2454
  23907797.141    -7211705.646 8  -5606997.89945  23907804.979    23907816.1714
  24529386.434    -2596221.893 8  -1999789.53645  24529382.834    24529393.1254
  23870107.264    -2988978.978 8  -2317957.68745  23870102.542    23870113.0634
 00  7 30  0 46  0.0000000  0  7 20 25 22 29 06 01 30
  22145352.377   -14371514.783 8 -11175320.09147  22145355.079    22145364.7604
  20714235.093   -23043718.036 9 -17932647.64248  20714239.445    20714247.4904
  21118158.015   -18890784.499 9 -14698429.70547  21118160.708    21118169.3334
  22744224.313   -10894087.727 8  -8465865.40846  22744227.209    22744237.1094
  23903271.352    -7235524.538 8  -5625557.98345  23903272.743    23903282.6404
  24511287.521    -2691269.063 7  -2073852.20545  24511295.625    24511306.5714
  23889269.035    -2888287.314 8  -2239496.70345  23889263.998    23889274.4124
 00  7 30  0 46 30.0000000  0  7 20 25 22 29 06 01 30
  22139287.900   -14403385.936 8 -11200154.78147  22139290.981    22139299.1934
  20717342.242   -23027397.304 9 -17919930.18848  20717345.075    20717353.0464
  21102305.490   -18974102.639 9 -14763352.85647  21102306.176    21102314.8974
  22759809.035   -10812178.068 8  -8402039.80446  22759814.947    22759824.2644
  23898819.882    -7258888.382 8  -5643763.54145  23898826.545    23898836.7924
  24493200.601    -2786323.040 7  -2147920.16345  24493208.748    24493217.1594
  23908464.679    -2787396.215 8  -2160880.33145  23908463.071    23908473.8384
 00  7 30  0 47  0.0000000  0  7 20 25 22 29 06 01 30
  22133335.098   -14434675.697 8 -11224536.44247  22133336.639    22133344.4284
  20720489.532   -23010855.690 9 -17907040.62048  20720493.041    20720500.7134
  21086533.026   -19056984.763 9 -14827936.26247  21086533.854    21086542.6274
  22775446.474   -10730009.195 8  -8338012.20246  22775450.990    22775461.3044
  23894464.073    -7281795.483 8  -5661613.15545  23894467.290    23894477.2854
  24475117.883    -2881382.382 7  -2221992.30645  24475117.377    24475127.8544
  23927692.504    -2686308.307 8  -2082110.60745  23927699.358    23927709.2514
 00  7 30  0 47 30.0000000  0  7 20 25 22 29 06 01 30
  22127489.415   -14465382.680 8 -11248463.98447  22127493.039    22127500.8764
  20723678.872   -22994093.954 9 -17893979.53548  20723682.745    20723690.5514
  21070841.950   -19139429.033 9 -14892178.49047  21070845.154    21070853.8014
  22791134.035   -10647581.897 8  -8273783.23646  22791136.620    22791147.4694
  23890197.382    -7304244.395 8  -5679105.79645  23890195.229    23890205.0994
  24457016.381    -2976445.831 7  -2296067.66145  24457027.593    24457038.8284
  23946970.207    -2585026.009 8  -2003189.40745  23946972.764    23946983.4584
 00  7 30  0 48  0.0000000  0  7 20 25 22 29 06 01 30
  22121759.388   -14495506.086 8 -11271936.80347  22121761.242    22121768.9784
  20726912.571   -22977111.778 9 -17880746.67348  20726914.636    20726922.1484
  21055239.434   -19221433.736 9 -14956078.19547  21055240.240    21055248.8794
  22806867.751   -10564896.991 8  -8209353.52746  22806871.073    22806881.2064
  23886005.702    -7326233.645 8  -5696240.22345  23886010.180    23886020.0774
  24438933.685    -3071511.993 7  -2370145.12345  24438937.379    24438948.3324
  23966288.540    -2483552.222 8  -1924118.97245  23966281.839    23966293.3264
 00  7 30  0 48 30.0000000  0  7 20 25 22 29 06 01 30
  22116140.574   -14525045.025 8 -11294954.17547  22116140.340    22116147.8554
  20730185.143   -22959910.367 9 -17867342.96848  20730188.086    20730195.4954
  21039717.815   -19302996.510 9 -15019633.54247  21039719.326    21039727.8574
  22822653.338   -10481955.319 8  -8144723.74246  22822654.620    22822664.6274
  23881913.422    -7347761.554 8  -5713015.21345  23881914.230    23881923.6684
  24420851.658    -3166579.561 7  -2444223.67245  24420844.540    24420856.9824
  23985628.925    -2381889.161 8  -1844901.05645  23985628.644    23985639.1494
 00  7 30  0 49  0.0000000  0  7 20 25 22 29 06 01 30
  22110627.568   -14553998.486 8 -11317515.31647  22110630.619    22110639.2904
  20733499.422   -22942489.836 9 -17853768.53448  20733503.513    20733510.5214
  21024282.401   -19384115.220 9 -15082842.86547  21024282.779    21024291.6394
  22838482.642   -10398757.761 8  -8079894.55946  22838486.788    22838497.1054
  23877903.107    -7368826.798 8  -5729429.61945  23877906.157    23877914.5324
  24402751.287    -3261647.129 7  -2518302.24045  24402755.368    24402767.9894
  24005011.897    -2280039.658 8  -1765537.88345  24005008.833    24005020.6304
 00  7 30  0 49 30.0000000  0  7 20 25 22 29 06 01 30
  22105228.400   -14582365.283 8 -11339619.32147  22105231.704    22105240.3394
  20736857.608   -22924850.545 9 -17840023.63348  20736860.063    20736867.3454
  21008929.313   -19464787.615 9 -15145704.40647  21008931.136    21008940.0614
  22854363.051   -10315305.245 8  -8014866.71846  22854367.446    22854377.0144
  23873978.942    -7389427.759 8  -5745482.28845  23873985.257    23873994.4064
  24384662.508    -3356713.453 8  -2592379.85645  24384665.390    24384675.9834
  24024426.807    -2178006.016 8  -1686031.22545  24024425.759    24024437.3434
 00  7 30  0 50  0.0000000  0  7 20 25 22 29 06 01 30
  22099939.012   -14610144.832 8 -11361265.72347  22099944.668    22099954.5944
  20740254.742   -22906993.025 9 -17826108.68548  20740258.263    20740265.6214
  20993660.661   -19545012.206 9 -15208217.01947  20993664.477    20993673.5164
  22870291.140   -10231598.648 8  -7949640.92946  22870296.008    22870305.7674
  23870154.585    -7409563.138 8  -5761172.18845  23870153.136    23870162.9454
  24366565.672    -3451777.141 7  -2666455.42945  24366575.246    24366585.4334
  24043884.130    -2075790.880 8  -1606383.11745  24043877.450    24043888.0324
 00  7 30  0 50 30.0000000  0  7 20 25 22 29 06 01 30
  22094768.299   -14637335.825 8 -11382453.51147  22094770.698    22094780.2504
  20743695.270   -22888917.924 9 -17812024.18848  20743698.129    20743704.8424
  20978484.839   -19624787.192 9 -15270379.27747  20978483.964    20978493.1904
  22886271.921   -10147638.727 8  -7884217.67946  22886272.994    22886283.4074
  23866406.220    -7429231.428 8  -5776498.11645  23866411.108    23866420.5454
  24348480.810    -3546836.827 7  -2740527.87945  24348486.744    24348497.2654
  24063363.454    -1973396.999 8  -1526595.73545  24063362.031    24063372.7954
 00  7 30  0 51  0.0000000  0  7 20 25 22 29 06 01 30
  22089706.934   -14663937.704 8 -11403182.23447  22089708.806    22089717.7444
  20747176.531   -22870625.552 9 -17797770.39048  20747178.842    20747185.7674
  20963386.408   -19704110.234 9 -15332189.37347  20963389.461    20963398.6544
  22902287.969   -10063426.414 8  -7818597.80546  22902298.320    22902308.9034
  23862754.242    -7448431.220 8  -5791458.97445  23862757.072    23862768.3674
  24330399.030    -3641891.112 8  -2814596.11245  24330398.420    24330408.7564
  24082873.162    -1870826.797 8  -1446670.96445  24082880.260    24082892.4334
 00  7 30  0 51 30.0000000  0  7 20 25 22 29 06 01 30
  22084757.559   -14689949.352 8 -11423451.04247  22084759.778    22084768.2074
  20750698.152   -22852116.139 9 -17783347.47448  20750700.979    20750707.9154
  20948376.724   -19782979.223 9 -15393645.67047  20948381.382    20948390.3394
  22918370.063    -9978962.708 8  -7752781.98646  22918371.385    22918380.9394
  23859189.550    -7467161.219 8  -5806053.74945  23859192.391    23859204.5324
  24312308.189    -3736938.604 7  -2888659.12645  24312310.133    24312321.4254
  24102431.166    -1768082.688 8  -1366610.69245  24102432.021    24102443.0034
 00  7 30  0 52  0.0000000  0  7 20 25 22 29 06 01 30
  22079919.794   -14715370.196 8 -11443259.46947  22079921.586    22079930.5734
  20754261.213   -22833390.522 9 -17768756.09848  20754263.912    20754271.5494
  20933456.263   -19861392.226 9 -15454746.65947  20933459.477    20933468.4174
  22934485.995    -9894248.264 8  -7686770.81646  22934492.014    22934501.6934
  23855714.402    -7485420.238 8  -5820281.47945  23855717.841    23855729.4574
  24294223.190    -3831977.946 7  -2962715.70645  24294224.327    24294235.7644
  24122011.166    -1665167.120 7  -1286416.79045  24122015.594    24122026.7514
 00  7 30  0 52 30.0000000  0  7 20 25 22 29 06 01 30
  22075194.880   -14740199.368 8 -11462606.86647  22075197.144    22075205.0394
  20757865.786   -22814449.132 9 -17753996.58148  20757868.095    20757875.8904
  20918624.336   -19939347.659 9 -15515491.09147  20918625.091    20918633.8424
  22950653.672    -9809284.340 8  -7620565.25546  22950659.776    22950670.8614
  23852333.602    -7503206.845 8  -5834141.14545  23852334.000    23852344.8794
  24276134.253    -3927007.666 7  -3036764.77745  24276142.471    24276152.2234
  24141624.724    -1562082.691 8  -1206091.31045  24141632.944    24141643.7204
 00  7 30  0 53  0.0000000  0  7 20 25 22 29 06 01 30
  22070580.400   -14764435.993 8 -11481492.53747  22070585.314    22070593.4944
  20761509.558   -22795291.937 9 -17739068.90048  20761513.671    20761521.2324
  20903876.335   -20016843.880 9 -15575877.70247  20903878.136    20903887.0824
  22966869.868    -9724071.643 8  -7554165.85346  22966875.121    22966885.9654
  23849034.405    -7520519.453 8  -5847631.48845  23849039.091    23849049.6014
  24258049.739    -4022026.499 7  -3110805.39545  24258059.109    24258070.7854
  24161274.603    -1458832.046 8  -1125636.30745  24161281.478    24161290.1904
 00  7 30  0 53 30.0000000  0  7 20 25 22 29 06 01 30
  22066078.276   -14788079.439 8 -11499915.97947  22066085.288    22066094.2814
  20765195.009   -22775919.267 9 -17723973.33048  20765200.031    20765207.8834
  20889216.712   -20093878.514 9 -15635904.62947  20889218.743    20889227.5934
  22983138.668    -9638611.169 8  -7487573.36346  22983138.619    22983149.1234
  23845837.620    -7537356.829 8  -5860751.49745  23845835.082    23845846.3594
  24239980.320    -4117032.904 8  -3184836.28845  24239981.428    24239991.6384
  24180957.358    -1355417.860 8  -1045053.87245  24180959.830    24180970.3054
 00  7 30  0 54  0.0000000  0  7 20 25 22 29 06 01 30
  22061696.029   -14811128.884 8 -11517876.57747  22061699.033    22061707.6944
  20768925.102   -22756331.593 9 -17708710.21848  20768927.298    20768935.2354
  20874645.106   -20170449.532 9 -15695570.30847  20874647.550    20874655.9464
  22999444.794    -9552903.806 8  -7420788.48146  22999447.489    22999457.7204
  23842715.127    -7553717.669 8  -5873500.14545  23842721.574    23842732.8974
  24221901.515    -4212025.429 7  -3258856.36745  24221904.680    24221914.9594
  24200660.186    -1251842.336 7   -964345.73545  24200669.264    24200680.5704
 00  7 30  0 54 30.0000000  0  7 20 25 22 29 06 01 30
  22057422.548   -14833583.759 8 -11535373.85947  22057426.142    22057434.7424
  20772689.872   -22736530.100 9 -17693280.49248  20772695.709    20772703.3114
  20860161.846   -20246555.039 9 -15754873.25147  20860165.497    20860174.2354
  23015802.744    -9466950.667 8  -7353812.09746  23015804.525    23015814.5304
  23839695.924    -7569600.684 8  -5885876.44245  23839699.304    23839710.7134
  24203827.692    -4307002.561 8  -3332864.50445  24203831.529    24203842.1704
  24220410.829    -1148107.839 8   -883513.72445  24220409.632    24220420.1134
 00  7 30  0 55  0.0000000  0  7 20 25 22 29 06 01 30
  22053267.499   -14855443.230 8 -11552407.17647  22053266.918    22053275.3614
  20776502.176   -22716514.922 9 -17677684.25248  20776504.537    20776512.0034
  20845769.343   -20322193.806 9 -15813812.50447  20845771.679    20845780.3584
  23032204.596    -9380752.518 8  -7286644.79846  23032207.162    23032217.4014
  23836765.375    -7585004.715 8  -5897879.50245  23836767.491    23836778.9084
  24185757.581    -4401963.009 8  -3406859.59745  24185761.356    24185771.4624
  24240176.454    -1044217.262 7   -802560.05945  24240179.145    24240190.0384
 00  7 30  0 55 30.0000000  0  7 20 25 22 29 06 01 30
  22049219.275   -14876706.595 8 -11568976.01147  22049220.616    22049228.8654
  20780350.458   -22696286.076 9 -17661921.53348  20780353.892    20780361.5084
  20831465.001   -20397364.023 9 -15872386.64747  20831467.281    20831475.9384
  23048657.005    -9294310.428 8  -7219287.42946  23048656.492    23048666.7764
  23833928.975    -7599928.628 8  -5909508.42645  23833927.444    23833939.0894
  24167688.042    -4496905.208 7  -3480840.42545  24167693.959    24167704.1774
  24259977.640     -940172.900 8   -721486.57145  24259978.107    24259989.4424
 00  7 30  0 56  0.0000000  0  7 20 25 22 29 06 01 30
  22045284.541   -14897373.466 8 -11585080.05747  22045287.450    22045296.6984
  20784241.103   -22675844.441 9 -17645992.99248  20784244.051    20784251.3534
  20817246.825   -20472063.350 9 -15930593.86647  20817252.198    20817261.1874
  23065151.532    -9207625.280 8  -7151740.64546  23065152.034    23065163.4464
  23831173.502    -7614370.999 8  -5920762.18445  23831179.729    23831190.5264
  24149626.948    -4591827.827 8  -3554806.03345  24149630.608    24149642.8014
  24279805.190     -835977.137 8   -640295.11345  24279806.125    24279816.9074
 00  7 30  0 56 30.0000000  0  7 20 25 22 29 06 01 30
  22041465.120   -14917443.262 8 -11600718.85547  22041469.005    22041477.7244
  20788171.194   -22655190.337 9 -17629898.89148  20788174.277    20788181.5894
  20803126.033   -20546289.992 9 -15988432.76147  20803127.825    20803136.1844
  23081687.519    -9120698.050 8  -7084005.24945  23081692.854    23081705.0924
  23828519.495    -7628330.876 8  -5931640.02045  23828523.237    23828534.1264
  24131571.081    -4686729.328 8  -3628755.18445  24131572.940    24131582.9074
  24299661.733     -731632.686 8   -558987.81145  24299662.700    24299673.4184
 00  7 30  0 57  0.0000000  0  7 20 25 22 29 06 01 30
  22037760.479   -14936915.271 8 -11615891.83847  22037763.726    22037771.7024
  20792141.362   -22634323.885 9 -17613639.32948  20792144.941    20792152.3514
  20789091.444   -20620042.263 9 -16045902.01147  20789093.048    20789101.8164
  23098279.134    -9033529.822 8  -7016082.05145  23098281.071    23098291.5224
  23825955.124    -7641807.107 8  -5942140.96845  23825958.396    23825969.3664
  24113521.546    -4781608.168 8  -3702686.70745  24113516.887    24113526.5014
  24319545.561     -627141.735 7   -477566.32345  24319546.017    24319557.8974
 00  7 30  0 57 30.0000000  0  7 20 25 22 29 06 01 30
  22034169.323   -14955789.035 8 -11630598.65347  22034171.769    22034179.9474
  20796152.254   -22613245.541 9 -17597214.64548  20796156.278    20796163.1924
  20775148.316   -20693318.801 9 -16103000.56247  20775148.851    20775157.7114
  23114917.216    -8946121.625 8  -6947971.83846  23114915.017    23114926.2974
  23823485.851    -7654798.495 8  -5952264.08245  23823485.489    23823497.1604
  24095459.467    -4876462.832 8  -3776599.32945  24095466.100    24095475.4804
  24339450.157     -522506.840 7   -396032.69245  24339457.707    24339468.8164
 00  7 30  0 58  0.0000000  0  7 20 25 22 29 06 01 30
  22030694.812   -14974063.864 8 -11644838.77047  22030694.273    22030702.1274
  20800204.338   -22591955.646 9 -17580625.11548  20800207.558    20800214.7164
  20761293.874   -20766117.767 9 -16159726.98247  20761295.510    20761303.8884
  23131590.062    -8858474.304 8  -6879675.34746  23131593.732    23131605.1714
  23821101.655    -7667303.923 8  -5962008.47445  23821106.715    23821116.7704
  24077421.426    -4971291.888 8  -3850492.07645  24077422.097    24077430.0204
  24359396.170     -417730.773 7   -314389.03645  24359396.702    24359406.2514
 00  7 30  0 58 30.0000000  0  7 20 25 22 29 06 01 30
  22027329.279   -14991739.358 8 -11658611.87547  22027330.514    22027338.3264
  20804296.397   -22570454.770 9 -17563871.17748  20804299.041    20804306.3444
  20747532.065   -20838436.957 9 -16216079.56447  20747534.064    20747541.8114
  23148316.884    -8770589.085 8  -6811193.43545  23148317.870    23148327.5804
  23818810.793    -7679322.363 8  -5971373.43345  23818818.829    23818830.5304
  24059375.983    -5066093.726 7  -3924363.58745  24059380.594    24059389.9724
  24379356.682     -312815.503 7   -232636.93545  24379361.245    24379371.8404
 00  7 30  0 59  0.0000000  0  7 20 25 22 29 06 01 30
  22024080.968   -15008815.054 8 -11671917.60347  22024081.256    22024089.1964
  20808426.658   -22548743.512 9 -17546953.32548  20808430.816    20808437.6514
  20733861.294   -20910274.716 9 -16272057.00047  20733863.411    20733871.6654
  23165078.378    -8682466.933 8  -6742526.89145  23165086.354    23165098.4554
  23816624.059    -7690852.772 8  -5980358.14945  23816625.737    23816636.3514
  24041340.767    -5160867.016 8  -3998212.80445  24041344.959    24041354.4074
  24399333.852     -207763.616 7   -150778.35745  24399352.241    24399361.8074
 00  7 30  0 59 30.0000000  0  7 20 25 22 29 06 01 30
  22020944.005   -15025290.479 8 -11684755.59547  22020946.178    22020954.3114
  20812599.480   -22526821.821 9 -17529871.48048  20812602.136    20812609.2754
  20720282.811   -20981629.597 9 -16327658.16147  20720284.922    20720293.8874
  23181895.350    -8594108.843 8  -6673676.54745  23181900.722    23181912.5164
  23814523.122    -7701893.834 8  -5988961.57746  23814524.610    23814536.2984
  24023313.862    -5255610.207 8  -4072038.62445  24023316.967    24023326.4484
  24419351.946     -102577.659 7    -68815.27345  24419367.385    24419377.7794
 00  7 30  1  0  0.0000000  0  7 20 25 22 29 06 01 30
  22017921.949   -15041165.351 8 -11697125.60447  22017924.993    22017933.2704
  20816810.563   -22504689.966 9 -17512625.87348  20816813.399    20816821.1834
  20706793.836   -21052500.249 9 -16382881.99547  20706798.443    20706807.1344
  23198756.209    -8505515.779 8  -6604643.10645  23198761.084    23198770.7124
  23812514.538    -7712444.634 8  -5997182.95646  23812516.866    23812528.3404
  24005295.170    -5350321.746 8  -4145839.76345  24005292.747    24005303.2044
  24439407.303        2740.001 7     13250.40645  24439408.934    24439419.0914
 00  7 30  1  0 30.0000000  0  7 20 25 22 29 06 01 30
  22015015.301   -15056439.091 8 -11709027.21347  22015018.976    22015027.2674
  20821060.917   -22482348.644 9 -17495217.04148  20821064.729    20821072.5814
  20693401.678   -21122884.729 9 -16437727.00447  20693405.018    20693413.3464
  23215654.022    -8416688.822 8  -6535427.40745  23215662.429    23215674.0634
  23810600.454    -7722504.104 8  -6005021.42645  23810602.733    23810612.5514
  23987276.397    -5445000.110 8  -4219615.03645  23987276.424    23987285.7634
  24459471.400      108186.907 7     95416.79345  24459475.282    24459485.0114
 00  7 30  1  1  0.0000000  0  7 20 25 22 29 06 01 30
  22012224.336   -15071111.434 8 -11720460.19047  22012227.075    22012235.0544
  20825353.489   -22459798.135 9 -17477645.21948  20825356.275    20825363.7264
  20680102.431   -21192781.001 9 -16492191.59147  20680104.141    20680112.4334
  23232604.825    -8327629.139 8  -6466030.36945  23232609.937    23232621.6884
  23808780.042    -7732071.272 8  -6012476.33445  23808782.452    23808792.5294
  23969264.178    -5539643.605 8  -4293363.20345  23969266.792    23969276.4034
  24479560.258      213760.722 7    177682.07145  24479565.520    24479575.3084
 00  7 30  1  1 30.0000000  0  7 20 25 22 29 06 01 30
  22009547.563   -15085182.086 8 -11731424.31847  22009548.905    22009557.3214
  20829684.415   -22437038.744 9 -17459910.61848  20829686.983    20829694.7374
  20666894.128   -21262187.560 9 -16546274.58047  20666896.654    20666904.7124
  23249601.837    -8238337.781 8  -6396452.81245  23249601.436    23249612.2244
  23807052.783    -7741145.071 8  -6019546.81245  23807055.070    23807065.0834
  23951249.603    -5634250.643 8  -4367082.90845  23951263.367    23951273.9014
  24499679.263      319458.931 7    260044.29045  24499679.651    24499689.6374
 00  7 30  1  2  0.0000000  0  7 20 25 22 29 06 01 30
  22006981.673   -15098650.586 8 -11741919.23747  22006985.954    22006994.6764
  20834055.014   -22414070.909 9 -17442013.59548  20834057.605    20834065.0764
  20653780.293   -21331102.929 9 -16599974.82547  20653782.082    20653790.6184
  23266638.286    -8148815.747 8  -6326695.50045  23266638.938    23266648.0074
  23805419.207    -7749724.589 8  -6026232.12045  23805423.207    23805432.7644
  23933269.057    -5728819.770 8  -4440773.04345  23933267.991    23933277.8774
  24519812.876      425279.205 7    342501.60245  24519815.093    24519825.7574
 00  7 30  1  2 30.0000000  0  7 20 25 22 29 06 01 30
  22004534.438   -15111516.727 8 -11751944.78847  22004537.721    22004545.8724
  20838464.490   -22390895.104 9 -17423954.51948  20838467.928    20838475.2954
  20640759.354   -21399525.970 9 -16653291.43047  20640761.819    20640770.3544
  23283703.928    -8059064.093 8  -6256759.23945  23283716.550    23283727.7334
  23803878.686    -7757808.987 8  -6032531.66645  23803884.393    23803895.1084
  23915277.619    -5823349.394 8  -4514432.46945  23915280.112    23915288.6434
  24539977.478      531219.218 7    425052.23545  24539975.029    24539985.1714
 00  7 30  1  3  0.0000000  0  7 20 25 22 29 06 01 30
  22002202.101   -15123779.940 8 -11761500.51447  22002203.974    22002212.9854
  20842913.509   -22367511.667 9 -17405733.64848  20842917.514    20842925.2284
  20627833.598   -21467454.689 9 -16706222.84447  20627835.135    20627843.7404
  23300843.146    -7969083.905 8  -6186644.93345  23300839.293    23300850.9304
  23802436.037    -7765397.287 8  -6038444.62245  23802440.546    23802450.4184
  23897297.556    -5917837.896 8  -4588059.89145  23897299.250    23897308.7694
  24560165.694      637276.527 7    507694.25045  24560158.580    24560167.2964
 00  7 30  1  3 30.0000000  0  6 20 25 22 29 06 01
  21999981.709   -15135440.245 8 -11770586.46047  21999984.159    21999993.7474
  20847403.115   -22343920.992 9 -17387351.28448  20847406.736    20847414.1944
  20615001.157   -21534887.260 9 -16758767.64247  20615002.824    20615011.6034
  23317996.323    -7878876.297 7  -6116353.40745  23318005.370    23318016.5114
  23801087.419    -7772488.512 8  -6043970.21745  23801090.638    23801101.9394
  23879327.350    -6012283.624 8  -4661653.88245  23879327.186    23879336.9584
 00  7 30  1  4  0.0000000  0  6 20 25 22 29 06 01
  21997877.185   -15146497.709 8 -11779202.66047  21997881.015    21997889.6434
  20851932.981   -22320123.172 9 -17368807.51248  20851935.585    20851942.7014
  20602263.461   -21601822.120 9 -16810924.61247  20602265.875    20602274.2584
  23335209.597    -7788442.442 8  -6045885.61145  23335214.560    23335227.0204
  23799833.414    -7779081.931 8  -6049107.90045  23799836.273    23799846.1034
  23861359.855    -6106685.067 8  -4735213.41945  23861362.650    23861371.7584
 00  7 30  1  4 30.0000000  0  6 20 25 22 29 06 01
  21995886.051   -15156951.714 8 -11787348.62847  21995891.641    21995900.3374
  20856499.561   -22296118.857 9 -17350102.84548  20856503.582    20856510.5134
  20589622.847   -21668258.221 9 -16862692.94048  20589623.917    20589632.2354
  23352463.340    -7697783.344 8  -5975242.25745  23352467.470    23352478.6654
  23798667.856    -7785176.631 8  -6053856.97145  23798675.733    23798685.9894
  23843405.138    -6201040.571 8  -4808737.17545  23843407.695    23843416.7184
 00  7 30  1  5  0.0000000  0  6 20 25 22 29 06 01
  21994012.972   -15166802.359 8 -11795024.45547  21994017.125    21994025.1054
  20861108.998   -22271908.183 9 -17331237.38348  20861110.628    20861117.7044
  20577075.811   -21734194.095 9 -16914071.48848  20577076.586    20577084.7094
  23369757.106    -7606900.154 8  -5904424.28245  23369761.332    23369771.4714
  23797607.246    -7790771.611 8  -6058216.65545  23797610.620    23797620.9824
  23825458.035    -6295348.482 8  -4882223.83645  23825461.403    23825471.0684
 00  7 30  1  5 30.0000000  0  6 20 25 22 29 06 01
  21992256.915   -15176049.529 8 -11802230.03247  21992257.863    21992264.9874
  20865753.079   -22247491.727 9 -17312211.56448  20865757.058    20865764.2984
  20564622.801   -21799628.007 9 -16965058.89848  20564624.922    20564632.8774
  23387094.447    -7515794.156 8  -5833432.69645  23387098.562    23387109.1304
  23796636.968    -7795866.160 8  -6062186.35945  23796640.620    23796650.4014
  23807519.134    -6389607.076 8  -4955672.06545  23807523.682    23807534.6814
 00  7 30  1  6  0.0000000  0  6 20 25 22 29 06 01
  21990612.275   -15184693.078 8 -11808965.25547  21990613.025    21990620.5544
  20870439.609   -22222869.619 9 -17293025.49248  20870442.288    20870449.3814
  20552266.902   -21864558.131 9 -17015653.74648  20552268.795    20552276.9544
  23404468.404    -7424466.351 8  -5762268.28245  23404477.489    23404489.6424
  23795764.748    -7800459.430 8  -6065765.47745  23795768.003    23795776.6894
  23789598.290    -6483814.897 8  -5029080.70045  23789595.122    23789606.3214
 00  7 30  1  6 30.0000000  0  6 20 25 22 29 06 01
  21989080.218   -15192732.879 8 -11815230.02247  21989082.870    21989091.2134
  20875162.776   -22198042.291 9 -17273679.51648  20875166.644    20875173.7804
  20540003.903   -21928983.188 9 -17065855.02848  20540008.687    20540016.9924
  23421888.175    -7332917.814 8  -5690931.88845  23421898.537    23421908.0764
  23794984.954    -7804550.783 8  -6068953.48445  23794989.653    23794999.2794
  23771674.341    -6577970.194 8  -5102448.42345  23771679.192    23771689.4714
 00  7 30  1  7  0.0000000  0  6 20 25 22 29 06 01
  21987665.275   -15200168.805 8 -11821024.25147  21987667.765    21987676.1794
  20879927.359   -22173010.161 9 -17254173.94648  20879929.826    20879937.3644
  20527844.397   -21992902.255 9 -17115662.03648  20527845.648    20527853.9454
  23439359.883    -7241149.815 8  -5619424.41845  23439362.015    23439373.4884
  23794304.570    -7808139.401 8  -6071749.73845  23794306.623    23794316.2864
  23753767.706    -6672071.215 8  -5175773.87545  23753772.151    23753783.3194
 00  7 30  1  7 30.0000000  0  6 20 25 22 29 06 01
  21986364.694   -15207000.816 8 -11826347.90147  21986367.731    21986376.2164
  20884726.040   -22147773.032 9 -17234508.63748  20884732.095    20884739.8654
  20515776.268   -22056313.907 9 -17165073.66348  20515778.851    20515786.9274
  23456861.001    -7149163.570 8  -5547746.94645  23456866.693    23456878.7804
  23793713.279    -7811224.566 8  -6074153.69845  23793719.015    23793729.0554
  23735873.825    -6766116.240 8  -5249055.67345  23735876.375    23735885.7174
 00  7 30  1  8  0.0000000  0  6 20 25 22 29 06 01
  21985179.427   -15213229.058 8 -11831201.07947  21985182.811    21985191.0554
  20889570.537   -22122331.128 9 -17214683.78548  20889573.594    20889581.5104
  20503807.464   -22119216.299 9 -17214088.47548  20503808.776    20503816.9494
  23474404.428    -7056960.253 8  -5475900.33245  23474411.903    23474424.0124
  23793221.669    -7813805.472 8  -6076164.68845  23793228.111    23793236.6914
  23717988.367    -6860103.623 8  -5322292.57245  23717990.606    23718000.3504
 00  7 30  1  8 30.0000000  0  6 20 25 22 29 06 01
  21984112.076   -15218853.458 8 -11835583.72147  21984112.445    21984120.9984
  20894448.027   -22096685.688 9 -17194700.33948  20894453.760    20894461.8474
  20491932.000   -22181607.837 9 -17262705.22348  20491936.211    20491944.4554
  23492001.665    -6964540.853 8  -5403885.33045  23491998.883    23492011.3434
  23792830.219    -7815881.531 8  -6077782.33245  23792832.275    23792841.6084
  23700112.306    -6954031.954 8  -5395483.46246  23700117.643    23700127.4694
 00  7 30  1  9  0.0000000  0  6 20 25 22 29 06 01
  21983156.265   -15223874.284 8 -11839496.05047  21983157.171    21983164.6424
  20899372.767   -22070836.341 9 -17174558.00148  20899373.188    20899380.8894
  20480158.964   -22243487.310 9 -17310922.96448  20480161.207    20480168.7574
  23509618.976    -6871906.688 8  -5331702.95745  23509626.572    23509638.2604
  23792529.976    -7817452.245 8  -6079006.21145  23792534.055    23792544.3414
  23682244.007    -7047899.251 8  -5468626.71746  23682253.905    23682265.8564
 00  7 30  1  9 30.0000000  0  6 20 25 22 29 06 01
  21982313.466   -15228291.480 8 -11842938.01547  21982316.344    21982324.5954
  20904327.432   -22044783.761 9 -17154257.29648  20904331.061    20904338.4074
  20468478.795   -22304853.981 9 -17358741.11348  20468482.531    20468491.1474
  23527287.088    -6779058.861 7  -5259354.15645  23527295.372    23527306.6974
  23792329.933    -7818516.804 8  -6079835.67945  23792330.488    23792339.6194
  23664397.839    -7141703.787 8  -5541721.09345  23664403.094    23664413.7414
 00  7 30  1 10  0.0000000  0  6 20 25 22 29 06 01
  21981588.108   -15232105.004 8 -11845909.59847  21981590.923    21981599.2664
  20909324.409   -22018528.027 9 -17133798.28848  20909327.429    20909334.4244
  20456902.954   -22365706.243 9 -17406158.42248  20456902.852    20456911.3974
  23545002.965    -6685998.637 8  -5186839.82645  23545004.686    23545014.9254
  23792221.354    -7819074.700 8  -6080270.37245  23792224.367    23792234.6204
  23646562.061    -7235443.957 8  -5614765.32145  23646566.499    23646575.5274
 00  7 30  1 10 30.0000000  0  6 20 25 22 29 06 01
  21980977.215   -15235314.936 8 -11848410.83447  21980980.286    21980987.9534
  20914359.923   -21992069.266 9 -17113181.07248  20914362.170    20914369.4804
  20445419.098   -22426042.449 9 -17453173.61548  20445421.604    20445429.8974
  23562744.065    -6592727.256 7  -5114160.94345  23562753.087    23562764.5354
  23792211.654    -7819125.320 8  -6080309.76345  23792214.405    23792223.8504
  23628737.459    -7329118.110 8  -5687758.10046  23628738.971    23628750.8224
 00  7 30  1 11  0.0000000  0  6 20 25 22 29 06 01
  21980480.068   -15237921.855 8 -11850442.20647  21980483.775    21980491.8214
  20919432.169   -21965408.187 9 -17092406.20948  20919435.478    20919442.6654
  20434036.564   -22485861.208 9 -17499785.60448  20434038.250    20434046.5154
  23580529.437    -6499245.953 7  -5041318.50645  23580540.246    23580554.3814
  23792298.018    -7818667.829 8  -6079953.17945  23792303.306    23792310.1384
  23610927.356    -7422724.403 8  -5760697.96746  23610928.736    23610937.4734
 00  7 30  1 11 30.0000000  0  6 20 25 22 29 06 01
  21980101.932   -15239925.682 8 -11852003.63147  21980102.456    21980110.5294
  20924544.111   -21938544.867 9 -17071473.74948  20924547.239    20924554.4704
  20422752.374   -22545161.534 9 -17545993.62648  20422754.162    20422761.6604
  23598366.551    -6405555.919 7  -4968313.44645  23598370.120    23598380.9614
  23792484.561    -7817701.871 8  -6079200.38345  23792485.737    23792493.4234
  23593124.341    -7516261.149 8  -5833583.66846  23593127.638    23593137.6994
 00  7 30  1 12  0.0000000  0  6 20 25 22 29 06 01
  21979833.861   -15241326.724 8 -11853095.35347  21979835.702    21979843.6824
  20929692.714   -21911479.483 9 -17050383.84548  20929697.682    20929704.9304
  20411565.389   -22603942.537 9 -17591796.98148  20411568.183    20411576.2854
  23616240.311    -6311658.220 8  -4895146.55345  23616238.345    23616250.8494
  23792765.295    -7816226.918 8  -6078051.01845  23792765.824    23792775.8314
  23575341.578    -7609726.444 8  -5906413.70746  23575341.896    23575351.9794
 00  7 30  1 12 30.0000000  0  6 20 25 22 29 06 01
  21979681.905   -15242125.108 8 -11853717.47747  21979683.598    21979691.5294
  20934883.910   -21884212.273 9 -17029136.66648  20934886.480    20934893.6034
  20400479.918   -22662202.788 9 -17637194.53548  20400481.482    20400489.7994
  23634138.223    -6217554.350 8  -4821818.98245  23634146.857    23634160.1194
  23793137.166    -7814242.457 8  -6076504.61445  23793144.050    23793154.0204
  23557570.677    -7703118.720 8  -5979186.81746  23557570.714    23557581.0314
 00  7 30  1 13  0.0000000  0  6 20 25 22 29 06 01
  21979644.776   -15242321.291 8 -11853870.34747  21979646.592    21979654.2244
  20940109.277   -21856743.901 9 -17007732.75148  20940113.274    20940120.9014
  20389493.906   -22719940.582 9 -17682184.99448  20389494.534    20389502.6074
  23652090.075    -6123245.340 7  -4748331.59645  23652092.781    23652104.7384
  23793615.439    -7811748.088 8  -6074560.88945  23793617.761    23793629.1934
  23539812.868    -7796436.199 8  -6051901.61446  23539812.672    23539822.2584
 00  7 30  1 13 30.0000000  0  6 20 25 22 29 06 01
  21979721.384   -15241915.445 8 -11853554.10747  21979723.766    21979731.6124
  20945374.441   -21829074.396 9 -16986172.10648  20945378.755    20945386.1804
  20378603.124   -22777154.882 9 -17726767.52548  20378606.745    20378615.1504
  23670076.270    -6028732.507 8  -4674685.37845  23670078.666    23670089.7944
  23794186.090    -7808743.138 8  -6072219.33745  23794190.026    23794200.4864
  23522069.680    -7889677.054 8  -6124556.79746  23522068.943    23522078.5074
 00  7 30  1 14  0.0000000  0  6 20 25 22 29 06 01
  21979913.246   -15240907.846 9 -11852768.97047  21979915.456    21979923.9194
  20950680.050   -21801203.953 9 -16964454.87548  20950682.541    20950689.8194
  20367817.096   -22833844.762 9 -17770941.41648  20367819.218    20367827.3534
  23688095.177    -5934017.281 7  -4600881.45845  23688101.736    23688115.2464
  23794862.520    -7805227.247 8  -6069479.59445  23794859.137    23794868.5704
  23504341.529    -7982839.460 8  -6197150.78546  23504341.150    23504351.3134
 00  7 30  1 14 30.0000000  0  6 20 25 22 29 06 01
  21980219.434   -15239298.910 8 -11851515.25247  21980221.265    21980230.0344
  20956022.813   -21773132.960 9 -16942581.37448  20956024.466    20956031.9684
  20357130.368   -22890009.347 9 -17814705.98848  20357131.451    20357139.4464
  23706153.577    -5839100.665 7  -4526920.67245  23706162.913    23706176.3204
  23795625.252    -7801199.939 8  -6066341.36845  23795627.480    23795634.7764
  23486625.529    -8075921.854 8  -6269682.43846  23486627.890    23486636.5214
 00  7 30  1 15  0.0000000  0  6 20 25 22 29 06 01
  21980639.750   -15237089.065 8 -11849793.30547  21980642.212    21980649.7894
  20961400.310   -21744861.766 9 -16920551.87848  20961404.673    20961411.7344
  20346541.206   -22945647.160 9 -17858060.09248  20346543.569    20346552.1114
  23724259.084    -5743984.122 7  -4452803.97045  23724264.173    23724275.9894
  23796488.921    -7796660.939 8  -6062804.42445  23796489.498    23796498.9524
  23468930.064    -8168922.014 8  -6342150.06046  23468930.735    23468941.1634
 00  7 30  1 15 30.0000000  0  6 20 25 22 29 06 01
  21981176.541   -15234278.595 8 -11847603.34147  21981176.918    21981184.5694
  20966820.657   -21716390.580 9 -16898366.54048  20966822.703    20966829.2514
  20336056.205   -23000756.894 9 -17901002.70648  20336057.115    20336065.0464
  23742402.037    -5648668.604 7  -4378532.30045  23742399.682    23742415.9754
  23797447.327    -7791609.854 8  -6058868.44745  23797451.198    23797459.7064
  23451244.427    -8261838.362 8  -6414552.33646  23451248.385    23451258.0214
 00  7 30  1 16  0.0000000  0  6 20 25 22 29 06 01
  21981823.021   -15230867.906 8 -11844945.67147  21981825.401    21981834.1454
  20972275.533   -21687719.071 9 -16876025.10448  20972278.217    20972285.2564
  20325666.137   -23055337.352 9 -17943532.89148  20325670.285    20325678.7844
  23760570.057    -5553155.660 7  -4304106.84045  23760580.014    23760591.7824
  23798506.832    -7786046.169 8  -6054533.05445  23798509.831    23798519.8804
  23433577.833    -8354669.154 8  -6486887.95146  23433582.954    23433593.6834
 00  7 30  1 16 30.0000000  0  6 20 25 22 29 06 01
  21982588.957   -15226857.513 8 -11841820.70047  21982589.185    21982597.4264
  20977767.806   -21658848.148 9 -16853528.28248  20977771.965    20977779.1944
  20315380.489   -23109387.966 9 -17985650.21248  20315384.818    20315393.2234
  23778772.407    -5457446.526 7  -4229528.37245  23778789.257    23778802.4374
  23799665.120    -7779969.701 8  -6049798.11245  23799666.683    23799675.9734
  23415933.182    -8447412.400 8  -6559155.30646  23415935.699    23415945.8424
 00  7 30  1 17  0.0000000  0  6 20 25 22 29 06 01
  21983462.113   -15222247.900 8 -11838228.80547  21983465.810    21983474.7674
  20983300.622   -21629777.789 9 -16830876.06047  20983303.610    20983311.1774
  20305199.111   -23162907.839 9 -18027353.97348  20305200.355    20305208.4544
  23797040.239    -5361542.755 7  -4154798.33445  23797041.632    23797054.2934
  23800916.585    -7773379.781 8  -6044663.05045  23800919.609    23800929.9954
  23398299.565    -8540066.373 8  -6631353.17546  23398303.790    23398312.8774
 00  7 30  1 17 30.0000000  0  6 20 25 22 29 06 01
  21984454.618   -15217039.692 8 -11834170.47747  21984457.307    21984465.5924
  20988868.927   -21600508.401 9 -16808068.75547  20988873.215    20988881.1164
  20295112.913   -23215895.590 9 -18068643.10248  20295117.032    20295124.9714
  23815337.192    -5265445.472 7  -4079917.50245  23815328.659    23815340.7284
  23802268.937    -7766276.308 8  -6039127.83745  23802271.313    23802281.5294
  23380685.007    -8632629.077 8  -6703479.89246  23380690.477    23380699.2284
 00  7 30  1 18  0.0000000  0  6 20 25 22 29 06 01
  21985561.432   -15211233.217 8 -11829645.95947  21985562.980    21985571.0894
  20994478.625   -21571040.407 9 -16785106.70347  20994480.476    20994488.6224
  20285133.369   -23268349.880 9 -18109516.54548  20285135.240    20285143.4024
  23833645.868    -5169155.877 8  -4004886.79445  23833651.202    23833662.9074
  23803711.090    -7758658.988 8  -6033192.24345  23803720.796    23803731.4444
  23363089.403    -8725098.693 8  -6775534.07546  23363092.768    23363103.6864
 00  7 30  1 18 30.0000000  0  6 20 25 22 29 06 01
  21986778.746   -15204829.445 8 -11824656.00047  21986780.740    21986789.7304
  21000121.747   -21541373.484 9 -16761989.63147  21000125.888    21000134.1734
  20275254.730   -23320269.885 9 -18149973.65248  20275255.236    20275263.8074
  23852005.113    -5072675.406 8  -3929707.33145  23852012.222    23852023.7354
  23805265.479    -7750527.839 8  -6026856.21745  23805268.662    23805279.0624
  23345514.975    -8817473.365 8  -6847514.28546  23345515.105    23345523.3864
 00  7 30  1 19  0.0000000  0  6 20 25 22 29 06 01
  21988111.998   -15197828.529 8 -11819200.74647  21988112.833    21988121.1784
  21005805.290   -21511508.505 9 -16738718.22047  21005809.421    21005817.1374
  20265476.334   -23371654.907 9 -18190013.89848  20265476.985    20265485.0564
  23870408.255    -4976005.376 7  -3854380.24045  23870406.123    23870419.1444
  23806905.805    -7741882.446 8  -6020119.52145  23806913.598    23806923.5694
  23327950.486    -8909751.366 8  -6919419.16446  23327954.340    23327964.7714
 00  7 30  1 19 30.0000000  0  6 20 25 22 29 06 01
  21989556.910   -15190231.135 8 -11813280.69647  21989559.453    21989567.3784
  21011528.147   -21481445.423 9 -16715292.45647  21011530.685    21011537.9684
  20255799.510   -23422504.194 9 -18229636.69748  20255800.884    20255808.6474
  23888839.945    -4879147.122 7  -3778906.38945  23888838.738    23888850.6974
  23808650.390    -7732722.753 8  -6012982.07645  23808656.047    23808667.0074
  23310407.653    -9001930.781 8  -6991247.23946  23310413.291    23310423.4844
 00  7 30  1 20  0.0000000  0  6 20 25 22 29 06 01
  21991115.303   -15182038.091 8 -11806896.50047  21991118.002    21991127.1744
  21017285.020   -21451184.170 9 -16691712.25947  21017289.079    21017296.4484
  20246225.053   -23472816.374 9 -18268840.96148  20246226.689    20246234.7884
  23907303.211    -4782101.857 7  -3703286.88245  23907304.920    23907318.3454
  23810491.990    -7723048.399 8  -6005443.59945  23810496.875    23810507.7384
  23292889.243    -9094009.776 8  -7062997.05946  23292890.951    23292901.6104
 00  7 30  1 20 30.0000000  0  6 20 25 22 29 06 01
  21992788.636   -15173249.941 8 -11800048.59147  21992790.276    21992798.4084
  21023080.575   -21420725.484 9 -16667978.21747  21023085.459    21023092.4824
  20236753.291   -23522590.328 9 -18307625.83048  20236755.248    20236763.2244
  23925804.052    -4684871.124 7  -3627522.79845  23925807.442    23925820.7124
  23812437.711    -7712859.221 8  -5997503.99245  23812436.196    23812447.0334
  23275387.434    -9185986.414 8  -7134667.15446  23275388.660    23275398.3924
 00  7 30  1 21  0.0000000  0  6 20 25 22 29 06 01
  21994574.633   -15163867.568 8 -11792737.65347  21994576.213    21994584.6804
  21028914.308   -21390069.234 9 -16644090.24547  21028919.082    21028926.2664
  20227383.917   -23571825.348 9 -18345990.75548  20227386.115    20227393.8264
  23944342.402    -4587456.204 7  -3551615.25145  23944345.227    23944356.6804
  23814474.149    -7702155.091 8  -5989163.10745  23814472.950    23814483.6724
  23257904.232    -9277858.770 8  -7206255.93946  23257906.777    23257916.4824
 00  7 30  1 21 30.0000000  0  6 20 25 22 29 06 01
  21996472.141   -15153891.541 8 -11784964.13747  21996473.917    21996482.1924
  21034786.395   -21359215.870 9 -16620048.67847  21034789.988    21034797.9224
  20218114.761   -23620521.139 9 -18383935.49648  20218119.101    20218127.5114
  23962915.296    -4489858.321 7  -3475565.10145  23962917.566    23962929.1254
  23816605.201    -7690935.987 8  -5980420.91845  23816607.551    23816617.6544
  23240439.730    -9369625.009 8  -7277762.04346  23240443.307    23240452.7124
 00  7 30  1 22  0.0000000  0  6 20 25 22 29 06 01
  21998483.833   -15143322.750 9 -11776728.72147  21998485.789    21998493.3504
  21040695.940   -21328165.280 9 -16595853.42547  21040698.637    21040706.4304
  20208951.417   -23668676.519 9 -18421459.12648  20208955.318    20208963.8424
  23981522.520    -4392079.029 7  -3399373.61745  23981525.262    23981539.2604
  23818835.955    -7679201.681 8  -5971277.29945  23818841.133    23818850.3714
  23223002.711    -9461283.086 8  -7349183.90646  23223002.232    23223011.0644
 00  7 30  1 22 30.0000000  0  6 20 25 22 29 06 01
  22000608.562   -15132161.607 9 -11768031.72447  22000609.990    22000617.7264
  21046642.361   -21296917.948 9 -16571504.87347  21046644.962    21046652.3174
  20199892.525   -23716290.399 9 -18458560.81048  20199895.048    20199902.8224
  24000166.156    -4294119.671 7  -3323041.84345  24000166.441    24000176.8924
  23821169.176    -7666952.107 8  -5961732.17745  23821172.701    23821181.9704
  23205577.833    -9552831.094 8  -7420519.99846  23205579.904    23205589.6454
 00  7 30  1 23  0.0000000  0  6 20 25 22 29 06 01
  22002842.834   -15120409.275 9 -11758874.06047  22002845.519    22002854.0194
  21052624.994   -21265473.552 9 -16547002.74847  21052628.567    21052635.9754
  20190937.173   -23763361.748 9 -18495239.74948  20190937.751    20190945.3874
  24018833.517    -4195981.549 7  -3246570.68245  24018841.660    24018854.3554
  23823596.039    -7654187.149 8  -5951785.44045  23823601.023    23823610.6974
  23188173.812    -9644267.104 8  -7491768.80746  23188180.924    23188190.7464
 00  7 30  1 23 30.0000000  0  6 20 25 22 29 06 01
  22005190.397   -15108066.334 8 -11749256.19447  22005194.468    22005202.9634
  21058644.936   -21233832.747 9 -16522347.57947  21058649.807    21058657.2344
  20182079.606   -23809890.247 9 -18531495.69348  20182083.573    20182091.5384
  24037546.236    -4097666.104 7  -3169961.43545  24037549.932    24037564.5914
  23826124.359    -7640906.840 8  -5941437.16145  23826128.521    23826137.3344
  23170801.813    -9735589.229 8  -7562928.86546  23170803.501    23170812.0454
 00  7 30  1 24  0.0000000  0  6 20 25 22 29 06 01
  22007652.073   -15095133.692 8 -11739178.81547  22007655.568    22007663.8694
  21064704.705   -21201995.708 9 -16497539.50047  21064708.344    21064715.5424
  20173331.416   -23855875.334 9 -18567328.19848  20173333.083    20173340.7444
  24056288.513    -3999174.763 7  -3093215.06545  24056293.666    24056303.2244
  23828745.235    -7627111.084 8  -5930687.20845  23828753.914    23828762.4374
  23153437.892    -9826795.411 8  -7633998.57546  23153446.332    23153456.4824
 00  7 30  1 24 30.0000000  0  6 20 25 22 29 06 01
  22010226.365   -15081612.419 8 -11728642.76247  22010228.125    22010236.6704
  21070800.406   -21169962.890 9 -16472578.86147  21070804.046    21070811.1124
  20164683.888   -23901316.153 9 -18602736.60248  20164685.891    20164693.5794
  24075067.374    -3900508.868 7  -3016332.66145  24075068.595    24075080.7364
  23831473.933    -7612800.136 8  -5919535.83245  23831477.033    23831486.3314
  23136113.510    -9917883.724 8  -7704976.44746  23136114.228    23136122.7424
 00  7 30  1 25  0.0000000  0  6 20 25 22 29 06 01
  22012912.954   -15067503.313 9 -11717648.64847  22012913.579    22012920.8354
  21076933.432   -21137733.898 9 -16447465.36847  21076937.192    21076944.1464
  20156139.676   -23946211.513 9 -18637719.97048  20156142.347    20156150.1404
  24093872.600    -3801669.952 7  -2939315.53245  24093877.172    24093888.9454
  23834294.286    -7597974.006 8  -5907983.00845  23834297.563    23834306.6274
  23118798.285   -10008852.112 8  -7775860.85846  23118801.804    23118811.9314
 00  7 30  1 25 30.0000000  0  6 20 25 22 29 06 01
  22015708.981   -15052807.242 8 -11706197.17047  22015710.065    22015718.8914
  21083103.411   -21105309.364 9 -16422199.50247  21083107.100    21083114.3644
  20147700.824   -23990560.622 9 -18672277.68448  20147702.893    20147710.7494
  24112718.172    -3702659.308 7  -2862164.49045  24112717.557    24112730.7794
  23837219.355    -7582632.719 8  -5896028.77045  23837217.633    23837225.5674
  23101506.916   -10099698.784 8  -7846650.41446  23101514.758    23101523.7904
 00  7 30  1 26  0.0000000  0  6 20 25 22 29 06 01
  22018614.763   -15037525.113 8 -11694289.03647  22018617.696    22018625.8534
  21089309.564   -21072689.141 9 -16396781.14547  21089314.165    21089321.7604
  20139365.677   -24034363.286 9 -18706409.59648  20139367.456    20139375.5224
  24131583.595    -3603478.266 7  -2784880.74645  24131591.783    24131605.2964
  23840232.379    -7566776.115 8  -5883672.97745  23840233.551    23840243.8864
  23084252.869   -10190421.744 8  -7917343.59446  23084251.375    23084260.1074
 00  7 30  1 26 30.0000000  0  6 20 25 22 29 06 01
  22021634.765   -15021658.215 8 -11681925.22347  22021637.347    22021644.9684
  21095555.511   -21039873.833 9 -16371210.77547  21095558.402    21095566.4074
  20131134.814   -24077619.087 9 -18740115.37548  20131136.029    20131144.2264
  24150497.843    -3504128.447 7  -2707465.49545  24150497.735    24150510.2254
  23843349.208    -7550404.269 8  -5870915.70245  23843350.332    23843359.9834
  23067007.491   -10281018.827 8  -7987938.67346  23067009.315    23067021.6384
 00  7 30  1 27  0.0000000  0  6 20 25 22 29 06 01
  22024769.054   -15005207.390 8 -11669106.39547  22024768.378    22024777.0064
  21101836.876   -21006862.861 9 -16345487.94247  21101840.158    21101847.9424
  20123007.331   -24120326.977 9 -18773394.21648  20123009.291    20123016.9944
  24169437.601    -3404611.354 7  -2629919.87245  24169435.801    24169447.9654
  23846565.533    -7533517.504 8  -5857757.19145  23846564.066    23846573.9734
  23049793.374   -10371488.086 8  -8058434.10346  23049795.547    23049805.0174
 00  7 30  1 27 30.0000000  0  6 20 25 22 29 06 01
  22028005.342   -14988173.648 8 -11655833.37447  22028008.681    22028017.2694
  21108156.197   -20973656.687 9 -16319613.00047  21108159.175    21108166.9514
  20114984.836   -24162486.227 9 -18806245.54648  20114986.538    20114994.2744
  24188400.418    -3304928.253 7  -2552244.89145  24188405.664    24188417.5864
  23849873.610    -7516116.034 8  -5844197.60745  23849875.431    23849885.1944
  23032601.563   -10461827.543 8  -8128828.42346  23032604.070    23032613.5544
 00  7 30  1 28  0.0000000  0  6 20 25 22 29 06 01
  22031359.461   -14970557.920 8 -11642106.84047  22031361.655    22031369.7244
  21114511.560   -20940255.855 9 -16293586.37947  21114515.079    21114523.1004
  20107064.277   -24204096.109 9 -18838668.79848  20107068.238    20107076.1664
  24207406.840    -3205080.587 7  -2474441.72345  24207405.408    24207417.6394
  23853281.084    -7498199.981 8  -5830237.05345  23853285.005    23853294.5814
  23015437.103   -10552035.248 8  -8199120.06546  23015437.948    23015447.1604
 00  7 30  1 28 30.0000000  0  6 20 25 22 29 06 01
  22034822.230   -14952361.349 8 -11627927.69447  22034824.005    22034832.4814
  21120901.759   -20906660.385 9 -16267408.08547  21120908.119    21120916.0994
  20099251.441   -24245156.446 9 -18870663.82648  20099254.785    20099262.6684
  24226421.754    -3105069.786 7  -2396511.35145  24226436.210    24226447.8444
  23856794.886    -7479769.444 8  -5815875.65145  23856792.150    23856802.0304
  22998295.906   -10642109.045 8  -8269307.36346  22998298.629    22998307.6664
 00  7 30  1 29  0.0000000  0  6 20 25 22 29 06 01
  22038395.989   -14933585.027 8 -11613296.79847  22038397.365    22038405.7394
  21127336.685   -20872870.582 9 -16241078.35947  21127338.346    21127345.8894
  20091544.821   -24285666.915 9 -18902230.39148  20091545.905    20091553.6384
  24245497.733    -3004897.299 7  -2318454.99245  24245498.946    24245513.1424
  23860392.623    -7460824.608 8  -5801113.45045  23860396.228    23860406.7584
  22981182.644   -10732046.991 8  -8339388.81846  22981182.931    22981192.0764
 00  7 30  1 29 30.0000000  0  6 20 25 22 29 06 01
  22042078.755   -14914230.125 8 -11598215.05947  22042080.406    22042089.1524
  21133803.870   -20838886.376 9 -16214597.15947  21133805.489    21133812.5474
  20083939.270   -24325626.601 9 -18933367.77248  20083941.740    20083949.6514
  24264594.539    -2904564.783 7  -2240274.08645  24264591.788    24264605.3984
  23864095.445    -7441365.626 8  -5785950.61345  23864099.185    23864109.0334
  22964091.400   -10821847.088 8  -8409362.84946  22964094.499    22964104.0064
 00  7 30  1 30  0.0000000  0  6 20 25 22 29 06 01
  22045872.436   -14894298.056 8 -11582683.59647  22045873.143    22045881.9484
  21140308.539   -20804708.067 9 -16187964.69847  21140309.375    21140316.5494
  20076439.583   -24365034.686 9 -18964075.33248  20076442.485    20076450.2334
  24283709.833    -2804073.451 7  -2161969.22345  24283715.350    24283725.5084
  23867896.522    -7421392.843 8  -5770387.40045  23867899.790    23867910.2624
  22947032.695   -10911507.294 8  -8479227.88446  22947032.424    22947042.3694
 00  7 30  1 30 30.0000000  0  6 20 25 22 29 06 01
  22049773.037   -14873789.850 8 -11566703.18047  22049775.610    22049784.0944
  21146846.405   -20770335.733 9 -16161181.05247  21146849.958    21146857.5984
  20069046.758   -24403890.850 9 -18994352.82148  20069048.388    20069056.1954
  24302866.569    -2703425.135 7  -2083542.09645  24302868.902    24302880.3394
  23871794.779    -7400906.570 8  -5754424.06745  23871798.966    23871808.1704
  22929996.345   -11001025.697 8  -8548982.39846  22929997.122    22930007.8684
 00  7 30  1 31  0.0000000  0  6 20 25 22 29 06 01
  22053784.858   -14852706.447 8 -11550274.56047  22053786.809    22053795.9364
  21153425.514   -20735769.259 9 -16134246.13747  21153427.645    21153435.3434
  20061756.735   -24442195.021 9 -19024200.18848  20061759.341    20061767.2534
  24322048.519    -2602620.941 7  -2004993.57745  24322051.047    24322062.9154
  23875793.026    -7379907.099 8  -5738060.84645  23875795.062    23875804.8064
  22912984.490   -11090399.986 8  -8618624.61446  22912990.208    22912999.4214
 00  7 30  1 31 30.0000000  0  7 20 25 22 29 03 06 01
  22057905.163   -14831049.346 8 -11533398.91147  22057908.450    22057917.1614
  21160037.613   -20701008.854 9 -16107160.10747  21160042.562    21160049.8794
  20054573.225   -24479946.712 9 -19053617.05248  20054575.361    20054583.6044
  24341262.729    -2501662.492 7  -1926324.80545  24341261.980    24341274.2914
  24693817.728    -2080804.47617  -1368738.50455  24693823.245    24693835.1524
  23879886.699    -7358394.760 8  -5721297.95245  23879888.951    23879898.5614
  22896011.319   -11179628.130 8  -8688152.95346  22896011.503    22896020.3214
 00  7 30  1 32  0.0000000  0  7 20 25 22 29 03 06 01
  22062135.530   -14808819.799 8 -11516077.19247  22062139.421    22062147.7554
  21166692.178   -20666055.036 9 -16079923.36647  21166694.206    21166701.6474
  20047494.089   -24517145.255 9 -19082602.88348  20047497.076    20047504.6574
  24360495.598    -2400551.195 7  -1847536.95845  24360501.446    24360515.6984
  24674245.516    -2183634.459 7  -1448865.59145  24674255.898    24674266.2324
  23884076.507    -7336369.826 8  -5704135.66245  23884079.105    23884089.8274
  22879057.015   -11268708.189 8  -8757565.90446  22879059.089    22879068.6054
 00  7 30  1 32 30.0000000  0  6 20 25 22 03 06 01
  22066472.871   -14786018.932 8 -11498310.28447  22066478.335    22066486.6134
  21173378.199   -20630907.685 9 -16052535.83247  21173382.469    21173390.2234
  20040521.036   -24553790.030 9 -19111157.21548  20040523.752    20040531.3144
  24654675.809    -2286531.032 7  -1529044.47945  24654673.434    24654687.6144
  23888369.858    -7313832.785 8  -5686574.33345  23888367.954    23888378.6674
  22862130.438   -11357638.229 8  -8826861.93846  22862136.134    22862145.6494
 00  7 30  1 33  0.0000000  0  6 20 25 22 03 06 01
  22070920.781   -14762648.213 8 -11480099.33747  22070925.334    22070933.6724
  21180105.466   -20595566.940 9 -16024997.60747  21180107.437    21180115.2394
  20033653.459   -24589880.691 9 -19139279.77348  20033656.007    20033663.4654
  24635084.156    -2389491.783 7  -1609273.42445  24635081.143    24635092.6984
  23892749.594    -7290783.863 8  -5668614.11745  23892753.932    23892764.3824
  22845244.925   -11446415.963 8  -8896039.29546  22845243.338    22845252.7174
 00  7 30  1 33 30.0000000  0  6 20 25 22 03 06 01
  22075478.158   -14738709.150 8 -11461445.54347  22075481.520    22075488.7904
  21186865.458   -20560032.929 9 -15997308.78747  21186869.629    21186876.8214
  20026890.361   -24625417.427 9 -19166970.70748  20026893.459    20026900.8904
  24615459.711    -2492514.030 7  -1689550.24245  24615475.973    24615489.6864
  23897237.876    -7267223.609 8  -5650255.45645  23897237.574    23897247.9604
  22828375.071   -11535039.340 8  -8965096.42846  22828378.741    22828387.1994
 00  7 30  1 34  0.0000000  0  6 20 25 22 03 06 01
  22080141.702   -14714202.864 8 -11442349.73147  22080144.623    22080152.1374
  21193666.195   -20524305.446 9 -15969469.19247  21193668.709    21193675.5404
  20020234.400   -24660399.764 9 -19194229.63748  20020236.423    20020243.9624
  24595860.533    -2595594.972 7  -1769872.82145  24595860.567    24595872.9704
  23901816.078    -7243152.166 8  -5631498.46545  23901817.428    23901828.0514
  22811542.869   -11623506.128 8  -9034031.53746  22811543.064    22811552.6924
 00  7 30  1 34 30.0000000  0  6 20 25 22 03 06 01
  22084913.253   -14689130.684 8 -11422812.96947  22084915.376    22084923.3424
  21200501.789   -20488385.148 9 -15941479.35147  21200503.860    21200510.9974
  20013684.549   -24694827.042 9 -19221056.05348  20013685.041    20013692.4524
  24576240.126    -2698732.075 7  -1850239.12345  24576234.730    24576247.2694
  23906487.713    -7218570.098 8  -5612343.61745  23906495.659    23906506.1704
  22794738.227   -11711814.021 8  -9102842.80646  22794739.312    22794747.3944
 00  7 30  1 35  0.0000000  0  6 20 25 22 03 06 01
  22089789.349   -14663494.046 8 -11402836.38347  22089793.403    22089802.3824
  21207373.238   -20452271.911 9 -15913339.17147  21207375.986    21207383.2164
  20007236.738   -24728698.750 9 -19247449.55648  20007239.410    20007247.2284
  24556588.977    -2801922.774 7  -1930647.24445  24556595.879    24556611.3924
  23911268.419    -7193478.020 8  -5592791.34945  23911270.737    23911280.0824
  22777958.607   -11799961.243 8  -9171528.93546  22777964.998    22777973.7964
 00  7 30  1 35 30.0000000  0  6 20 25 22 03 06 01
  22094775.241   -14637294.252 8 -11382420.98047  22094778.883    22094787.6824
  21214280.466   -20415966.077 9 -15885048.92747  21214284.525    21214291.9344
  20000897.444   -24762014.927 9 -19273410.18348  20000899.459    20000907.2374
  24536946.234    -2905164.610 7  -2011095.18044  24536949.908    24536965.7704
  23916137.662    -7167876.281 8  -5572841.96545  23916142.183    23916152.6934
  22761220.615   -11887945.804 8  -9240088.30546  22761221.615    22761231.2494
 00  7 30  1 36  0.0000000  0  6 20 25 22 03 06 01
  22099870.859   -14610533.000 8 -11361568.05647  22099872.410    22099880.3384
  21221226.267   -20379467.411 9 -15856608.42447  21221229.839    21221237.6404
  19994662.959   -24794775.604 9 -19298937.96148  19994665.425    19994673.0094
  24517287.072    -3008454.709 7  -2091580.69444  24517295.976    24517308.5094
  23921109.516    -7141765.201 8  -5552495.66145  23921111.727    23921122.4334
  22744505.593   -11975765.591 8  -9308519.31646  22744510.540    22744519.2054
 00  7 30  1 36 30.0000000  0  6 20 25 22 03 06 01
  22105068.026   -14583211.865 8 -11340278.86747  22105070.833    22105079.9464
  21228209.014   -20342776.262 9 -15828017.93547  21228212.219    21228219.8114
  19988534.427   -24826980.466 9 -19324032.62948  19988536.980    19988544.7434
  24497635.283    -3111790.186 7  -2172101.59445  24497629.660    24497644.5774
  23926174.170    -7115145.506 8  -5531753.06145  23926177.539    23926187.1494
  22727825.550   -12063418.194 8  -9376820.03746  22727830.371    22727839.3814
 00  7 30  1 37  0.0000000  0  6 20 25 22 03 06 01
  22110374.669   -14555332.028 8 -11318554.32647  22110376.124    22110385.3584
  21235227.162   -20305892.885 9 -15799277.65147  21235230.953    21235238.4824
  19982513.083   -24858628.902 9 -19348693.72248  19982514.592    19982522.3114
  24477944.031    -3215168.708 7  -2252656.01945  24477958.429    24477970.8794
  23931336.928    -7088017.685 8  -5510614.52045  23931340.104    23931349.9654
  22711179.217   -12150901.568 8  -9444988.89846  22711183.265    22711192.4214
 00  7 30  1 37 30.0000000  0  6 20 25 22 03 06 01
  22115785.473   -14526895.290 8 -11296395.83947  22115787.424    22115796.1774
  21242283.085   -20268816.848 9 -15770387.25047  21242286.531    21242294.0214
  19976595.004   -24889720.668 9 -19372921.04548  19976597.655    19976605.7634
  24458266.113    -3318587.499 7  -2333241.87145  24458278.411    24458290.6734
  23936597.871    -7060382.302 8  -5489080.44945  23936598.534    23936608.1984
  22694566.647   -12238213.528 8  -9513024.19646  22694569.113    22694576.3904
 00  7 30  1 38  0.0000000  0  6 20 25 22 03 06 01
  22121302.268   -14497903.143 8 -11273804.57047  22121304.029    22121312.9304
  21249376.276   -20231548.242 9 -15741346.80347  21249378.478    21249385.9564
  19970783.916   -24920255.849 9 -19396714.66648  19970786.862    19970794.9514
  24438593.831    -3422043.703 7  -2413856.85645  24438591.203    24438603.1594
  23941946.824    -7032240.161 8  -5467151.50345  23941953.104    23941964.0124
  22677981.613   -12325351.971 8  -9580924.31046  22677986.220    22677995.2144
 00  7 30  1 38 30.0000000  0  6 20 25 22 03 06 01
  22126925.340   -14468356.960 8 -11250781.57847  22126926.909    22126935.4194
  21256502.650   -20194087.560 9 -15712156.67747  21256507.146    21256514.2964
  19965080.922   -24950234.720 9 -19420074.80448  19965082.486    19965090.2924
  24418898.321    -3525534.769 7  -2494498.98745  24418896.369    24418909.4044
  23947397.769    -7003591.694 7  -5444828.02845  23947405.115    23947414.6344
  22661436.472   -12412314.919 8  -9648687.66446  22661437.958    22661446.6474
 00  7 30  1 39  0.0000000  0  6 20 25 22 03 06 01
  22132650.417   -14438258.612 8 -11227328.34247  22132654.031    22132662.8424
  21263670.763   -20156434.852 9 -15682816.92147  21263672.472    21263679.1224
  19959480.683   -24979656.765 9 -19443001.05048  19959483.492    19959491.4444
  24399201.329    -3629057.945 7  -2575166.15545  24399198.470    24399210.2484
  23952952.399    -6974437.560 8  -5422110.52645  23952952.798    23952963.6534
  22644920.969   -12499099.918 8  -9716312.28746  22644922.827    22644931.8644
 00  7 30  1 39 30.0000000  0  6 20 25 22 03 06 01
  22138485.325   -14407609.650 8 -11203446.04447  22138487.199    22138495.3574
  21270871.290   -20118590.264 9 -15653327.64347  21270873.896    21270880.8214
  19953987.929   -25008521.650 9 -19465493.14748  19953990.615    19953998.5324
  24379482.156    -3732610.756 7  -2655856.41345  24379491.613    24379502.7114
  23958595.026    -6944778.397 8  -5398999.47545  23958597.060    23958607.3504
  22628441.567   -12585704.911 8  -9783796.67046  22628442.932    22628451.2974
 00  7 30  1 40  0.0000000  0  6 20 25 22 03 06 01
  22144420.386   -14376411.678 8 -11179135.95147  22144423.489    22144431.8804
  21278109.590   -20080553.736 9 -15623688.81347  21278111.726    21278119.2264
  19948602.085   -25036829.176 9 -19487550.94148  19948603.742    19948611.9254
  24359782.386    -3836190.165 7  -2736567.45845  24359780.880    24359792.3914
  23964339.495    -6914614.845 8  -5375495.41545  23964337.283    23964347.1214
  22611996.550   -12672127.842 8  -9851139.16046  22611997.223    22612006.3614
 00  7 30  1 40 30.0000000  0  6 20 25 22 03 06 01
  22150463.735   -14344666.288 8 -11154399.28647  22150465.055    22150473.4754
  21285383.274   -20042325.099 9 -15593900.27847  21285386.111    21285393.8664
  19943322.234   -25064579.678 9 -19509174.69248  19943323.259    19943330.9394
  24340065.392    -3939793.382 7  -2817297.06045  24340065.864    24340077.7104
  23970169.717    -6883947.429 8  -5351598.70745  23970172.721    23970183.2444
  22595583.461   -12758366.618 8  -9918338.12946  22595586.533    22595595.6054
 00  7 30  1 41  0.0000000  0  6 20 25 22 03 06 01
  22156607.472   -14312375.164 8 -11129237.38447  22156609.712    22156617.9234
  21292696.024   -20003904.940 9 -15563962.50347  21292697.471    21292705.2854
  19938144.713   -25091773.387 9 -19530364.57448  19938148.507    19938155.8484
  24320345.194    -4043417.928 7  -2898043.29245  24320346.954    24320357.5424
  23976098.762    -6852777.110 8  -5327310.15045  23976104.008    23976114.9374
  22579209.205   -12844418.786 8  -9985391.68646  22579211.751    22579220.6944
 00  7 30  1 41 30.0000000  0  6 20 25 22 03 06 01
  22162853.253   -14279540.048 8 -11103651.58247  22162857.479    22162866.3044
  21300040.844   -19965293.249 9 -15533875.48047  21300044.627    21300052.5344
  19933078.023   -25118409.834 9 -19551120.22548  19933079.713    19933087.3104
  24300625.250    -4147060.916 8  -2978803.89945  24300623.837    24300634.5874
  23982128.540    -6821104.592 8  -5302630.24945  23982131.470    23982142.2724
  22562867.377   -12930282.111 8 -10052298.12546  22562871.531    22562880.8104
 00  7 30  1 42  0.0000000  0  6 20 25 22 03 06 01
  22169204.311   -14246162.750 8 -11077643.31447  22169209.077    22169217.9994
  21307424.473   -19926489.587 9 -15503638.86347  21307428.850    21307436.6284
  19928116.090   -25144488.888 9 -19571441.54848  19928116.960    19928124.7574
  24280885.344    -4250719.628 7  -3059576.76345  24280897.568    24280910.3474
  23988251.161    -6788930.605 8  -5277559.61445  23988253.788    23988264.4974
  22546566.614   -13015954.591 8 -10119055.83246  22546569.000    22546577.3884
 00  7 30  1 42 30.0000000  0  6 20 25 22 03 06 01
  22175661.028   -14212244.936 8 -11051213.86447  22175663.723    22175671.7494
  21314846.011   -19887494.534 9 -15473253.10647  21314849.711    21314856.8774
  19923257.889   -25170010.626 9 -19591328.59548  19923260.549    19923268.0144
  24261155.852    -4354391.489 7  -3140359.85045  24261169.005    24261182.2554
  23994467.104    -6756255.918 8  -5252098.79345  23994471.570    23994482.3764
  22530301.835   -13101434.054 8 -10185663.18646  22530303.333    22530311.8254
 00  7 30  1 43  0.0000000  0  6 20 25 22 03 06 01
  22182217.981   -14177788.248 8 -11024364.51147  22182220.631    22182229.0954
  21322303.010   -19848308.036 9 -15442718.17247  21322306.444    21322313.4284
  19918506.209   -25194975.372 9 -19610781.62348  19918509.678    19918517.2874
  24241424.668    -4458073.697 7  -3221151.02245  24241438.760    24241451.2624
  24000781.990    -6723081.287 8  -5226248.42645  24000784.789    24000795.6724
  22514074.702   -13186718.035 8 -10252118.17446  22514074.237    22514081.9774
 00  7 30  1 43 30.0000000  0  6 20 25 22 03 06 01
  22188877.601   -14142794.838 8 -10997096.93847  22188879.617    22188888.3304
  21329796.173   -19808930.069 9 -15412034.03947  21329799.802    21329807.0754
  19913863.501   -25219383.322 9 -19629800.79148  19913864.896    19913872.6154
  24221705.437    -4561763.480 7  -3301948.07245  24221707.103    24221719.1184
  24007183.320    -6689407.482 7  -5200009.07845  24007193.232    24007203.1604
  22497881.755   -13271804.383 8 -10318419.14146  22497882.351    22497891.3974
 00  7 30  1 44  0.0000000  0  6 20 25 22 03 06 01
  22195639.386   -14107266.406 8 -10969412.46947  22195640.659    22195649.2994
  21337327.439   -19769360.685 9 -15381200.74947  21337329.727    21337336.8224
  19909323.929   -25243234.225 9 -19648385.88948  19909326.028    19909333.8544
  24201982.026    -4665457.641 8  -3382748.63145  24201976.266    24201986.1474
  24013687.037    -6655235.429 7  -5173381.51445  24013694.276    24013705.9954
  22481727.297   -13356690.946 8 -10384564.46646  22481729.394    22481736.8774
 00  7 30  1 44 30.0000000  0  6 20 25 22 03 06 01
  22202500.898   -14071204.695 8 -10941312.44346  22202502.717    22202511.0044
  21344892.329   -19729600.159 9 -15350218.51447  21344895.772    21344903.2634
  19904890.538   -25266528.069 9 -19666536.92048  19904893.244    19904901.1294
  24182236.100    -4769153.685 8  -3463550.66345  24182243.422    24182254.1294
  24020292.304    -6620565.809 8  -5146366.22745  24020291.761    24020301.8914
  22465608.852   -13441375.489 8 -10450552.35646  22465613.166    22465622.5014
 00  7 30  1 45  0.0000000  0  6 20 25 22 03 06 01
  22209462.422   -14034611.672 8 -10912798.41347  22209466.157    22209474.5344
  21352494.767   -19689648.166 9 -15319087.08047  21352498.280    21352505.8344
  19900563.882   -25289264.895 9 -19684253.91148  19900566.635    19900574.7794
  24162507.355    -4872849.059 8  -3544352.12145  24162510.048    24162521.8744
  24026977.196    -6585399.429 7  -5118963.85945  24026983.669    24026995.2404
  22449533.303   -13525855.952 8 -10516381.22746  22449538.020    22449547.3324
 00  7 30  1 45 30.0000000  0  6 20 25 22 03 06 01
  22216530.937   -13997489.045 8 -10883871.70446  22216530.973    22216538.5294
  21360134.219   -19649504.968 9 -15287806.66147  21360137.457    21360145.0454
  19896343.117   -25311445.530 9 -19701537.49348  19896345.605    19896353.6054
  24142770.978    -4976540.884 7  -3625150.83945  24142778.896    24142789.4014
  24033764.076    -6549737.395 7  -5091175.20245  24033769.788    24033782.2334
  22433497.734   -13610129.933 8 -10582049.19646  22433500.513    22433510.6124
 00  7 30  1 46  0.0000000  0  6 20 25 22 03 06 01
  22223695.382   -13959838.792 8 -10854533.85247  22223695.480    22223703.7324
  21367808.097   -19609170.839 9 -15256377.46647  21367812.421    21367819.8224
  19892227.767   -25333069.964 9 -19718387.69048  19892230.893    19892238.5274
  24123048.629    -5080226.323 7  -3705944.56145  24123046.495    24123059.2754
  24040649.267    -6513580.520 7  -5063001.01245  24040651.590    24040661.0664
  22417500.521   -13694195.171 8 -10647554.51146  22417503.394    22417512.9224
 00  7 30  1 46 30.0000000  0  6 20 25 22 03 06 01
  22230955.644   -13921662.795 8 -10824786.33847  22230959.335    22230968.2314
  21375521.804   -19568645.411 9 -15224799.20547  21375524.103    21375531.5864
  19888219.228   -25354138.054 9 -19734804.36548  19888222.036    19888229.7174
  24103307.801    -5183902.547 8  -3786731.09545  24103318.292    24103329.8334
  24047625.991    -6476929.825 7  -5034442.00545  24047624.291    24047635.2514
  22401544.277   -13778049.433 8 -10712895.42046  22401546.561    22401556.5364
 00  7 30  1 47  0.0000000  0  6 20 25 22 03 06 01
  22238320.065   -13882963.126 8 -10794630.78147  22238323.314    22238333.0944
  21383267.804   -19527928.920 9 -15193072.07347  21383272.375    21383279.7114
  19884316.152   -25374649.780 9 -19750787.51448  19884318.734    19884326.0524
  24083590.933    -5287566.627 8  -3867508.22445  24083592.326    24083603.0504
  24054686.475    -6439786.249 8  -5005498.99445  24054693.412    24054703.7294
  22385627.768   -13861690.526 8 -10778070.24647  22385630.555    22385639.6984
 00  7 30  1 47 30.0000000  0  6 20 25 22 03 06 01
  22245785.666   -13843741.675 8 -10764068.60647  22245787.664    22245796.1314
  21391052.708   -19487021.462 9 -15161196.13747  21391056.617    21391064.5784
  19880520.006   -25394605.577 9 -19766337.47348  19880521.377    19880528.6614
  24063866.507    -5391215.781 8  -3948273.71945  24063867.968    24063879.1814
  24061849.448    -6402150.706 8  -4976172.62445  24061855.791    24061865.9544
  22369750.208   -13945116.055 8 -10843077.04946  22369754.571    22369763.8544
 00  7 30  1 48  0.0000000  0  6 20 25 22 03 06 01
  22253346.298   -13804000.500 8 -10733101.47747  22253350.263    22253359.0874
  21398874.257   -19445922.966 9 -15129171.34347  21398877.588    21398885.0734
  19876827.041   -25414006.175 9 -19781454.80448  19876829.001    19876836.8424
  24044142.292    -5494847.196 8  -4029025.38545  24044146.749    24044159.3574
  24069109.946    -6364024.268 8  -4946463.70645  24069111.531    24069121.1844
  22353918.786   -14028323.802 8 -10907914.18447  22353921.240    22353930.1084
 00  7 30  1 48 30.0000000  0  6 20 25 22 03 06 01
  22261008.626   -13763741.694 8 -10701730.98847  22261011.460    22261019.2354
  21406732.518   -19404633.800 9 -15096997.97347  21406734.885    21406742.4794
  19873241.276   -25432851.775 9 -19796139.67048  19873243.157    19873250.8264
  24024424.523    -5598458.098 8  -4109761.10245  24024430.057    24024441.9284
  24076453.495    -6325407.885 7  -4916373.07645  24076459.423    24076468.7714
  22338125.977   -14111311.532 8 -10972579.88746  22338128.690    22338137.6834
 00  7 30  1 49  0.0000000  0  6 20 25 22 03 06 01
  22268766.164   -13722967.114 8 -10669958.58746  22268769.948    22268778.0254
  21414624.994   -19363153.801 9 -15064675.89647  21414628.175    21414636.0024
  19869761.091   -25451142.124 9 -19810391.86748  19869762.493    19869770.1094
  24004713.106    -5702045.945 8  -4190478.84945  24004718.527    24004730.0114
  24083901.016    -6286302.418 8  -4885901.27245  24083900.172    24083911.3694
  22322372.203   -14194077.078 8 -11037072.46147  22322378.443    22322388.3254
 00  7 30  1 49 30.0000000  0  6 20 25 22 03 06 01
  22276619.515   -13681679.009 8 -10637786.03646  22276626.454    22276635.4114
  21422554.835   -19321483.142 9 -15032205.26947  21422558.010    21422565.5514
  19866384.677   -25468877.503 9 -19824211.62048  19866387.615    19866395.0634
  23984998.058    -5805607.728 7  -4271176.36645  23985010.235    23985022.7154
  24091434.767    -6246709.097 8  -4855049.33845  24091434.508    24091446.2534
  22306669.372   -14276618.197 8 -11101390.14647  22306672.054    22306680.7974
 00  7 30  1 50  0.0000000  0  6 20 25 22 03 06 01
  22284578.126   -13639879.237 8 -10605214.79946  22284581.308    22284590.0104
  21430519.471   -19279621.709 9 -14999585.98347  21430524.091    21430531.6334
  19863116.525   -25486058.546 9 -19837599.42048  19863118.223    19863125.7764
  23965306.218    -5909140.455 7  -4351851.09545  23965310.100    23965320.7064
  24099049.796    -6206629.009 7  -4823818.10345  24099061.091    24099072.2224
  22291004.551   -14358932.495 8 -11165531.08647  22291007.641    22291016.3914
 00  7 30  1 50 30.0000000  0  6 20 25 22 03 06 01
  22292629.901   -13597569.938 8 -10572246.53146  22292632.340    22292640.8204
  21438523.239   -19237569.220 9 -14966817.82147  21438526.580    21438533.9314
  19859951.395   -25502686.084 9 -19850555.91648  19859953.881    19859961.7334
  23945614.003    -6012640.995 8  -4432500.81045  23945614.129    23945625.3964
  24106779.043    -6166063.218 8  -4792208.42345  24106780.919    24106790.6934
  22275384.634   -14441017.646 8 -11229493.44747  22275387.164    22275396.1674
 00  7 30  1 51  0.0000000  0  6 20 25 22 03 06 01
  22300777.105   -13554753.136 8 -10538882.79146  22300780.599    22300788.7654
  21446561.037   -19195325.935 9 -14933900.98247  21446564.974    21446572.4604
  19856893.782   -25518760.021 9 -19863081.03248  19856895.325    19856902.9964
  23925925.409    -6116107.020 8  -4513123.57545  23925924.910    23925937.1944
  24114588.956    -6125012.785 8  -4760221.02445  24114594.016    24114602.6944
  22259811.622   -14522871.378 8 -11293275.50847  22259811.965    22259820.1924
 00  7 30  1 51 30.0000000  0  6 20 25 22 03 06 01
  22309022.644   -13511431.083 8 -10505125.34547  22309024.961    22309033.1994
  21454636.275   -19152891.848 9 -14900835.46247  21454639.557    21454647.3454
  19853938.633   -25534280.567 9 -19875174.93848  19853941.848    19853949.2944
  23906248.504    -6219535.777 8  -4593717.36645  23906243.329    23906254.9774
  24122493.586    -6083478.782 7  -4727856.85945  24122497.021    24122507.8144
  22244275.953   -14604491.536 8 -11356875.54647  22244278.876    22244288.6554
 00  7 30  1 52  0.0000000  0  6 20 25 22 03 06 01
  22317361.267   -13467605.898 8 -10470975.86146  22317364.545    22317372.3414
  21462748.739   -19110266.988 9 -14867621.28147  21462750.755    21462759.0204
  19851091.912   -25549248.058 9 -19886837.88748  19851093.323    19851100.8754
  23886560.076    -6322923.997 8  -4674279.55845  23886568.609    23886579.3134
  24130494.994    -6041462.135 8  -4695116.63545  24130492.190    24130502.7104
  22228790.098   -14685875.769 8 -11420291.73347  22228792.512    22228800.7794
 00  7 30  1 52 30.0000000  0  6 20 25 22 03 06 01
  22325793.873   -13423279.822 8 -10436436.05946  22325798.868    22325806.9594
  21470893.249   -19067451.333 9 -14834258.43247  21470898.319    21470906.0244
  19848348.180   -25563663.286 9 -19898070.50548  19848350.302    19848357.9534
  23866903.155    -6426268.930 8  -4754808.01045  23866902.290    23866913.8504
  24138574.824    -5998964.201 8  -4662001.37245  24138579.416    24138589.7544
  22213346.660   -14767021.873 8 -11483522.39747  22213350.330    22213359.7404
 00  7 30  1 53  0.0000000  0  6 20 25 22 03 06 01
  22334323.238   -13378454.959 8 -10401507.61446  22334329.023    22334338.1594
  21479079.336   -19024444.857 9 -14800746.89347  21479082.475    21479090.0054
  19845710.995   -25577527.011 9 -19908873.37648  19845712.253    19845719.6794
  23847243.244    -6529567.817 8  -4835300.57345  23847246.002    23847256.3524
  24146753.334    -5955986.281 8  -4628512.09445  24146757.664    24146767.4784
  22197950.630   -14847927.448 8 -11546565.64047  22197954.648    22197963.8734
 00  7 30  1 53 30.0000000  0  6 20 25 22 03 06 01
  22342949.719   -13333133.458 8 -10366192.15846  22342953.738    22342962.6184
  21487300.210   -18981247.697 9 -14767086.78247  21487302.768    21487310.2694
  19843176.164   -25590839.273 9 -19919246.54048  19843179.003    19843186.3104
  23827592.991    -6632817.601 8  -4915754.87445  23827598.439    23827608.5674
  24155025.180    -5912529.367 7  -4594649.55445  24155027.085    24155038.3624
  22182602.209   -14928590.142 8 -11609419.62647  22182604.783    22182614.0064
 00  7 30  1 54  0.0000000  0  6 20 25 22 03 06 01
  22351669.147   -13287317.633 8 -10330491.50846  22351671.645    22351679.4654
  21495555.924   -18937860.154 9 -14733278.31447  21495558.967    21495566.2574
  19840748.978   -25603600.384 9 -19929190.23148  19840750.720    19840757.9584
  23807959.650    -6736015.587 8  -4996168.81045  23807961.157    23807971.2204
  24163387.376    -5868594.664 8  -4560414.69245  24163387.776    24163398.0724
  22167298.556   -15009007.715 8 -11672082.60147  22167302.268    22167310.4804
 00  7 30  1 54 30.0000000  0  6 20 25 22 03 06 01
  22360480.246   -13241009.828 8 -10294407.52046  22360483.204    22360492.1664
  21503849.720   -18894281.745 9 -14699321.12047  21503851.765    21503858.9724
  19838426.250   -25615810.847 9 -19938704.85648  19838427.260    19838434.2384
  23788329.734    -6839158.907 8  -5076540.15345  23788332.488    23788343.7664
  24171834.939    -5824183.428 8  -4525808.52845  24171839.388    24171849.1264
  22152043.773   -15089177.931 8 -11734552.80747  22152046.570    22152054.0314
 00  7 30  1 55  0.0000000  0  6 20 25 22 03 06 01
  22369384.366   -13194212.069 8 -10257941.74146  22369388.754    22369397.4754
  21512177.203   -18850512.502 9 -14665215.20747  21512180.541    21512188.1154
  19836205.546   -25627471.591 9 -19947791.12848  19836208.163    19836215.3684
  23768709.351    -6942244.620 8  -5156866.54245  23768715.675    23768726.9914
  24180376.184    -5779297.191 8  -4490832.23945  24180380.483    24180391.3394
  22136833.467   -15169098.192 8 -11796828.21347  22136838.063    22136847.5324
 00  7 30  1 55 30.0000000  0  6 20 25 22 03 06 01
  22378385.084   -13146926.843 8 -10221096.11446  22378387.264    22378395.0764
  21520543.519   -18806552.804 9 -14630960.89747  21520545.904    21520553.5364
  19834092.316   -25638583.370 9 -19956449.63348  19834093.744    19834100.9854
  23749110.390    -7045269.983 8  -5237145.91445  23749110.549    23749122.2874
  24189012.313    -5733936.860 8  -4455486.53645  24189012.901    24189022.1544
  22121675.339   -15248766.354 8 -11858907.23147  22121677.483    22121686.2184
 00  7 30  1 56  0.0000000  0  6 20 25 22 03 06 01
  22387475.309   -13099156.271 8 -10183872.28846  22387477.853    22387485.7574
  21528943.587   -18762402.628 9 -14596558.15947  21528947.610    21528955.3644
  19832081.238   -25649146.385 9 -19964680.52548  19832083.449    19832090.7984
  23729510.582    -7148231.844 8  -5317375.84345  23729517.438    23729528.9814
  24197723.266    -5688103.602 8  -4419772.31345  24197734.565    24197744.9614
  22106561.074   -15328180.064 8 -11920787.98547  22106565.362    22106574.2644
 00  7 30  1 56 30.0000000  0  6 20 25 22 03 06 01
  22396658.013   -13050902.753 8 -10146272.15146  22396660.101    22396668.5924
  21537383.275   -18718061.558 9 -14562006.67947  21537385.490    21537393.0044
  19830176.298   -25659160.922 9 -19972484.03548  19830177.690    19830185.0204
  23709938.166    -7251127.262 8  -5397553.96345  23709937.075    23709947.8354
  24206547.517    -5641798.946 7  -4383690.76545  24206545.647    24206556.6264
  22091499.570   -15407337.148 8 -11982468.79147  22091502.177    22091511.1294
 00  7 30  1 57  0.0000000  0  6 20 25 22 03 06 01
  22405931.753   -13002168.692 8 -10108297.56246  22405934.098    22405942.1054
  21545854.864   -18673529.704 9 -14527306.52747  21545859.087    21545866.9094
  19828372.665   -25668627.874 9 -19979860.86248  19828375.967    19828383.2844
  23690368.232    -7353953.419 8  -5477678.12945  23690370.243    23690381.4564
  24215438.639    -5595024.429 8  -4347243.13545  24215446.638    24215456.6364
  22076484.708   -15486235.097 8 -12043947.64347  22076488.204    22076497.1284
 00  7 30  1 57 30.0000000  0  6 20 25 22 03 06 01
  22415296.107   -12952956.295 8 -10069950.24846  22415299.244    22415307.1584
  21554364.404   -18628807.514 9 -14492458.06747  21554369.369    21554377.3144
  19826676.335   -25677548.096 9 -19986811.66148  19826678.658    19826686.0594
  23670814.318    -7456707.616 8  -5557746.21345  23670815.747    23670827.7764
  24224436.441    -5547781.039 8  -4310430.13045  24224438.340    24224447.1194
  22061521.896   -15564871.471 8 -12105222.66047  22061524.254    22061533.4364
 00  7 30  1 58  0.0000000  0  6 20 25 22 03 06 01
  22424752.250   -12903268.059 8 -10031232.14446  22424754.225    22424762.0804
  21562913.669   -18583894.997 9 -14457461.33047  21562916.040    21562923.9094
  19825083.138   -25685922.385 9 -19993337.06148  19825085.177    19825092.5484
  23651270.828    -7559387.021 8  -5637756.03645  23651277.530    23651287.9294
  24233509.660    -5500069.949 8  -4273252.63845  24233515.697    24233526.0414
  22046607.177   -15643244.305 8 -12166292.34347  22046610.134    22046619.5234
 00  7 30  1 58 30.0000000  0  6 20 25 22 03 06 01
  22434294.926   -12853106.374 8  -9992145.13246  22434299.528    22434307.0124
  21571495.876   -18538791.829 9 -14422315.99647  21571499.216    21571506.7114
  19823593.764   -25693751.150 9 -19999437.37448  19823595.503    19823602.6204
  23631749.206    -7661988.430 8  -5717705.06545  23631753.153    23631763.8164
  24242682.817    -5451892.670 7  -4235711.91445  24242684.131    24242692.8164
  22031742.489   -15721351.134 8 -12227154.74747  22031747.429    22031755.8984
 00  7 30  1 59  0.0000000  0  7 20 25 22 03 06 01 19
  22443931.064   -12802473.481 8  -9952690.94146  22443935.113    22443942.7824
  21580113.784   -18493497.854 9 -14387021.98447  21580118.481    21580125.8184
  19822205.604   -25701034.647 9 -20005112.80248  19822209.265    19822216.7004
  23612231.915    -7764509.022 8  -5797591.09245  23612243.644    23612253.9874
  24251935.897    -5403250.789 7  -4197809.16745  24251940.098    24251949.6564
  22016930.316   -15799189.537 8 -12287807.98747  22016935.384    22016944.0494
  24779506.732     -279057.33217   -197354.39254  24779506.295    24779516.1384
 00  7 30  1 59 30.0000000  0  7 20 25 22 03 06 01 19
  22453655.943   -12751372.103 8  -9912871.68746  22453659.045    22453667.1774
  21588768.327   -18448013.288 9 -14351579.45447  21588773.808    21588781.5144
  19820925.575   -25707773.902 9 -20010364.14048  19820926.779    19820934.3114
  23592742.089    -7866945.840 8  -5877411.82245  23592749.735    23592761.3014
  24261278.227    -5354145.611 7  -4159545.41045  24261284.480    24261293.9774
  22002172.323   -15876757.346 8 -12348250.35247  22002174.644    22002183.6324
  24763835.140     -361402.345 7   -261519.26345  24763838.149    24763848.8684
 00  7 30  2  0  0.0000000  0  7 20 25 22 03 06 01 19
  22463468.665   -12699804.292 8  -9872688.99946  22463471.299    22463479.7904
  21597463.345   -18402337.753 9 -14315988.11147  21597465.496    21597473.2204
  19819745.373   -25713970.004 9 -20015192.24948  19819747.573    19819755.3494
  23573266.262    -7969295.825 8  -5957164.89745  23573273.630    23573284.4134
  24270713.300    -5304578.427 8  -4120921.64845  24270716.989    24270726.8964
  21987466.914   -15954052.164 8 -12408480.03847  21987466.053    21987474.5344
  24748161.337     -443749.135 7   -325685.45845  24748168.775    24748177.3134
 00  7 30  2  0 30.0000000  0  7 20 25 22 03 06 01 19
  22473371.067   -12647772.705 8  -9832144.92346  22473372.911    22473382.2604
  21606191.027   -18356471.449 9 -14280248.12247  21606193.692    21606201.1384
  19818670.028   -25719623.657 9 -20019597.66848  19818671.774    19818679.3594
  23553810.568    -8071556.372 8  -6036848.31545  23553814.871    23553824.8024
  24280233.354    -5254550.719 8  -4081939.05945  24280236.137    24280247.6104
  21972805.339   -16031071.466 8 -12468495.02647  21972809.379    21972817.4264
  24732491.627     -526097.206 7   -389852.73845  24732496.084    24732508.0604
 00  7 30  2  1  0.0000000  0  7 20 25 22 03 06 01 19
  22483359.699   -12595279.807 8  -9791241.39646  22483361.885    22483370.6604
  21614955.108   -18310414.483 9 -14244359.57347  21614957.885    21614965.2754
  19817696.357   -25724735.247 9 -20023580.70148  19817699.034    19817706.6714
  23534369.010    -8173724.291 8  -6116459.52545  23534372.788    23534383.2764
  24289842.039    -5204063.738 8  -4042598.56945  24289844.437    24289854.3044
  21958203.739   -16107813.058 8 -12528293.62947  21958205.240    21958214.3074
  24716826.692     -608446.565 7   -454020.98645  24716826.150    24716837.5944
 00  7 30  2  1 30.0000000  0  7 20 25 22 03 06 01 19
  22493437.151   -12542327.926 8  -9749980.21046  22493438.326    22493447.1594
  21623754.937   -18264166.872 9 -14208322.46747  21623758.451    21623766.0914
  19816825.652   -25729305.433 9 -20027141.86548  19816829.096    19816837.1204
  23514945.447    -8275797.220 8  -6195996.71145  23514947.468    23514958.9874
  24299537.637    -5153119.305 8  -4002901.57945  24299539.217    24299549.4784
  21943653.730   -16184274.345 8 -12587873.82147  21943655.514    21943663.7534
  24701149.050     -690796.729 7   -518189.85345  24701155.429    24701166.3264
 00  7 30  2  2  0.0000000  0  7 20 25 22 03 06 01 19
  22503600.052   -12488919.738 8  -9708363.43346  22503601.847    22503610.4764
  21632591.739   -18217728.451 9 -14172136.68047  21632595.556    21632602.8694
  19816060.480   -25733335.293 9 -20030281.98948  19816062.214    19816070.1104
  23495532.442    -8377771.719 8  -6275457.17845  23495542.627    23495553.6704
  24309318.000    -5101718.963 8  -3962849.34045  24309319.639    24309330.7374
  21929156.478   -16260453.187 8 -12647233.95347  21929159.330    21929167.9654
  24685470.223     -773147.489 7   -582359.19445  24685483.837    24685495.4234
 00  7 30  2  2 30.0000000  0  7 20 25 22 03 06 01 19
  22513849.676   -12435057.671 8  -9666392.99146  22513851.714    22513860.0774
  21641467.471   -18171099.013 9 -14135802.04547  21641468.697    21641476.1504
  19815396.537   -25736825.970 9 -20033001.97048  19815398.178    19815405.7124
  23476149.747    -8479644.584 8  -6354838.45945  23476157.320    23476167.4784
  24319181.062    -5049864.055 8  -3922442.89945  24319188.050    24319198.0414
  21914712.503   -16336347.310 8 -12706372.18847  21914716.674    21914725.9384
  24669817.167     -855498.765 7   -646528.92945  24669814.532    24669824.5534
 00  7 30  2  3  0.0000000  0  7 20 25 22 03 06 01 19
  22524185.296   -12380744.251 8  -9624070.87046  22524186.956    22524195.9474
  21650373.767   -18124278.828 9 -14099318.79047  21650378.341    21650385.8524
  19814834.686   -25739778.201 9 -20035302.39348  19814836.261    19814843.7414
  23456787.727    -8581413.039 8  -6434138.42245  23456791.694    23456801.6654
  24329136.825    -4997556.095 7  -3881683.46845  24329141.480    24329152.4514
  21900325.007   -16411954.215 8 -12765286.64447  21900329.277    21900337.2584
  24654138.269     -937850.343 7   -710698.92145  24654142.814    24654154.0734
 00  7 30  2  3 30.0000000  0  7 20 25 22 03 06 01 19
  22534604.700   -12325982.090 8  -9581399.05946  22534608.008    22534616.6024
  21659321.873   -18077267.927 9 -14062686.89847  21659324.251    21659331.6254
  19814373.917   -25742192.440 9 -20037183.59648  19814376.743    19814384.3814
  23437437.231    -8683074.248 8  -6513354.74245  23437445.680    23437455.6784
  24339182.444    -4944796.539 7  -3840572.15045  24339181.958    24339191.4214
  21885993.444   -16487271.554 8 -12823975.45147  21885996.995    21886005.3314
  24638460.030    -1020201.965 7   -774868.95045  24638471.317    24638481.9664
 00  7 30  2  4  0.0000000  0  7 20 25 22 03 06 01 19
  22545109.904   -12270773.677 8  -9538379.52146  22545113.700    22545122.2624
  21668301.863   -18030066.182 9 -14025906.32047  21668306.324    21668313.7934
  19814018.722   -25744069.473 9 -20038646.19948  19814019.875    19814027.2824
  23418118.459    -8784625.350 8  -6592485.31545  23418120.840    23418130.8714
  24349300.695    -4891586.847 7  -3799110.06145  24349307.713    24349316.4844
  21871716.279   -16562296.970 8 -12882436.75447  21871719.764    21871728.1434
  24622795.296    -1102553.544 7   -839038.94145  24622799.840    24622810.9334
 00  7 30  2  4 30.0000000  0  7 20 25 22 03 06 01 19
  22555697.596   -12215121.503 8  -9495014.19746  22555703.678    22555712.5724
  21677321.727   -17982673.698 9 -13988977.09847  21677324.772    21677332.0364
  19813763.132   -25745410.558 9 -20039691.17648  19813764.285    19813772.2394
  23398813.469    -8886063.246 8  -6671527.63045  23398817.957    23398828.6264
  24359518.402    -4837928.519 8  -3757298.38945  24359517.976    24359526.5564
  21857496.963   -16637028.168 9 -12940668.85247  21857499.237    21857507.9284
  24607127.717    -1184904.671 7   -903208.60445  24607130.997    24607139.9634
 00  7 30  2  5  0.0000000  0  7 20 25 22 03 06 01 19
  22566373.552   -12159028.362 8  -9451305.26246  22566378.084    22566386.5244
  21686378.404   -17935090.581 9 -13951899.33847  21686379.329    21686387.2424
  19813609.262   -25746216.945 9 -20040319.50448  19813610.899    19813618.7064
  23379530.144    -8987385.336 8  -6750479.67545  23379536.420    23379546.8294
  24369806.036    -4783823.161 8  -3715138.34245  24369812.994    24369823.1654
  21843333.697   -16711462.830 9 -12998669.86347  21843335.293    21843343.2024
  24591455.877    -1267255.211 7   -967377.76445  24591457.837    24591469.6804
 00  7 30  2  5 30.0000000  0  7 20 25 22 03 06 01 19
  22577133.699   -12102496.823 8  -9407254.72446  22577135.986    22577144.2404
  21695467.652   -17887316.548 9 -13914672.80547  21695470.476    21695477.7714
  19813557.601   -25746489.194 9 -20040531.62248  19813559.279    19813566.5984
  23360275.902    -9088588.263 8  -6829338.87545  23360278.604    23360288.5964
  24380192.238    -4729272.419 8  -3672631.26245  24380194.095    24380203.7694
  21829223.772   -16785598.613 9 -13056437.98447  21829227.378    21829235.5744
  24575784.505    -1349604.857 7  -1031546.21745  24575789.451    24575799.1054
 00  7 30  2  6  0.0000000  0  7 20 25 22 03 06 01 19
  22587976.116   -12045529.477 8  -9362864.59446  22587976.792    22587985.3704
  21704594.988   -17839351.549 9 -13877297.47047  21704598.363    21704605.6034
  19813605.088   -25746227.981 9 -20040328.05648  19813608.645    19813616.2404
  23341041.150    -9189669.159 8  -6908103.01446  23341043.547    23341052.9904
  24390661.248    -4674277.807 8  -3629778.28245  24390659.521    24390669.2494
  21815176.354   -16859433.105 9 -13113971.34247  21815176.884    21815185.4834
  24560113.932    -1431953.058 7  -1095713.62645  24560116.561    24560128.4514
 00  7 30  2  6 30.0000000  0  7 20 25 22 03 06 01 19
  22598897.423   -11988128.808 8  -9318136.83746  22598899.168    22598907.7904
  21713756.811   -17791195.418 9 -13839773.19747  21713761.466    21713768.9394
  19813757.975   -25745434.356 9 -20039709.61748  19813759.739    19813767.3854
  23321834.027    -9290625.176 8  -6986769.89446  23321831.883    23321842.1834
  24401201.698    -4618841.093 7  -3586580.80145  24401207.284    24401218.4474
  21801181.697   -16932963.947 9 -13171268.07847  21801185.273    21801193.2754
  24544432.191    -1514299.734 7  -1159879.74545  24544447.819    24544457.2464
 00  7 30  2  7  0.0000000  0  7 20 25 22 03 06 01 19
  22609902.596   -11930297.695 8  -9273073.65546  22609904.501    22609912.3624
  21722957.412   -17742848.375 9 -13802100.15947  21722961.726    21722969.6524
  19814009.013   -25744109.654 9 -20038677.35648  19814011.837    19814019.4054
  23302639.971    -9391453.352 8  -7065337.13945  23302643.883    23302654.2304
  24411845.110    -4562963.828 7  -3543040.04745  24411841.348    24411852.0334
  21787247.317   -17006188.647 9 -13228326.25147  21787250.901    21787258.8924
  24528781.321    -1596644.650 7  -1224044.56945  24528777.961    24528788.7104
 00  7 30  2  7 30.0000000  0  7 20 25 22 03 06 01 19
  22620988.940   -11872038.742 8  -9227677.06346  22620990.788    22620998.1154
  21732197.501   -17694309.979 9 -13764278.03447  21732198.544    21732206.2154
  19814361.207   -25742254.933 9 -20037232.08948  19814364.700    19814372.3734
  23283482.310    -9492150.837 8  -7143802.53145  23283482.124    23283492.1454
  24422551.744    -4506647.701 7  -3499157.32445  24422557.091    24422568.3824
  21773372.087   -17079104.961 9 -13285144.11447  21773374.772    21773383.3804
  24513105.714    -1678987.537 7  -1288207.81145  24513108.746    24513119.1434
 00  7 30  2  8  0.0000000  0  7 20 25 22 03 06 01 19
  22632154.839   -11813354.504 8  -9181949.11146  22632157.731    22632166.8214
  21741469.044   -17645580.760 9 -13726307.21847  21741471.304    21741479.0834
  19814815.974   -25739871.036 9 -20035374.48848  19814818.519    19814826.0564
  23264340.124    -9592714.497 8  -7222163.63846  23264344.960    23264355.4894
  24433357.549    -4449894.388 8  -3454933.92145  24433358.121    24433367.8974
  21759555.092   -17151710.729 9 -13341719.97547  21759558.262    21759567.4254
  24497426.911    -1761327.931 7  -1352369.10945  24497439.559    24497449.3004
 00  7 30  2  8 30.0000000  0  7 20 25 22 03 06 01 19
  22643402.534   -11754247.549 8  -9135891.80746  22643405.123    22643413.8914
  21750773.199   -17596660.604 9 -13688187.67947  21750780.421    21750787.8064
  19815370.465   -25736958.611 9 -20033105.04148  19815372.912    19815380.1484
  23245233.192    -9693141.129 8  -7300418.04146  23245234.662    23245244.1724
  24444237.699    -4392705.363 8  -3410370.97645  24444240.987    24444250.9814
  21745798.009   -17224003.380 9 -13398051.86747  21745801.697    21745810.2654
  24481767.718    -1843665.702 7  -1416528.41245  24481770.578    24481782.4364
 00  7 30  2  9  0.0000000  0  7 20 25 22 03 06 01 19
  22654729.830   -11694720.788 8  -9089507.34246  22654732.949    22654741.0484
  21760122.453   -17547549.163 9 -13649919.02547  21760126.322    21760134.0594
  19816025.576   -25733518.981 9 -20030424.79048  19816027.499    19816034.5184
  23226144.532    -9793427.973 8  -7378563.52346  23226150.598    23226161.1764
  24455207.135    -4335082.565 8  -3365470.06245  24455206.662    24455215.3384
  21732104.933   -17295980.441 9 -13454137.82247  21732104.898    21732113.5024
  24466097.205    -1926000.481 7  -1480685.34345  24466101.095    24466113.4784
 00  7 30  2  9 30.0000000  0  7 20 25 22 03 06 01 19
  22666140.444   -11634776.876 8  -9042797.83346  22666140.074    22666148.4124
  21769506.387   -17498246.570 9 -13611501.43647  21769508.424    21769515.4794
  19816779.865   -25729553.497 9 -20027334.78848  19816782.291    19816789.0444
  23207087.304    -9893572.348 8  -7456597.95246  23207093.697    23207103.5444
  24466243.973    -4277027.620 7  -3320232.42145  24466252.513    24466262.6164
  21718463.977   -17367639.781 9 -13509976.22547  21718468.430    21718477.0284
  24450435.143    -2008332.131 7  -1544839.80645  24450434.900    24450444.3474
 00  7 30  2 10  0.0000000  0  7 20 25 22 03 06 01 19
  22677623.185   -11574418.531 8  -8995765.40046  22677625.996    22677634.0514
  21778921.819   -17448753.154 9 -13572935.13147  21778926.617    21778934.0424
  19817633.467   -25725063.343 9 -20023835.94648  19817636.694    19817643.6584
  23188062.534    -9993570.823 8  -7534518.70846  23188063.638    23188074.5824
  24477374.447    -4218542.266 7  -3274659.36045  24477382.544    24477392.5514
  21704892.688   -17438979.024 9 -13565565.19947  21704893.182    21704901.2044
  24434773.803    -2090660.154 7  -1608991.47745  24434770.235    24434778.8664
 00  7 30  2 10 30.0000000  0  7 20 25 22 03 06 01 19
  22689189.736   -11513648.614 8  -8948412.24346  22689190.643    22689198.6234
  21788376.625   -17399068.405 9 -13534219.74647  21788381.786    21788388.7934
  19818587.470   -25720049.233 9 -20019928.82448  19818590.449    19818597.7594
  23169060.647   -10093420.647 8  -7612323.60946  23169063.397    23169074.0454
  24488591.571    -4159628.326 7  -3228752.36845  24488593.474    24488602.9064
  21691376.484   -17509995.720 9 -13620902.85647  21691379.214    21691386.7824
  24419104.017    -2172984.328 7  -1673140.15745  24419104.158    24419113.0974
 00  7 30  2 11  0.0000000  0  7 20 25 22 03 06 01 19
  22700826.001   -11452469.886 8  -8900740.53246  22700832.645    22700840.3744
  21797870.921   -17349192.540 9 -13495355.45747  21797872.741    21797879.8584
  19819641.760   -25714512.091 9 -20015614.14448  19819643.851    19819651.5684
  23150088.114   -10193118.961 8  -7690010.40445  23150090.566    23150101.3384
  24499879.026    -4100287.339 7  -3182512.61245  24499886.176    24499895.0314
  21677923.584   -17580687.468 9 -13675987.28947  21677926.451    21677935.0504
  24403433.346    -2255304.394 7  -1737285.62045  24403438.792    24403449.6094
 00  7 30  2 11 30.0000000  0  7 20 25 22 03 06 01 19
  22712543.997   -11390884.921 8  -8852752.28546  22712551.027    22712560.3164
  21807397.604   -17299125.111 9 -13456341.87147  21807400.128    21807407.7364
  19820794.957   -25708453.146 9 -20010892.87048  19820797.150    19820804.4534
  23131153.008   -10292662.733 8  -7767576.83046  23131148.055    23131159.1094
  24511254.150    -4040520.966 7  -3135941.39145  24511258.086    24511266.9284
  21664533.303   -17651051.909 9 -13730816.68347  21664537.073    21664544.6684
  24387772.365    -2337619.954 7  -1801427.61345  24387773.726    24387785.0574
 00  7 30  2 12  0.0000000  0  7 20 25 22 03 06 01 19
  22724344.107   -11328896.417 8  -8804449.59346  22724347.216    22724355.6764
  21816963.258   -17248866.267 9 -13417179.19347  21816964.189    21816970.7634
  19822046.546   -25701874.076 9 -20005766.30948  19822048.879    19822056.3934
  23112231.582   -10392048.818 8  -7845020.42346  23112236.946    23112246.1044
  24522713.085    -3980331.195 7  -3089040.23745  24522712.685    24522721.9204
  21651206.599   -17721086.813 9 -13785389.28147  21651209.397    21651218.0724
  24372107.733    -2419930.665 7  -1865565.80345  24372111.662    24372121.2354
 00  7 30  2 12 30.0000000  0  7 20 25 22 03 06 01 19
  22736220.859   -11266507.378 8  -8755834.78146  22736219.735    22736228.1744
  21826560.163   -17198416.028 8 -13377867.33747  21826564.187    21826571.6044
  19823398.085   -25694776.054 9 -20000235.36848  19823399.597    19823407.1494
  23093356.181   -10491274.201 8  -7922338.77046  23093354.446    23093364.0664
  24534243.512    -3919719.721 8  -3041810.51245  24534247.433    24534257.1564
  21637940.353   -17790789.698 9 -13839703.15247  21637945.392    21637953.3604
  24356446.453    -2502236.127 7  -1929699.90745  24356449.167    24356459.1634
 00  7 30  2 13  0.0000000  0  7 20 25 22 03 06 01 19
  22748164.612   -11203720.676 8  -8706910.11646  22748167.471    22748176.1074
  21836193.929   -17147774.359 8 -13338406.31947  21836200.586    21836208.5444
  19824846.174   -25687159.591 9 -19994300.44548  19824849.263    19824856.5804
  23074502.923   -10590335.879 8  -7999529.56846  23074503.445    23074513.6424
  24545856.316    -3858688.400 7  -2994253.60645  24545859.774    24545870.0344
  21624745.630   -17860158.291 9 -13893756.53147  21624744.576    21624753.0734
  24340778.271    -2584536.180 7  -1993829.74945  24340788.927    24340798.0774
 00  7 30  2 13 30.0000000  0  7 20 25 22 03 06 01 19
  22760190.429   -11140538.910 8  -8657677.60846  22760190.573    22760199.0704
  21845867.986   -17096941.510 8 -13298796.37647  21845873.842    21845881.8954
  19826392.943   -25679026.004 9 -19987962.57348  19826396.814    19826404.2844
  23055671.937   -10689231.141 8  -8076590.65946  23055682.690    23055693.9524
  24557546.999    -3797238.957 7  -2946370.88245  24557553.784    24557563.6654
  21611604.944   -17929190.156 9 -13947547.51847  21611608.356    21611616.7244
  24325133.284    -2666830.403 7  -2057955.07245  24325128.110    24325138.2974
 00  7 30  2 14  0.0000000  0  7 20 25 22 03 06 01 19
  22772286.564   -11076964.909 8  -8608139.47146  22772288.368    22772296.9034
  21855581.617   -17045917.214 8 -13259037.20747  21855583.914    21855591.3874
  19828039.600   -25670376.727 9 -19981222.86348  19828042.791    19828050.1544
  23036892.545   -10787956.930 8  -8153519.71046  23036896.586    23036907.0684
  24569324.516    -3735373.252 7  -2898163.78245  24569325.802    24569336.0724
  21598533.936   -17997882.978 9 -14001074.34347  21598536.004    21598544.3954
  24309467.537    -2749118.518 7  -2122075.63445  24309468.016    24309479.1094
 00  7 30  2 14 30.0000000  0  7 20 25 22 03 06 01 19
  22784455.711   -11013001.661 8  -8558298.01346  22784460.586    22784468.9064
  21865325.833   -16994701.418 9 -13219128.83347  21865329.774    21865337.2734
  19829783.738   -25661213.348 9 -19974082.55148  19829786.440    19829793.7644
  23018138.683   -10886510.005 8  -8230314.21946  23018142.819    23018152.4844
  24581176.853    -3673093.169 7  -2849633.84845  24581178.343    24581187.6544
  21585528.118   -18066234.440 9 -14054335.16747  21585529.570    21585538.3424
  24293806.742    -2831400.059 7  -2186191.10745  24293811.788    24293821.6694
 00  7 30  2 15  0.0000000  0  7 20 25 22 03 06 01 19
  22796700.399   -10948651.849 8  -8508155.33646  22796705.257    22796714.9264
  21875110.640   -16943294.023 9 -13179071.12947  21875112.871    21875119.6364
  19831625.227   -25651536.959 9 -19966542.49048  19831627.926    19831635.1764
  22999420.674   -10984887.461 8  -8306971.82646  22999421.935    22999431.1714
  24593098.015    -3610400.447 7  -2800782.33345  24593108.642    24593117.3204
  21572586.867   -18134242.161 9 -14107328.15447  21572588.643    21572596.5654
  24278151.815    -2913674.424 7  -2250300.98545  24278155.050    24278165.7744
 00  7 30  2 15 30.0000000  0  7 20 25 22 03 06 01 19
  22809023.039   -10883918.395 8  -8457713.74546  22809024.175    22809032.6404
  21884927.255   -16891694.864 8 -13138864.00447  21884931.317    21884938.4964
  19833564.180   -25641348.476 9 -19958603.39648  19833566.777    19833573.7764
  22980730.484   -11083086.428 8  -8383490.43146  22980735.376    22980745.4494
  24605114.900    -3547297.129 7  -2751610.92345  24605116.285    24605126.1644
  21559710.256   -18201903.948 9 -14160051.59347  21559712.540    21559721.0024
  24262493.111    -2995941.846 7  -2314405.41545  24262499.726    24262509.9934
 00  7 30  2 16  0.0000000  0  7 20 25 22 03 06 01 19
  22821413.769   -10818804.170 8  -8406975.42546  22821414.697    22821423.3964
  21894785.549   -16839903.922 8 -13098507.45747  21894787.323    21894794.1544
  19835601.098   -25630648.938 9 -19950266.08248  19835602.805    19835609.9284
  22962075.376   -11181104.179 8  -8459867.73046  22962082.812    22962092.4304
  24617206.282    -3483784.826 7  -2702120.76345  24617203.746    24617212.5334
  21546901.359   -18269217.319 9 -14212503.52647  21546903.368    21546911.8854
  24246843.600    -3078201.822 7  -2378504.05445  24246845.607    24246854.8754
 00  7 30  2 16 30.0000000  0  7 20 25 22 03 06 01 19
  22833878.743   -10753311.984 8  -8355942.61746  22833877.511    22833886.3514
  21904675.713   -16787921.124 8 -13058001.40747  21904679.424    21904686.6574
  19837733.414   -25619440.084 9 -19941531.89448  19837735.753    19837742.9264
  22943461.094   -11278937.500 8  -8536101.35246  22943464.791    22943475.5244
  24629365.274    -3419865.481 7  -2652313.41745  24629364.540    24629374.1784
  21534156.965   -18336180.081 9 -14264682.25147  21534160.881    21534168.9134
  24231192.626    -3160453.930 7  -2442596.57645  24231194.472    24231203.5274
 00  7 30  2 17  0.0000000  0  7 20 25 22 03 06 01 19
  22846411.743   -10687444.782 8  -8304617.56646  22846412.308    22846420.3654
  21914607.128   -16735746.558 8 -13017345.92147  21914607.769    21914614.9714
  19839963.069   -25607723.567 9 -19932402.12748  19839964.954    19839972.4444
  22924878.432   -11376583.194 8  -8612188.77946  22924884.108    22924894.0834
  24641606.718    -3355541.041 7  -2602190.38245  24641606.110    24641614.9904
  21521482.741   -18402789.738 9 -14316585.84947  21521485.280    21521493.4694
  24215542.884    -3242698.074 7  -2506682.85945  24215542.920    24215554.3854
 00  7 30  2 17 30.0000000  0  7 20 25 22 03 06 01 19
  22859011.900   -10621205.287 8  -8253002.44046  22859017.071    22859025.6474
  21924569.104   -16683380.183 8 -12976540.99747  21924572.767    21924580.0294
  19842289.802   -25595500.405 9 -19922877.56548  19842291.130    19842298.4314
  22906336.572   -11474038.530 8  -8688127.88346  22906339.367    22906349.3484
  24653918.846    -3290813.453 7  -2551753.22045  24653923.755    24653931.8514
  21508873.309   -18469043.962 9 -14368212.45947  21508877.486    21508885.4494
  24199895.333    -3324933.418 7  -2570762.27045  24199894.897    24199905.9274
 00  7 30  2 18  0.0000000  0  7 20 25 22 03 06 01 19
  22871689.478   -10554596.585 8  -8201099.60546  22871692.772    22871700.7024
  21934570.282   -16630821.962 8 -12935586.59247  21934574.079    21934581.6194
  19844711.435   -25582771.655 9 -19912959.04348  19844713.566    19844720.6884
  22887827.658   -11571300.428 8  -8763916.31846  22887830.422    22887840.4314
  24666316.735    -3225684.637 7  -2501003.42245  24666316.368    24666326.6294
  21496335.537   -18534940.470 9 -14419560.31747  21496338.085    21496345.8474
  24184241.912    -3407159.674 7  -2634834.60645  24184246.277    24184258.3954
 00  7 30  2 18 30.0000000  0  7 20 25 22 03 06 01 19
  22884434.314   -10487621.619 8  -8148911.35446  22884437.450    22884446.0854
  21944609.720   -16578071.912 8 -12894482.66547  21944611.934    21944619.7374
  19847231.324   -25569538.521 9 -19902647.49848  19847231.685    19847238.6464
  22869351.306   -11668365.775 8  -8839551.63846  22869358.940    22869369.9504
  24678780.900    -3160156.229 7  -2449942.22145  24678786.569    24678794.8444
  21483866.849   -18600476.940 9 -14470627.62147  21483866.717    21483874.3634
  24168595.445    -3489376.357 8  -2698899.48345  24168601.528    24168610.6524
 00  7 30  2 19  0.0000000  0  7 20 25 22 03 06 01 19
  22897250.427   -10420283.390 8  -8096440.03746  22897251.270    22897260.1914
  21954681.149   -16525130.282 8 -12853229.48647  21954686.211    21954694.3244
  19849842.417   -25555802.863 9 -19891944.37048  19849845.509    19849852.4544
  22850921.956   -11765231.964 8  -8915031.71646  22850926.820    22850936.6934
  24691322.115    -3094230.252 7  -2398571.25145  24691332.111    24691340.4574
  21471458.047   -18665651.054 9 -14521412.57947  21471464.185    21471472.2814
  24152955.996    -3571583.198 7  -2762956.68445  24152957.849    24152967.6294
 00  7 30  2 19 30.0000000  0  7 20 25 22 03 06 01 19
  22910126.989   -10352584.581 8  -8043687.77546  22910132.971    22910142.1634
  21964793.113   -16471996.431 8 -12811826.50147  21964797.228    21964805.3964
  19852554.433   -25541566.278 9 -19880850.90948  19852554.570    19852561.7504
  22832533.571   -11861895.542 8  -8990353.86546  22832532.438    22832541.5354
  24703941.147    -3027908.799 7  -2346892.04945  24703951.788    24703961.1154
  21459128.699   -18730460.543 9 -14571913.41647  21459130.894    21459139.9254
  24137319.924    -3653779.837 8  -2827005.91745  24137316.829    24137326.3564
 00  7 30  2 20  0.0000000  0  7 20 25 22 03 06 01 19
  22923081.194   -10284528.169 8  -7990656.84546  22923084.292    22923093.3544
  21974939.005   -16418670.668 8 -12770274.01347  21974944.665    21974953.0084
  19855355.936   -25526829.733 9 -19869367.87448  19855358.686    19855365.9904
  22814173.199   -11958353.566 8  -9065515.84646  22814177.529    22814186.1764
  24716642.469    -2961193.937 7  -2294906.32545  24716648.442    24716656.6874
  21446865.687   -18794902.944 9 -14622128.23847  21446868.503    21446876.4504
  24121673.677    -3735965.990 8  -2891046.98845  24121677.748    24121686.6264
 00  7 30  2 20 30.0000000  0  7 20 25 22 03 06 01 19
  22936097.940   -10216117.291 8  -7937349.72546  22936102.729    22936111.4114
  21985127.408   -16365152.782 8 -12728571.82747  21985129.991    21985137.2794
  19858256.622   -25511594.361 9 -19857496.13248  19858257.841    19858265.1214
  22795858.757   -12054603.231 8  -9140515.52346  22795861.536    22795870.8354
  24729414.857    -2894087.584 7  -2242615.56445  24729417.267    24729425.2714
  21434672.297   -18858976.158 9 -14672055.37147  21434675.566    21434683.6434
  24106033.240    -3818141.104 7  -2955079.46245  24106039.900    24106047.9864
 00  7 30  2 21  0.0000000  0  7 20 25 22 03 06 01 19
  22949185.357   -10147354.940 8  -7883768.72546  22949188.073    22949197.0144
  21995344.699   -16311442.781 8 -12686719.90747  21995349.701    21995357.9004
  19861249.024   -25495861.742 9 -19845236.93148  19861251.847    19861259.1684
  22777578.780   -12150641.801 8  -9215350.72046  22777585.223    22777595.9684
  24742256.387    -2826591.587 7  -2190021.18145  24742259.632    24742269.8904
  21422551.295   -18922677.711 9 -14721692.88247  21422553.583    21422561.7674
  24090402.197    -3900304.731 7  -3019102.97045  24090403.923    24090414.6994
 00  7 30  2 21 30.0000000  0  7 20 25 22 03 06 01 19
  22962336.517   -10078243.855 8  -7829915.97446  22962338.682    22962348.3324
  22005603.420   -16257540.650 8 -12644718.27447  22005607.471    22005615.0224
  19864337.766   -25479633.707 9 -19832591.69248  19864339.808    19864347.0084
  22759349.187   -12246466.047 8  -9290018.83946  22759350.458    22759360.7594
  24755169.663    -2758708.095 7  -2137124.84945  24755179.166    24755187.4044
  21410499.217   -18986005.145 9 -14771038.88847  21410502.490    21410511.0134
  24074761.912    -3982456.212 7  -3083117.02345  24074771.731    24074782.9354
 00  7 30  2 22  0.0000000  0  7 20 25 22 03 06 01 19
  22975556.096   -10008787.169 8  -7775793.93546  22975556.733    22975565.0254
  22015898.199   -16203446.268 8 -12602566.81947  22015901.578    22015908.8914
  19867520.561   -25462911.793 9 -19819561.60948  19867521.844    19867529.0354
  22741155.655   -12342072.793 8  -9364517.49146  22741157.122    22741167.1204
  24768164.979    -2690439.120 7  -2083928.19345  24768169.234    24768178.8914
  21398522.676   -19048956.370 9 -14820091.73647  21398523.366    21398531.2064
  24059143.428    -4064595.422 7  -3147121.46645  24059140.130    24059152.0144
 00  7 30  2 22 30.0000000  0  7 20 25 22 03 06 01 19
  22988835.587    -9938987.888 8  -7721404.93046  22988838.975    22988847.4344
  22026228.416   -16149159.892 8 -12560265.77547  22026231.798    22026239.5204
  19870795.356   -25445697.069 9 -19806147.52348  19870797.441    19870805.0544
  22722998.608   -12437459.362 8  -9438844.57946  22723005.242    22723014.8934
  24781231.182    -2621786.738 7  -2030432.77145  24781234.118    24781242.0784
  21386613.010   -19111528.929 9 -14868849.52747  21386615.826    21386624.2474
  24043512.074    -4146721.944 7  -3211116.04645  24043511.911    24043523.4274
 00  7 30  2 23  0.0000000  0  7 20 25 22 03 06 01 19
  23002184.044    -9868848.896 8  -7666751.19046  23002185.647    23002194.5504
  22036595.458   -16094681.290 8 -12517814.93947  22036598.501    22036606.0124
  19874165.816   -25427990.839 9 -19792350.44948  19874166.928    19874174.4884
  22704892.714   -12532622.595 8  -9512997.57046  22704896.198    22704906.0544
  24794371.810    -2552752.800 7  -1976640.01245  24794369.673    24794379.2074
  21374778.797   -19173720.789 9 -14917310.67147  21374781.657    21374789.3054
  24027878.703    -4228835.556 8  -3275100.57145  24027887.609    24027897.5734
 00  7 30  2 23 30.0000000  0  7 20 25 22 03 06 01 19
  23015592.512    -9798373.068 8  -7611834.99146  23015597.581    23015606.1754
  22046999.758   -16040010.230 8 -12475214.13947  22047002.776    22047009.4014
  19877627.171   -25409794.646 9 -19778171.58648  19877629.581    19877636.7844
  22686829.939   -12627559.658 8  -9586974.35946  22686831.140    22686839.7224
  24807573.440    -2483339.414 7  -1922551.55345  24807578.389    24807588.3524
  21363018.068   -19235529.599 9 -14965473.32247  21363019.829    21363027.7524
  24012262.342    -4310935.698 8  -3339074.61845  24012263.173    24012272.6984
 00  7 30  2 24  0.0000000  0  7 20 25 22 03 06 01 19
  23029066.818    -9727563.511 8  -7556658.74246  23029070.857    23029080.3564
  22057438.837   -15985146.995 8 -12432463.62147  22057442.476    22057449.0024
  19881182.590   -25391110.473 9 -19763612.48448  19881184.775    19881192.4874
  22668801.424   -12722267.560 8  -9660772.63346  22668807.773    22668817.0644
  24820858.512    -2413548.612 7  -1868168.98245  24820859.946    24820869.6484
  21351326.456   -19296952.953 9 -15013335.62247  21351331.269    21351339.2264
  23996640.049    -4393021.780 7  -3403037.73745  23996642.609    23996653.1964
 00  7 30  2 24 30.0000000  0  7 20 25 22 03 06 01 19
  23042605.034    -9656423.288 8  -7501224.84346  23042608.253    23042617.9724
  22067914.281   -15930091.101 8 -12389562.94747  22067918.697    22067925.9724
  19884831.218   -25371939.779 9 -19748674.27748  19884833.125    19884840.5444
  22650829.161   -12816743.195 8  -9734389.89246  22650830.412    22650839.3504
  24834213.106    -2343382.490 7  -1813493.99645  24834211.542    24834221.4874
  21339712.743   -19357988.660 9 -15060895.87547  21339716.581    21339724.5964
  23981026.993    -4475093.340 8  -3466989.50745  23981026.031    23981034.5464
 00  7 30  2 25  0.0000000  0  6 20 25 22 03 01 19
  23056208.308    -9584955.398 8  -7445535.61746  23056208.592    23056217.9374
  22078429.933   -15874842.993 8 -12346512.55647  22078432.492    22078440.0434
  19888570.265   -25352283.692 9 -19733357.83548  19888573.444    19888580.9634
  22632895.894   -12910983.591 8  -9807823.86346  22632897.421    22632905.8464
  21328174.222   -19418634.438 9 -15108152.27747  21328175.798    21328183.8444
  23965400.869    -4557149.824 7  -3530929.54245  23965410.866    23965419.7194
 00  7 30  2 25 30.0000000  0  6 20 25 22 03 01 19
  23069870.982    -9513162.959 8  -7389593.49846  23069871.080    23069879.4034
  22088977.350   -15819402.362 8 -12303312.16247  22088982.117    22088989.3564
  19892406.123   -25332143.638 9 -19717664.28248  19892405.983    19892413.4484
  22615004.147   -13004985.880 8  -9881072.32746  22615008.721    22615017.7964
  21316705.525   -19478888.077 9 -15155103.12547  21316709.398    21316717.9304
  23949788.369    -4639191.063 7  -3594857.66045  23949797.757    23949809.0174
 00  7 30  2 26  0.0000000  0  6 20 25 22 03 01 19
  23083590.494    -9441048.909 8  -7333400.76246  23083593.719    23083602.3004
  22099567.904   -15763769.265 8 -12259961.77347  22099569.432    22099575.8854
  19896329.037   -25311521.330 9 -19701594.94348  19896330.642    19896337.6824
  22597163.505   -13098747.076 8  -9954132.91646  22597165.784    22597175.2524
  21305315.352   -19538747.078 9 -15201746.46347  21305318.869    21305326.8014
  23934193.477    -4721216.510 8  -3658773.49945  23934190.209    23934199.5154
 00  7 30  2 26 30.0000000  0  6 20 25 22 03 01 19
  23097376.032    -9368616.359 8  -7276959.85546  23097377.026    23097385.7074
  22110190.486   -15707943.351 8 -12216461.11347  22110192.718    22110199.2684
  19900344.395   -25290418.806 9 -19685151.40748  19900346.268    19900353.5574
  22579370.745   -13192264.201 8 -10027003.25746  22579370.268    22579380.1104
  21294001.019   -19598209.222 9 -15248080.55247  21294003.867    21294011.9924
  23918578.244    -4803225.719 8  -3722676.68145  23918584.806    23918593.2194
 00  7 30  2 27  0.0000000  0  6 20 25 22 03 01 19
  23111215.526    -9295868.238 8  -7220273.05246  23111220.209    23111228.9744
  22120847.459   -15651924.685 8 -12172810.20947  22120852.866    22120859.6174
  19904452.075   -25268837.376 9 -19668334.69648  19904452.921    19904460.1974
  22561619.781   -13285534.332 8 -10099681.18646  22561622.524    22561630.7764
  21282762.223   -19657272.319 9 -15294103.70147  21282764.492    21282772.5434
  23902977.007    -4885218.288 7  -3786566.92745  23902980.711    23902990.5004
 00  7 30  2 27 30.0000000  0  6 20 25 22 03 01 19
  23125121.854    -9222807.715 8  -7163342.79946  23125124.076    23125132.2634
  22131544.207   -15595713.696 8 -12129009.45847  22131549.368    22131556.8804
  19908648.721   -25246778.290 9 -19651145.79148  19908650.614    19908657.9014
  22543920.558   -13378554.619 8 -10172164.45546  22543920.889    22543930.2304
  21271598.840   -19715934.052 9 -15339814.09347  21271601.312    21271609.2304
  23887375.692    -4967193.642 8  -3850443.69245  23887381.448    23887390.6104
 00  7 30  2 28  0.0000000  0  6 20 25 22 03 01 19
  23139081.281    -9149437.859 8  -7106171.50946  23139085.614    23139094.3544
  22142281.405   -15539310.169 8 -12085058.68447  22142282.994    22142289.8634
  19912937.952   -25224243.085 9 -19633585.88348  19912939.050    19912946.0854
  22526266.373   -13471322.081 8 -10244450.71846  22526267.211    22526276.0134
  21260510.235   -19774192.251 9 -15385210.04947  21260515.070    21260523.0244
  23871781.611    -5049150.959 8  -3914306.44245  23871785.099    23871795.9454
 00  7 30  2 28 30.0000000  0  6 20 25 22 03 01 19
  23153101.248    -9075761.724 8  -7048761.58246  23153105.348    23153113.8854
  22153046.138   -15482714.103 8 -12040957.88647  22153052.250    22153060.1754
  19917313.962   -25201233.672 9 -19615656.46248  19917317.434    19917324.8104
  22508662.173   -13563833.736 8 -10316537.62446  22508662.900    22508672.0584
  21249502.826   -19832044.788 9 -15430289.91347  21249505.967    21249513.9294
  23856186.678    -5131089.906 8  -3978154.89345  23856193.539    23856202.8224
 00  7 30  2 29  0.0000000  0  6 20 25 22 03 01 19
  23167182.510    -9001782.275 8  -6991115.28246  23167183.957    23167192.2654
  22163855.538   -15425925.092 8 -11996706.71947  22163858.446    22163866.4424
  19921784.168   -25177752.065 9 -19597359.10048  19921785.581    19921793.0004
  22491105.153   -13656086.632 8 -10388422.89346  22491107.605    22491117.0534
  21238571.779   -19889489.321 9 -15475051.84847  21238574.830    21238582.5044
  23840600.247    -5213009.915 8  -4041988.55045  23840603.075    23840614.1234
 00  7 30  2 29 30.0000000  0  6 20 25 22 03 01 19
  23181319.816    -8927502.809 8  -6933235.22046  23181318.218    23181326.6764
  22174698.080   -15368943.170 8 -11952305.28947  22174702.735    22174709.8304
  19926340.549   -25153799.512 9 -19578694.77148  19926343.663    19926351.0074
  22473601.677   -13748077.671 8 -10460104.17146  22473602.246    22473611.3864
  21227718.829   -19946523.593 9 -15519494.10747  21227721.776    21227729.1074
  23825016.624    -5294910.728 8  -4105807.24645  23825018.932    23825028.4404
 00  7 30  2 30  0.0000000  0  6 20 25 22 03 01 19
  23195509.383    -8852926.257 8  -6875123.65646  23195509.469    23195518.6204
  22185578.413   -15311768.260 8 -11907753.47546  22185582.149    22185589.6244
  19930989.713   -25129377.356 9 -19559664.51448  19930991.255    19930998.3334
  22456143.853   -13839803.770 8 -10531579.02246  22456147.680    22456156.6854
  21216944.107   -20003145.521 9 -15563615.06147  21216947.047    21216954.4264
  23809433.393    -5376791.969 8  -4169610.74045  23809437.041    23809445.4964
 00  7 30  2 30 30.0000000  0  6 20 25 22 03 01 19
  23209750.249    -8778055.678 8  -6816783.00946  23209757.069    23209766.3254
  22196493.568   -15254400.246 8 -11863051.19146  22196499.050    22196506.2434
  19935724.714   -25104487.291 9 -19540269.64648  19935727.490    19935734.6244
  22438740.321   -13931262.213 8 -10602845.26646  22438743.615    22438753.0814
  21206247.594   -20059352.834 9 -15607412.94347  21206250.700    21206258.2744
  23793857.756    -5458652.804 7  -4233398.34645  23793859.646    23793869.0624
 00  7 30  2 31  0.0000000  0  6 20 25 22 03 01 19
  23224061.389    -8702894.248 8  -6758215.74746  23224060.407    23224069.7554
  22207450.574   -15196839.429 8 -11818198.69146  22207452.921    22207459.9964
  19940550.497   -25079131.291 9 -19520511.71848  19940552.786    19940559.9744
  22421380.581   -14022450.196 8 -10673900.75546  22421391.183    22421400.1894
  21195630.933   -20115143.391 9 -15650886.06847  21195634.413    21195642.1444
  23778285.835    -5540493.029 8  -4297169.84645  23778285.574    23778295.2364
 00  7 30  2 31 30.0000000  0  6 20 25 22 03 01 19
  23238416.322    -8627445.086 8  -6699424.24346  23238418.201    23238426.9434
  22218440.110   -15139085.807 8 -11773195.84646  22218443.237    22218450.5624
  19945462.634   -25053311.184 9 -19500392.14248  19945466.228    19945473.4804
  22404092.295   -14113364.557 8 -10744743.00046  22404090.687    22404099.5594
  21185094.722   -20170514.887 9 -15694032.65347  21185097.133    21185104.9924
  23762717.377    -5622311.990 7  -4360924.86045  23762715.916    23762725.6574
 00  7 30  2 32  0.0000000  0  6 20 25 22 03 01 19
  23252830.025    -8551711.274 8  -6640410.93546  23252829.386    23252837.8674
  22229464.680   -15081139.391 8 -11728042.84446  22229469.635    22229477.7204
  19950465.935   -25027028.466 9 -19479912.09848  19950467.373    19950474.8734
  22386841.265   -14204002.293 8 -10815369.71446  22386841.920    22386851.1714
  21174637.128   -20225465.309 9 -15736851.13947  21174640.442    21174648.6134
  23747148.152    -5704108.890 8  -4424662.63045  23747151.435    23747160.6154
 00  7 30  2 32 30.0000000  0  6 20 25 22 03 01 19
  23267296.616    -8475695.869 8  -6581178.20646  23267295.118    23267303.2664
  22240527.905   -15022999.845 8 -11682739.31546  22240533.397    22240541.0394
  19955554.364   -25000284.435 9 -19459072.58848  19955556.599    19955563.9334
  22369636.685   -14294360.721 8 -10885778.77746  22369647.435    22369656.8354
  21164261.824   -20279992.348 9 -15779339.70747  21164264.305    21164272.3924
  23731585.165    -5785883.207 8  -4488382.80945  23731590.684    23731599.5814
 00  7 30  2 33  0.0000000  0  6 20 25 22 03 01 19
  23281809.557    -8399401.870 8  -6521728.38446  23281813.646    23281821.0824
  22251632.704   -14964667.376 8 -11637285.46646  22251633.702    22251641.2594
  19960731.777   -24973080.891 9 -19437875.00248  19960733.115    19960740.6504
  22352505.028   -14384436.637 8 -10955967.68446  22352506.972    22352515.6734
  21153965.129   -20334093.834 9 -15821496.68547  21153968.795    21153977.0424
  23716030.130    -5867634.457 8  -4552085.04345  23716033.338    23716042.6624
 00  7 30  2 33 30.0000000  0  6 20 25 22 03 01 19
  23296379.733    -8322832.709 8  -6462064.15646  23296383.410    23296392.8734
  22262764.842   -14906141.892 8 -11591681.25846  22262770.405    22262777.8994
  19965994.045   -24945419.954 9 -19416321.01648  19965996.925    19966004.5114
  22335414.924   -14474227.310 8 -11025934.37846  22335419.900    22335429.0434
  21143751.580   -20387767.624 9 -15863320.39847  21143755.215    21143762.9694
  23700476.633    -5949362.449 8  -4615769.16145  23700479.911    23700489.6114
 00  7 30  2 34  0.0000000  0  6 20 25 22 03 01 19
  23311002.688    -8245991.496 8  -6402187.93446  23311005.483    23311014.6754
  22273942.210   -14847423.394 8 -11545926.59946  22273944.439    22273951.0884
  19971345.323   -24917303.519 9 -19394412.10648  19971347.424    19971354.8224
  22318381.929   -14563730.015 8 -11095676.68646  22318388.374    22318397.1464
  21133622.012   -20441011.575 9 -15904809.15647  21133623.133    21133630.9664
  23684927.711    -6031066.539 8  -4679434.61245  23684932.692    23684943.2014
 00  7 30  2 34 30.0000000  0  6 20 25 22 03 01 19
  23325672.777    -8168880.998 8  -6342101.88846  23325679.651    23325688.5524
  22285149.030   -14788511.774 8 -11500021.43846  22285154.736    22285162.6634
  19976782.411   -24888732.929 9 -19372149.31348  19976784.197    19976791.6524
  22301409.670   -14652941.536 8 -11165192.06346  22301411.925    22301421.0414
  21123569.925   -20493823.547 9 -15945961.31047  21123573.466    21123581.2974
  23669386.119    -6112745.720 8  -4743080.69145  23669389.027    23669399.5734
 00  7 30  2 35  0.0000000  0  6 20 25 22 03 01 19
  23340398.773    -8091504.541 8  -6281808.61745  23340402.716    23340413.2664
  22296398.363   -14729406.848 8 -11453965.65646  22296401.310    22296410.0484
  19982305.276   -24859709.556 9 -19349533.68948  19982307.229    19982314.4524
  22284486.917   -14741859.110 8 -11234478.36346  22284490.985    22284500.8774
  21113603.883   -20546201.234 9 -15986775.06747  21113606.716    21113614.1934
  23653847.652    -6194399.747 8  -4806707.13845  23653850.835    23653860.9724
 00  7 30  2 35 30.0000000  0  6 20 25 22 03 01 19
  23355178.052    -8013865.383 8  -6221310.65746  23355178.534    23355187.6444
  22307684.490   -14670108.998 8 -11407759.57646  22307685.536    22307694.1194
  19987913.236   -24830235.383 9 -19326566.79348  19987915.783    19987923.3004
  22267626.180   -14830479.977 8 -11303533.45946  22267626.488    22267636.0404
  21103719.597   -20598142.641 9 -16027248.86147  21103722.751    21103730.2124
  23638308.465    -6276027.958 8  -4870313.47645  23638316.781    23638327.2464
 00  7 30  2 36  0.0000000  0  6 20 25 22 03 01 19
  23370000.739    -7935966.707 8  -6160610.43245  23370001.718    23370011.0654
  22319003.129   -14610618.134 8 -11361403.07846  22319006.799    22319014.7864
  19993606.956   -24800312.569 9 -19303250.30848  19993610.009    19993617.4004
  22250818.517   -14918801.162 8 -11372355.06146  22250819.931    22250829.0584
  21093919.561   -20649645.646 9 -16067381.03947  21093922.147    21093929.4334
  23622785.343    -6357629.581 8  -4933899.09145  23622789.634    23622798.8114
 00  7 30  2 36 30.0000000  0  6 20 25 22 03 01 19
  23384875.156    -7857811.390 8  -6099710.23646  23384874.233    23384883.2714
  22330360.514   -14550934.061 8 -11314896.01546  22330364.235    22330371.8754
  19999386.859   -24769942.874 9 -19279585.60348  19999389.223    19999396.3694
  22234065.398   -15006819.738 8 -11440940.87446  22234071.468    22234079.0974
  21084201.236   -20700708.023 9 -16107169.86947  21084204.856    21084212.2684
  23607260.533    -6439204.225 8  -4997463.64745  23607267.307    23607274.9954
 00  7 30  2 37  0.0000000  0  6 20 25 22 03 01 19
  23399787.336    -7779402.661 8  -6038612.54845  23399795.070    23399803.5844
  22341750.964   -14491057.097 8 -11268238.68246  22341758.179    22341767.2604
  20005251.080   -24739127.668 9 -19255573.74948  20005253.071    20005260.3534
  22217378.160   -15094532.580 8 -11509288.44346  22217379.692    22217387.2824
  21074571.421   -20751327.749 9 -16146613.78547  21074572.203    21074579.6764
  23591743.568    -6520751.018 8  -5061006.50845  23591748.043    23591758.3784
 00  7 30  2 37 30.0000000  0  6 20 25 22 03 01 19
  23414762.023    -7700743.640 8  -5977319.88946  23414763.642    23414772.6354
  22353187.464   -14430986.799 8 -11221430.65446  22353189.874    22353197.9044
  20011199.244   -24707868.595 9 -19231216.02548  20011201.750    20011208.9404
  22200746.771   -15181937.011 8 -11577395.71146  22200746.806    22200755.6294
  21065022.841   -20801502.861 9 -16185711.24147  21065024.104    21065031.7904
  23576227.853    -6602269.495 8  -5124527.28745  23576235.400    23576244.7654
 00  7 30  2 38  0.0000000  0  6 20 25 22 03 01 19
  23429774.504    -7621837.721 8  -5915834.80946  23429779.176    23429788.6204
  22364657.497   -14370723.218 8 -11174472.01546  22364658.152    22364665.5004
  20017229.252   -24676167.584 9 -19206513.93148  20017234.210    20017241.3334
  22184165.487   -15269030.323 8 -11645260.57246  22184172.812    22184182.7254
  21055557.404   -20851231.185 9 -16224460.54847  21055560.698    21055569.1914
  23560727.016    -6683759.105 8  -5188025.60445  23560729.112    23560736.9664
 00  7 30  2 38 30.0000000  0  6 20 25 22 03 01 19
  23444844.190    -7542687.866 8  -5854159.67846  23444840.438    23444849.8914
  22376160.668   -14310266.847 8 -11127363.17746  22376162.665    22376170.1044
  20023347.545   -24644026.960 9 -19181469.28248  20023350.543    20023357.3594
  22167658.344   -15355809.452 8 -11712880.60146  22167659.332    22167668.7034
  21046180.272   -20900510.609 9 -16262860.08247  21046183.182    21046191.4834
  23545225.076    -6765219.145 8  -5251500.82745  23545227.687    23545237.3944
 00  7 30  2 39  0.0000000  0  6 20 25 22 03 01 19
  23459948.466    -7463297.171 8  -5792296.84846  23459947.986    23459957.9174
  22387700.480   -14249617.201 8 -11080103.76346  22387703.166    22387711.1034
  20029548.823   -24611448.323 9 -19156083.32848  20029549.800    20029556.7604
  22151200.065   -15442271.733 8 -11780253.70946  22151207.082    22151215.7204
  21036889.408   -20949339.228 9 -16300908.32947  21036891.930    21036899.5044
  23529725.041    -6846649.029 8  -5314952.53945  23529731.940    23529740.6284
 00  7 30  2 39 30.0000000  0  7 20 25 22 31 03 01 19
  23475096.130    -7383668.866 8  -5730248.86945  23475101.272    23475110.6254
  22399277.462   -14188774.416 8 -11032693.88346  22399281.418    22399288.6724
  20035830.025   -24578433.126 9 -19130357.19648  20035832.312    20035839.3014
  24649840.767    -3882338.93417  -2733259.81655  24649853.336    24649863.5964
  22134810.789   -15528414.136 8 -11847377.58146  22134814.792    22134823.4054
  21027683.766   -20997714.745 9 -16338603.50847  21027686.096    21027693.5924
  23514239.921    -6928048.318 8  -5378380.44745  23514241.863    23514251.2514
 00  7 30  2 40  0.0000000  0  7 20 25 22 31 03 01 19
  23490289.720    -7303806.161 8  -5668018.25245  23490298.206    23490306.7224
  22410890.642   -14127738.489 8 -10985133.46046  22410896.443    22410903.7494
  20042194.659   -24544983.125 9 -19104292.24548  20042197.342    20042204.7104
  24627563.888    -3999426.473 7  -2824496.76545  24627570.950    24627582.5464
  22118477.745   -15614233.543 8 -11914249.71146  22118483.213    22118492.1414
  21018564.615   -21045635.271 9 -16375944.14847  21018567.099    21018574.7404
  23498753.723    -7009416.220 8  -5441783.87645  23498758.150    23498767.0154
 00  7 30  2 40 30.0000000  0  7 20 25 22 31 03 01 19
  23505542.136    -7223712.178 8  -5605607.41945  23505539.721    23505548.4184
  22422544.388   -14066509.299 8 -10937422.43046  22422547.119    22422555.3894
  20048643.248   -24511100.296 9 -19077890.03648  20048645.348    20048652.3754
  24605283.441    -4116548.410 7  -2915760.53644  24605283.730    24605293.0134
  22102210.005   -15699727.504 8 -11980868.23946  22102213.740    22102222.6424
  21009530.071   -21093098.725 9 -16412928.62247  21009534.814    21009542.5904
  23483276.631    -7090752.028 8  -5505162.27645  23483280.083    23483289.3484
 00  7 30  2 41  0.0000000  0  7 20 25 22 31 03 01 19
  23520819.498    -7143390.129 8  -5543018.85245  23520824.473    23520834.0074
  22434232.063   -14005086.855 8 -10889560.76346  22434235.502    22434243.4114
  20055174.296   -24476786.872 9 -19051152.29948  20055175.131    20055182.1194
  24582981.820    -4233701.711 7  -3007048.79445  24582991.991    24583001.4974
  22086003.811   -15784893.194 8 -12047231.07346  22086007.755    22086016.2434
  21000586.699   -21140103.098 9 -16449555.38747  21000590.373    21000598.2204
  23467810.710    -7172055.178 8  -5568515.26945  23467807.913    23467817.3304
 00  7 30  2 41 30.0000000  0  7 20 25 22 31 03 01 19
  23536150.004    -7062843.177 8  -5480255.07245  23536152.921    23536161.7214
  22445955.458   -13943471.280 8 -10841548.64646  22445960.849    22445969.0074
  20061785.235   -24442044.583 9 -19024080.38148  20061786.326    20061793.4834
  24560690.167    -4350883.930 7  -3098359.52445  24560690.322    24560701.5434
  22069859.094   -15869727.665 8 -12113335.75946  22069864.288    22069872.6884
  20991731.283   -21186646.392 9 -16485822.86547  20991733.890    20991741.2724
  23452334.723    -7253325.149 8  -5631842.42945  23452342.989    23452352.5494
 00  7 30  2 42  0.0000000  0  7 20 25 22 31 03 01 19
  23551521.347    -6982074.287 8  -5417318.31145  23551522.414    23551531.7944
  22457719.977   -13881662.545 8 -10793386.03346  22457723.285    22457730.9564
  20068477.418   -24406874.823 9 -18996675.37248  20068478.636    20068485.9654
  24538395.210    -4468092.207 7  -3189690.53445  24538386.629    24538396.3944
  22053783.771   -15954228.325 8 -12179180.36546  22053784.514    22053792.5014
  20982962.912   -21232726.549 9 -16521729.45647  20982964.543    20982972.6294
  23436882.391    -7334561.211 8  -5695143.19745  23436883.502    23436894.7804
 00  7 30  2 42 30.0000000  0  7 20 25 22 31 03 01 19
  23566932.730    -6901086.904 8  -5354211.29845  23566933.494    23566943.6374
  22469519.487   -13819660.457 8 -10745072.77546  22469521.858    22469529.2074
  20075248.431   -24371279.519 9 -18968938.76748  20075252.080    20075259.6474
  24516073.390    -4585323.927 7  -3281039.85445  24516079.269    24516089.6154
  22037764.148   -16038392.076 8 -12244762.44446  22037767.991    22037776.1074
  20974281.961   -21278341.497 9 -16557273.54947  20974284.599    20974292.2984
  23421424.945    -7415762.807 8  -5758417.07145  23421431.614    23421442.5014
 00  7 30  2 43  0.0000000  0  7 20 25 22 31 03 01 19
  23582380.387    -6819883.972 8  -5290936.31645  23582386.822    23582395.2424
  22481354.060   -13757465.272 8 -10696609.02446  22481357.758    22481364.8244
  20082105.371   -24335260.739 9 -18940872.19948  20082106.431    20082113.6164
  24493767.462    -4702576.505 7  -3372405.42845  24493766.489    24493776.9644
  22021813.000   -16122216.148 8 -12310079.82246  22021817.121    22021825.0284
  20965690.293   -21323489.370 9 -16592453.67947  20965693.330    20965701.0544
  23405987.252    -7496929.049 8  -5821663.39045  23405986.426    23405997.2214
 00  7 30  2 43 30.0000000  0  7 20 25 22 31 03 01 19
  23597873.018    -6738468.757 8  -5227495.91245  23597878.442    23597888.0054
  22493223.854   -13695076.852 8 -10647994.69846  22493228.917    22493236.7724
  20089039.595   -24298820.771 9 -18912477.43448  20089040.571    20089047.8674
  24471453.574    -4819847.228 8  -3463785.08645  24471449.571    24471460.5724
  22005930.732   -16205697.683 8 -12375130.29546  22005931.489    22005939.4054
  20957187.066   -21368168.161 9 -16627268.29747  20957190.819    20957198.7254
  23390543.321    -7578059.212 8  -5884881.61545  23390547.672    23390558.0624
 00  7 30  2 44  0.0000000  0  7 20 25 22 31 03 01 19
  23613406.824    -6656844.707 8  -5163892.80445  23613411.977    23613421.2414
  22505138.544   -13632495.180 8 -10599229.76146  22505137.534    22505145.3474
  20096052.909   -24261961.053 9 -18883755.58048  20096054.890    20096062.2564
  24449121.309    -4937133.269 8  -3555176.68245  24449132.392    24449141.1714
  21990107.677   -16288833.912 8 -12439911.64646  21990110.500    21990119.0534
  20948774.847   -21412376.038 9 -16661715.97647  20948778.274    20948786.3634
  23375114.964    -7659152.759 8  -5948071.31446  23375117.479    23375125.3694
 00  7 30  2 44 30.0000000  0  7 20 25 22 31 03 01 19
  23628981.875    -6575014.742 8  -5100129.27645  23628982.862    23628992.4914
  22517078.330   -13569720.203 8 -10550314.19746  22517082.801    22517091.7434
  20103147.040   -24224683.220 9 -18854707.92448  20103148.968    20103155.9234
  24426806.371    -5054432.037 8  -3646578.22645  24426810.313    24426820.2764
  21974353.446   -16371622.173 8 -12504421.87146  21974356.210    21974364.6384
  20940451.628   -21456111.098 9 -16695795.23047  20940455.490    20940463.7884
  23359689.952    -7740208.830 8  -6011231.83946  23359692.667    23359701.0994
 00  7 30  2 45  0.0000000  0  7 20 25 22 31 03 01 19
  23644594.217    -6492981.852 8  -5036207.57745  23644593.988    23644603.3204
  22529062.575   -13506752.409 8 -10501248.46746  22529065.646    22529074.0754
  20110320.549   -24186989.101 9 -18825335.86748  20110321.736    20110328.9554
  24404482.709    -5171740.837 8  -3737987.57045  24404486.630    24404496.8084
  21958664.984   -16454059.678 8 -12568658.78746  21958668.893    21958677.6624
  20932219.769   -21499371.148 9 -16729504.33947  20932223.379    20932231.5414
  23344272.450    -7821226.817 8  -6074362.63846  23344274.414    23344284.6494
 00  7 30  2 45 30.0000000  0  7 20 25 22 31 03 01 19
  23660243.695    -6410749.514 8  -4972130.50645  23660241.698    23660251.4894
  22541082.330   -13443591.596 8 -10452032.32846  22541084.879    22541093.4904
  20117570.621   -24148881.109 9 -18795641.33348  20117573.590    20117580.6384
  24382149.429    -5289056.624 7  -3829402.33345  24382161.197    24382172.2374
  21943048.769   -16536143.544 8 -12632620.12546  21943048.683    21943057.4404
  20924078.847   -21542154.459 9 -16762841.96547  20924082.327    20924090.0654
  23328856.539    -7902206.099 8  -6137463.24645  23328864.233    23328874.3674
 00  7 30  2 46  0.0000000  0  7 20 25 22 31 03 01 19
  23675925.383    -6328320.955 8  -4907900.55245  23675927.622    23675936.9674
  22553138.352   -13380237.903 8 -10402665.93946  22553140.427    22553148.8894
  20124900.946   -24110361.282 9 -18765625.89548  20124903.355    20124910.5804
  24359837.454    -5406377.105 7  -3920820.78245  24359834.920    24359847.2694
  21927493.511   -16617870.980 8 -12696303.72947  21927496.869    21927505.0774
  20916030.393   -21584459.198 9 -16795806.67647  20916032.116    20916039.8954
  23313460.239    -7983145.932 8  -6200533.15546  23313463.413    23313471.0894
 00  7 30  2 46 30.0000000  0  7 20 25 22 31 03 01 19
  23691647.100    -6245699.242 8  -4843520.06745  23691650.542    23691659.1664
  22565231.347   -13316690.921 8 -10353148.87546  22565233.733    22565241.4624
  20132309.717   -24071431.108 9 -18735290.69748  20132311.448    20132318.8554
  24337505.956    -5523699.480 7  -4012240.62445  24337510.233    24337521.4044
  21912009.209   -16699239.450 8 -12759707.60247  21912012.837    21912021.0604
  20908071.603   -21626283.490 9 -16828397.01547  20908073.380    20908080.8824
  23298062.736    -8064045.687 8  -6263571.86645  23298066.718    23298076.1264
 00  7 30  2 47  0.0000000  0  7 20 25 22 31 03 01 19
  23707405.233    -6162887.262 8  -4778991.28845  23707408.857    23707416.7014
  22577358.744   -13252950.640 8 -10303481.21646  22577363.049    22577370.5644
  20139795.970   -24032092.267 9 -18704637.05548  20139797.309    20139804.8484
  24315172.332    -5641020.778 7  -4103659.75545  24315184.168    24315195.0154
  21896595.031   -16780246.051 8 -12822829.52647  21896597.251    21896605.5044
  20900201.517   -21667625.375 9 -16860611.44047  20900205.686    20900213.7584
  23282676.175    -8144904.345 8  -6326578.49246  23282679.530    23282689.6944
 00  7 30  2 47 30.0000000  0  7 20 25 22 31 03 01 19
  23723198.698    -6079888.336 8  -4714316.85545  23723203.086    23723211.8764
  22589527.407   -13189017.426 8 -10253663.20346  22589529.494    22589537.2764
  20147357.677   -23992346.785 9 -18673666.57248  20147360.620    20147368.1394
  24292853.219    -5758338.392 7  -4195075.99345  24292859.804    24292871.2704
  21881247.631   -16860888.097 8 -12885667.39547  21881251.217    21881260.0484
  20892426.100   -21708482.784 9 -16892448.35947  20892430.680    20892438.6644
  23267302.949    -8225721.060 8  -6389552.46246  23267303.012    23267311.6194
 00  7 30  2 48  0.0000000  0  7 20 25 22 31 03 01 19
  23739035.081    -5996705.966 8  -4649499.46045  23739032.411    23739040.9684
  22601729.008   -13124890.996 8 -10203694.60746  22601732.034    22601739.5604
  20154998.566   -23952197.006 9 -18642381.04348  20155001.224    20155008.3524
  24270535.861    -5875649.639 8  -4286487.24145  24270536.441    24270547.1644
  21865965.244   -16941162.806 8 -12948219.03747  21865975.688    21865983.6944
  20884744.479   -21748854.087 9 -16923906.48647  20884748.213    20884756.2964
  23251929.611    -8306495.253 8  -6452493.28946  23251931.120    23251938.7364
 00  7 30  2 48 30.0000000  0  7 20 25 22 31 03 01 19
  23754888.993    -5913343.138 8  -4584541.46545  23754894.574    23754904.5034
  22613969.506   -13060571.924 8 -10153575.86446  22613972.033    22613979.2764
  20162715.681   -23911644.905 9 -18610782.01648  20162717.732    20162725.5364
  24248215.807    -5992951.545 7  -4377891.21745  24248214.621    24248225.6274
  21850770.923   -17021067.591 8 -13010482.39447  21850770.731    21850778.1774
  20877156.249   -21788737.288 9 -16954984.28247  20877158.878    20877166.9214
  23236569.107    -8387226.263 8  -6515400.49845  23236567.606    23236576.2004
 00  7 30  2 49  0.0000000  0  7 20 25 22 31 03 01 19
  23770789.299    -5829802.885 8  -4519445.20245  23770792.592    23770802.7774
  22626245.594   -12996060.015 8 -10103306.92246  22626248.065    22626255.9754
  20170510.359   -23870691.955 9 -18578870.64848  20170510.995    20170518.3124
  24225901.671    -6110241.472 7  -4469285.80945  24225895.925    24225905.4634
  21835636.248   -17100599.576 8 -13072455.28247  21835636.175    21835644.1324
  20869660.210   -21828130.685 9 -16985680.42048  20869662.909    20869670.3424
  23221209.935    -8467913.182 8  -6578273.31046  23221214.250    23221222.8504
 00  7 30  2 49 30.0000000  0  7 20 25 22 31 03 01 19
  23786716.849    -5746088.677 8  -4454213.40545  23786723.444    23786732.2964
  22638557.827   -12931354.989 8 -10052887.53946  22638560.260    22638569.8284
  20178377.814   -23829339.895 9 -18546648.26948  20178380.144    20178387.3164
  24203581.223    -6227516.837 7  -4560669.08345  24203577.784    24203588.2734
  21820571.136   -17179756.227 8 -13134135.71947  21820573.287    21820581.4364
  20862255.767   -21867032.383 9 -17015993.40148  20862259.940    20862267.5624
  23205869.377    -8548555.374 8  -6641111.25946  23205869.450    23205877.5384
 00  7 30  2 50  0.0000000  0  7 20 25 22 31 03 01 19
  23802686.237    -5662203.508 8  -4388848.39145  23802686.106    23802695.5144
  22650909.076   -12866457.216 8 -10002317.94146  22650910.417    22650919.1234
  20186323.684   -23787591.008 9 -18514116.67048  20186324.793    20186331.9234
  24181255.940    -6344774.452 7  -4652038.60545  24181265.387    24181274.8204
  21805579.123   -17258534.909 8 -13195521.64347  21805581.896    21805589.9414
  20854949.507   -21905440.652 9 -17045921.89348  20854951.417    20854958.2964
  23190531.015    -8629152.101 8  -6703913.79846  23190531.253    23190538.2244
 00  7 30  2 50 30.0000000  0  7 20 25 22 31 03 01 19
  23818678.313    -5578150.515 8  -4323352.62945  23818680.357    23818689.1644
  22663288.592   -12801366.901 8  -9951598.32146  22663296.465    22663305.0034
  20194342.016   -23745447.473 9 -18481277.56048  20194344.099    20194351.5434
  24158958.343    -6462011.696 8  -4743392.20245  24158956.146    24158965.0084
  21790658.718   -17336932.628 8 -13256610.67347  21790662.833    21790671.6084
  20847732.971   -21943353.795 9 -17075464.57447  20847736.280    20847743.8474
  23175198.305    -8709702.386 8  -6766680.14645  23175202.218    23175209.6524
 00  7 30  2 51  0.0000000  0  7 20 25 22 31 03 01 19
  23834705.918    -5493932.934 8  -4257728.64145  23834706.155    23834715.2524
  22675719.732   -12736083.637 8  -9900728.29446  22675719.632    22675728.4574
  20202436.359   -23702911.223 9 -18448132.45348  20202438.679    20202446.0464
  24136637.983    -6579225.866 7  -4834727.90045  24136648.745    24136659.4434
  21775813.050   -17414946.888 8 -13317400.91347  21775817.960    21775825.4244
  20840612.450   -21980769.913 9 -17104619.96447  20840616.149    20840623.8944
  23159883.672    -8790205.437 8  -6829409.71146  23159883.860    23159892.8384
 00  7 30  2 51 30.0000000  0  7 20 25 22 31 03 01 19
  23850763.130    -5409553.903 8  -4191978.80645  23850763.703    23850773.6584
  22688176.125   -12670607.692 8  -9849708.13746  22688178.908    22688188.0434
  20210605.167   -23659983.700 9 -18414682.43848  20210607.120    20210614.8044
  24114355.885    -6696414.172 7  -4926043.35745  24114349.402    24114360.7134
  21761043.691   -17492575.105 9 -13377890.34047  21761045.276    21761053.2174
  20833588.396   -22017687.343 9 -17133386.75848  20833591.389    20833598.5014
  23144569.058    -8870660.395 8  -6892101.77246  23144573.469    23144583.2044
 00  7 30  2 52  0.0000000  0  7 20 25 22 31 03 01 19
  23866844.157    -5325016.748 8  -4126105.77145  23866851.539    23866860.2724
  22700675.668   -12604938.963 8  -9798537.81146  22700676.525    22700684.3104
  20218848.420   -23616666.938 9 -18380929.13348  20218850.122    20218857.6364
  24092050.455    -6813573.930 7  -5017336.57645  24092055.031    24092065.8034
  21746346.411   -17569814.430 8 -13438076.74147  21746347.130    21746354.6764
  20826657.931   -22054104.204 9 -17161763.50648  20826661.375    20826668.9334
  23129272.172    -8951066.840 8  -6954756.00246  23129271.643    23129281.5514
 00  7 30  2 52 30.0000000  0  7 20 25 22 31 03 01 19
  23882967.483    -5240324.612 8  -4060111.96345  23882966.659    23882975.9944
  22713203.761   -12539078.066 8  -9747217.71446  22713209.320    22713216.9034
  20227164.005   -23572963.078 9 -18346874.19048  20227166.791    20227174.2164
  24069756.455    -6930702.387 7  -5108605.46945  24069766.119    24069776.7824
  21731719.900   -17646662.396 9 -13497958.21347  21731723.361    21731731.1344
  20819823.928   -22090018.624 9 -17189748.74748  20819826.993    20819834.5164
  23113974.515    -9031423.769 8  -7017371.71046  23113981.404    23113989.0934
 00  7 30  2 53  0.0000000  0  7 20 25 22 31 03 01 19
  23899101.363    -5155480.533 8  -3993999.74645  23899110.728    23899122.1164
  22725772.092   -12473024.784 8  -9695747.72646  22725779.462    22725785.5704
  20235555.501   -23528874.360 9 -18312519.36048  20235556.737    20235563.9104
  24047480.211    -7047796.502 8  -5199847.60545  24047483.639    24047493.4204
  21717173.063   -17723116.558 9 -13557532.79347  21717174.879    21717182.1554
  20813086.513   -22125429.167 9 -17217341.36048  20813088.927    20813096.2794
  23098696.121    -9111730.259 8  -7079948.11546  23098699.324    23098708.2794
 00  7 30  2 53 30.0000000  0  7 20 25 22 31 03 01 19
  23915286.651    -5070487.683 8  -3927771.65445  23915284.850    23915295.9474
  22738384.688   -12406778.721 8  -9644127.45146  22738386.178    22738392.7554
  20244018.214   -23484402.698 9 -18277866.12248  20244019.602    20244026.7004
  24025203.659    -7164853.304 8  -5291060.65945  24025208.679    24025218.3114
  21702699.695   -17799174.107 9 -13616798.33147  21702701.348    21702709.2194
  20806442.523   -22160334.097 9 -17244539.98448  20806446.320    20806454.0054
  23083422.685    -9191985.385 8  -7142484.46846  23083425.914    23083436.7394
 00  7 30  2 54  0.0000000  0  7 20 25 22 31 03 01 19
  23931488.394    -4985349.084 8  -3861429.98045  23931487.462    23931496.8274
  22751021.327   -12340340.425 8  -9592357.41346  22751027.478    22751035.6904
  20252553.119   -23439549.534 9 -18242915.60948  20252554.688    20252561.9324
  24002934.814    -7281870.310 7  -5382242.71745  24002941.581    24002950.9374
  21688301.372   -17874832.405 9 -13675752.76447  21688303.906    21688311.7854
  20799895.264   -22194731.630 9 -17271343.23548  20799900.723    20799908.1544
  23068160.470    -9272188.258 8  -7204980.08946  23068164.700    23068173.2494
 00  7 30  2 54 30.0000000  0  7 20 25 22 31 03 01 19
  23947708.223    -4900068.421 8  -3794977.61845  23947715.492    23947724.8994
  22763703.586   -12273709.780 8  -9540437.51846  22763707.417    22763715.5074
  20261159.593   -23394316.837 9 -18207669.34848  20261162.380    20261169.5934
  23980680.724    -7398844.688 8  -5473391.55345  23980681.466    23980691.1144
  21673981.634   -17950088.769 9 -13734394.02747  21673983.068    21673991.7214
  20793449.318   -22228620.111 9 -17297749.81748  20793452.311    20793459.4334
  23052912.284    -9352338.293 8  -7267434.60846  23052912.868    23052920.8394
 00  7 30  2 55  0.0000000  0  7 20 25 22 31 03 01 19
  23963975.567    -4814648.476 8  -3728416.71445  23963970.843    23963981.1334
  22776416.096   -12206887.261 8  -9488368.09646  22776423.010    22776431.3954
  20269840.301   -23348707.005 9 -18172129.21348  20269841.615    20269848.6954
  23958429.769    -7515773.378 7  -5564504.79145  23958429.528    23958440.1294
  21659732.985   -18024940.984 8 -13792720.36447  21659738.835    21659747.2684
  20787097.762   -22261997.874 9 -17323758.43348  20787100.570    20787107.8124
  23037667.462    -9432434.737 8  -7329847.34746  23037670.386    23037679.5364
 00  7 30  2 55 30.0000000  0  7 20 25 22 31 03 01 19
  23980242.840    -4729092.365 8  -3661749.68845  23980251.501    23980261.3114
  22789169.663   -12139872.382 8  -9436148.78546  22789175.039    22789184.1234
  20278590.601   -23302722.242 9 -18136296.93048  20278591.976    20278599.4034
  23936184.766    -7632653.612 8  -5655580.25845  23936189.749    23936199.3824
  21645570.839   -18099385.964 9 -13850729.38847  21645572.441    21645580.0304
  20780844.318   -22294863.299 9 -17349367.81548  20780846.331    20780853.6334
  23022437.185    -9512476.576 8  -7392217.51546  23022439.642    23022447.8444
 00  7 30  2 56  0.0000000  0  7 20 25 22 31 03 01 19
  23996552.868    -4643403.320 8  -3594979.07345  23996558.007    23996567.6134
  22801963.035   -12072665.499 8  -9383779.93446  22801964.941    22801973.2504
  20287410.940   -23256364.149 9 -18100173.74048  20287413.490    20287420.9934
  23913955.914    -7749482.769 8  -5746615.91845  23913956.537    23913967.0474
  21631479.321   -18173421.511 9 -13908419.34847  21631484.010    21631491.5774
  20774685.712   -22327214.795 9 -17374576.74248  20774689.772    20774697.3984
  23007215.390    -9592463.130 8  -7454544.62746  23007219.170    23007227.3634
 00  7 30  2 56 30.0000000  0  7 20 25 22 31 03 01 19
  24012884.886    -4557584.599 8  -3528107.38745  24012887.685    24012898.1794
  22814786.004   -12005266.466 8  -9331261.28346  22814790.594    22814799.2974
  20296303.624   -23209634.539 9 -18063761.06248  20296306.103    20296313.2924
  23891734.928    -7866257.837 8  -5837609.39445  23891735.227    23891745.4404
  21617471.678   -18247044.694 8 -13965788.00547  21617473.527    21617481.2314
  20768629.490   -22359050.769 9 -17399383.94948  20768631.812    20768639.2154
  22992006.863    -9672393.557 8  -7516827.98846  22992007.500    22992015.3914
 00  7 30  2 57  0.0000000  0  7 20 25 22 31 03 01 19
  24029243.838    -4471639.185 8  -3461136.99145  24029242.994    24029253.9014
  22827647.781   -11937675.422 8  -9278592.99946  22827652.946    22827661.3534
  20305267.565   -23162535.360 9 -18027060.39748  20305268.980    20305275.8664
  23869525.335    -7982975.706 7  -5928558.35645  23869526.683    23869534.6664
  21603537.810   -18320253.416 8 -14022833.68247  21603542.662    21603550.4864
  20762668.363   -22390369.541 9 -17423788.13948  20762671.947    20762679.5214
  22976802.511    -9752266.805 8  -7579066.79846  22976807.471    22976816.7934
 00  7 30  2 57 30.0000000  0  7 20 25 22 31 03 01 19
  24045624.684    -4385570.275 8  -3394070.34245  24045621.663    24045631.3674
  22840544.741   -11869892.740 8  -9225775.41046  22840551.859    22840560.3274
  20314298.223   -23115069.012 9 -17990073.63948  20314301.468    20314308.7394
  23847328.019    -8099633.856 8  -6019460.72445  23847324.682    23847335.1824
  21589687.836   -18393044.859 9 -14079554.24047  21589690.962    21589698.2724
  20756806.477   -22421169.648 9 -17447788.18148  20756810.733    20756818.0974
  22961618.169    -9832081.929 8  -7641260.33146  22961619.620    22961629.1924
 00  7 30  2 58  0.0000000  0  7 20 25 22 31 03 01 19
  24062017.171    -4299381.147 8  -3326910.04445  24062023.286    24062032.7974
  22853484.751   -11801918.365 8  -9172808.44746  22853486.812    22853494.5454
  20323401.248   -23067237.567 9 -17952802.38448  20323403.577    20323410.8494
  23825134.109    -8216229.340 8  -6110314.32845  23825138.806    23825148.2504
  21575912.566   -18465416.444 8 -14135947.59847  21575919.133    21575926.8754
  20751045.625   -22451449.687 9 -17471382.97848  20751048.748    20751056.0014
  22946435.164    -9911838.161 8  -7703407.96746  22946442.089    22946451.2524
 00  7 30  2 58 30.0000000  0  7 20 25 22 31 03 01 19
  24078445.545    -4213074.916 8  -3259658.48245  24078446.833    24078456.2134
  22866458.653   -11733752.495 8  -9119692.26346  22866459.520    22866466.9694
  20332572.617   -23019042.696 9 -17915247.94648  20332575.037    20332581.9834
  23802952.474    -8332759.163 7  -6201116.69745  23802963.369    23802974.8454
  21562224.812   -18537365.869 8 -14192012.00647  21562226.746    21562235.2814
  20745384.496   -22481207.964 9 -17494571.20848  20745386.252    20745393.0614
  22931271.819    -9991534.411 8  -7765508.85346  22931276.599    22931283.8174
 00  7 30  2 59  0.0000000  0  7 20 25 22 31 03 01 19
  24094885.397    -4126654.585 7  -3192317.97345  24094891.627    24094901.0174
  22879460.073   -11665395.072 8  -9066426.79846  22879466.330    22879475.0504
  20341815.251   -22970486.187 9 -17877411.70948  20341814.606    20341821.8594
  23780807.012    -8449220.670 8  -6291865.78045  23780801.273    23780812.6054
  21548611.095   -18608890.544 8 -14247745.42247  21548615.925    21548624.9164
  20739819.654   -22510442.997 9 -17517351.71248  20739822.672    20739830.1884
  22916120.977   -10071169.753 8  -7827562.33246  22916122.892    22916130.3844
 00  7 30  2 59 30.0000000  0  7 20 25 22 31 03 01 19
  24111362.113    -4040123.598 8  -3124891.22545  24111358.295    24111368.4934
  22892508.599   -11596846.032 8  -9013012.04246  22892510.376    22892519.4754
  20351120.560   -22921570.001 9 -17839295.20648  20351122.752    20351130.4184
  23758644.350    -8565610.705 7  -6382559.18145  23758652.954    23758663.2554
  21535079.882   -18679988.198 8 -14303146.13047  21535087.271    21535094.6954
  20734355.707   -22539153.236 9 -17539723.28448  20734359.068    20734366.4494
  22900979.256   -10150743.424 8  -7889567.70246  22900980.775    22900989.3124
 00  7 30  3  0  0.0000000  0  7 20 25 22 31 03 01 19
  24127843.906    -3953484.868 8  -3057380.58945  24127846.971    24127855.0074
  22905585.077   -11528105.596 8  -8959448.15746  22905591.644    22905600.8714
  20360495.930   -22872296.639 9 -17800900.38548  20360499.260    20360506.8604
  23736512.135    -8681926.773 7  -6473194.99845  23736518.773    23736528.4374
  21521635.329   -18750656.126 8 -14358212.01547  21521639.434    21521647.1114
  20728992.734   -22567337.139 9 -17561684.73548  20728996.111    20729003.3914
  22885841.124   -10230254.729 8  -7951524.44846  22885850.143    22885859.6924
 00  7 30  3  0 30.0000000  0  7 20 25 22 31 03 01 19
  24144354.525    -3866741.550 8  -2989788.49245  24144352.739    24144361.7694
  22918706.654   -11459174.030 8  -8905735.30946  22918709.090    22918717.8294
  20369941.985   -22822668.180 9 -17762228.89048  20369943.324    20369950.5984
  23714393.204    -8798165.964 8  -6563770.92245  23714398.862    23714409.6424
  21508272.885   -18820892.022 9 -14412941.21947  21508274.302    21508281.5464
  20723731.135   -22594993.299 9 -17583234.95648  20723733.360    20723740.4544
  22870728.474   -10309702.637 8  -8013431.82646  22870731.382    22870740.8924
 00  7 30  3  1  0.0000000  0  7 20 25 22 31 03 01 19
  24160871.369    -3779896.698 8  -2922117.24245  24160877.814    24160887.9224
  22931855.814   -11390051.220 8  -8851873.46646  22931862.684    22931871.2554
  20379452.543   -22772686.255 9 -17723281.94148  20379454.733    20379461.6014
  23692293.757    -8914325.380 7  -6654284.64445  23692293.869    23692304.2394
  21494990.536   -18890693.442 9 -14467331.88347  21494991.341    21494998.6914
  20718567.004   -22622120.153 9 -17604372.73348  20718570.950    20718578.4964
  22855620.547   -10389085.743 8  -8075288.71846  22855624.844    22855632.9254
 00  7 30  3  1 30.0000000  0  7 20 25 22 31 03 01 19
  24177418.725    -3692953.524 8  -2854369.33045  24177423.084    24177432.2424
  22945051.954   -11320737.579 8  -8797862.91646  22945052.475    22945061.4884
  20389032.185   -22722352.484 9 -17684060.83248  20389033.508    20389039.8484
  23670195.211    -9030401.922 7  -6744733.75845  23670205.006    23670215.6134
  21481788.724   -18960057.923 9 -14521382.08147  21481791.800    21481799.7964
  20713506.839   -22648716.454 9 -17625097.10848  20713509.902    20713517.3794
  22840532.328   -10468403.475 8  -8137094.69546  22840531.403    22840539.8434
 00  7 30  3  2  0.0000000  0  7 20 25 22 31 03 01 19
  24193985.758    -3605915.376 8  -2786547.44345  24193985.845    24193995.1134
  22958275.660   -11251233.255 8  -8743703.79246  22958279.077    22958289.0444
  20398676.909   -22671669.159 9 -17644567.34148  20398678.410    20398684.8494
  23648135.175    -9146392.709 8  -6835116.01845  23648132.595    23648142.8714
  21468674.912   -19028982.990 9 -14575089.87047  21468675.391    21468683.3324
  20708548.181   -22674780.540 9 -17645406.76048  20708550.272    20708557.5054
  22825450.644   -10547654.924 8  -8198848.95746  22825450.569    22825458.8964
 00  7 30  3  2 30.0000000  0  7 20 25 22 31 03 01 19
  24210565.687    -3518785.061 8  -2718653.72445  24210565.826    24210576.4064
  22971536.621   -11181538.159 8  -8689395.97946  22971541.746    22971549.5884
  20408387.373   -22620638.778 9 -17604803.41848  20408388.727    20408395.5624
  23626074.206    -9262294.944 8  -6925429.30845  23626078.527    23626087.4924
  21455637.653   -19097466.407 9 -14628453.51947  21455643.372    21455650.9424
  20703689.129   -22700311.196 9 -17665300.75348  20703691.917    20703699.3034
  22810378.070   -10626839.220 8  -8260550.92946  22810382.197    22810390.2274
 00  7 30  3  3  0.0000000  0  7 20 25 22 31 03 01 19
  24227163.672    -3431565.944 8  -2650690.81745  24227163.617    24227172.8494
  22984838.900   -11111652.527 8  -8634939.70246  22984840.632    22984849.4024
  20418161.673   -22569263.123 9 -17564770.46548  20418164.621    20418172.0904
  23604037.948    -9378105.936 8  -7015671.51045  23604040.397    23604049.0664
  21442692.642   -19165505.837 9 -14681471.21747  21442696.312    21442702.6074
  20698932.209   -22725307.087 9 -17684778.06148  20698935.151    20698942.6624
  22795319.155   -10705955.242 8  -8322199.70846  22795326.806    22795334.7864
 00  7 30  3  3 30.0000000  0  7 20 25 22 31 03 01 19
  24243769.280    -3344261.067 8  -2582661.22445  24243775.781    24243786.4434
  22998169.963   -11041576.523 8  -8580335.11046  22998175.341    22998185.2384
  20428003.208   -22517543.799 9 -17524469.70348  20428006.488    20428014.3564
  23582012.978    -9493822.605 7  -7105840.15145  23582017.703    23582028.6644
  21429831.403   -19233098.605 9 -14734140.85247  21429833.522    21429840.6614
  20694276.705   -22749766.760 9 -17703837.53448  20694280.671    20694288.2184
  22780278.715   -10785002.123 8  -8383794.63246  22780284.623    22780292.7694
 00  7 30  3  4  0.0000000  0  7 20 25 22 31 03 01 19
  24260397.678    -3256873.416 7  -2514566.99345  24260405.372    24260415.9534
  23011546.960   -10971310.127 8  -8525582.15546  23011547.696    23011556.1594
  20437913.979   -22465482.755 9 -17483902.65548  20437913.619    20437921.0404
  23560015.053    -9609442.257 8  -7195933.25145  23560016.258    23560027.1564
  21417052.996   -19300242.521 9 -14786460.71847  21417056.549    21417064.0974
  20689724.732   -22773688.858 9 -17722478.11348  20689728.272    20689735.8034
  22765253.816   -10863978.649 8  -8445334.71746  22765255.601    22765265.2924
 00  7 30  3  4 30.0000000  0  7 20 25 22 31 03 01 19
  24277048.020    -3169406.152 8  -2446410.77145  24277050.706    24277060.5404
  23024952.137   -10900853.317 8  -8470680.80346  23024955.430    23024963.3364
  20447881.721   -22413082.251 9 -17443071.08948  20447884.941    20447892.7194
  23538029.165    -9724961.940 8  -7285948.38845  23538033.459    23538044.6074
  21404360.535   -19366935.285 9 -14838429.04147  21404365.083    21404372.7564
  20685275.191   -22797072.063 9 -17740698.78548  20685278.668    20685286.1574
  22750239.352   -10942883.704 8  -8506819.12846  22750240.977    22750248.9694
 00  7 30  3  5  0.0000000  0  7 20 25 22 31 03 01 19
  24293708.938    -3081862.523 8  -2378195.05445  24293709.973    24293720.2164
  23038396.829   -10830206.313 8  -8415631.26546  23038397.582    23038406.7704
  20457920.318   -22360344.581 9 -17401976.80448  20457921.141    20457927.9724
  23516064.140    -9840378.461 8  -7375883.18345  23516070.926    23516081.2734
  21391752.429   -19433174.541 8 -14890044.03447  21391760.041    21391767.9664
  20680930.121   -22819915.068 9 -17758498.52548  20680932.086    20680939.3314
  22735235.498   -11021716.296 8  -8568247.06146  22735239.236    22735247.8384
 00  7 30  3  5 30.0000000  0  7 20 25 22 31 03 01 19
  24310380.947    -2994245.547 8  -2309922.13945  24310383.757    24310392.7634
  23051874.654   -10759369.521 8  -8360433.83246  23051877.929    23051886.4844
  20468017.520   -22307271.651 9 -17360621.28648  20468020.499    20468027.2214
  23494124.505    -9955689.059 8  -7465735.44445  23494127.845    23494138.3224
  21379238.535   -19498957.972 9 -14941303.78647  21379241.884    21379249.6984
  20676685.056   -22842216.598 9 -17775876.33748  20676688.091    20676695.2914
  22720247.634   -11100475.773 8  -8629618.06146  22720251.562    22720260.4094
 00  7 30  3  6  0.0000000  0  7 20 25 22 31 03 01 19
  24327070.158    -2906558.192 8  -2241594.36845  24327068.836    24327079.1584
  23065396.745   -10688343.004 8  -8305088.59246  23065394.692    23065402.4524
  20478181.306   -22253865.036 9 -17319005.73648  20478182.978    20478190.2824
  23472199.962   -10070891.024 8  -7555503.03345  23472205.877    23472215.2524
  21366805.663   -19564283.313 9 -14992206.59947  21366810.739    21366818.7094
  20672545.531   -22863975.657 9 -17792831.45148  20672547.849    20672554.6894
  22705274.282   -11179161.098 8  -8690931.24246  22705277.634    22705286.9014
 00  7 30  3  6 30.0000000  0  7 20 25 22 31 03 01 19
  24343764.961    -2818803.501 8  -2173214.13245  24343768.253    24343778.6654
  23078941.479   -10617127.139 8  -8249595.82446  23078946.028    23078954.9474
  20488408.330   -22200126.602 9 -17277131.62648  20488409.019    20488416.3244
  23450301.913   -10185981.104 8  -7645183.46445  23450304.859    23450313.7864
  21354464.465   -19629147.784 9 -15042750.23847  21354467.741    21354474.7844
  20668508.283   -22885190.775 9 -17809362.70748  20668510.638    20668517.4064
  22690316.136   -11257771.218 8  -8752185.87346  22690320.059    22690327.0514
 00  7 30  3  7  0.0000000  0  7 20 25 22 31 03 01 19
  24360476.518    -2730984.772 7  -2104784.03345  24360478.753    24360489.9724
  23092529.654   -10545721.955 8  -8193955.52446  23092534.786    23092542.4954
  20498695.368   -22146058.796 9 -17235000.86848  20498697.946    20498705.2894
  23428423.824   -10300956.420 8  -7734774.45445  23428425.701    23428436.1504
  21342208.669   -19693549.907 9 -15092933.65847  21342212.173    21342219.7754
  20664574.432   -22905860.427 9 -17825468.93548  20664576.829    20664584.2994
  22675373.973   -11336304.789 8  -8813380.87446  22675375.277    22675382.8254
 00  7 30  3  7 30.0000000  0  7 20 25 22 31 03 01 19
  24377196.265    -2643104.931 8  -2036306.25745  24377202.800    24377212.6064
  23106151.806   -10474127.324 8  -8138167.58246  23106158.615    23106166.4474
  20509047.386   -22091663.885 9 -17192615.22248  20509048.737    20509056.1384
  23406569.385   -10415814.250 8  -7824273.84045  23406569.011    23406579.2354
  21330043.457   -19757487.012 9 -15142754.69547  21330045.364    21330052.6834
  20660742.693   -22925983.666 9 -17841149.38548  20660747.483    20660754.6664
  22660441.743   -11414760.853 8  -8874515.45246  22660445.216    22660453.4074
 00  7 30  3  8  0.0000000  0  7 20 25 22 31 03 01 19
  24393937.674    -2555167.355 8  -1967783.51545  24393937.549    24393946.8674
  23119816.223   -10402343.623 8  -8082232.31446  23119818.645    23119827.0504
  20519459.803   -22036943.569 9 -17149976.01448  20519461.995    20519468.9724
  23384730.490   -10530551.722 8  -7913679.43945  23384734.973    23384744.5494
  21317963.412   -19820957.016 9 -15192211.75847  21317967.576    21317974.9434
  20657019.712   -22945559.365 9 -17856403.18848  20657022.336    20657029.6584
  22645529.908   -11493138.673 8  -8935589.05746  22645530.383    22645538.5414
 00  7 30  3  8 30.0000000  0  7 20 25 22 31 03 01 19
  24410674.395    -2467174.767 8  -1899217.96545  24410681.900    24410690.1784
  23133513.213   -10330370.828 8  -8026149.70546  23133514.450    23133523.3264
  20529931.546   -21981899.475 9 -17107084.51048  20529936.532    20529943.7214
  23362918.184   -10645165.725 8  -8002988.87145  23362924.992    23362933.9954
  21305973.996   -19883957.514 9 -15241303.00247  21305978.756    21305985.9734
  20653399.037   -22964586.179 9 -17871229.28248  20653401.838    20653409.0194
  22630624.884   -11571437.173 8  -8996600.87546  22630630.729    22630638.3284
 00  7 30  3  9  0.0000000  0  7 20 25 22 31 03 01 19
  24427437.731    -2379130.318 8  -1830611.87045  24427436.091    24427445.2424
  23147242.239   -10258209.414 8  -7969920.11246  23147246.610    23147256.1794
  20540470.622   -21926533.683 9 -17063942.33748  20540472.441    20540479.6734
  23341135.336   -10759653.405 8  -8092199.85546  23341138.404    23341148.4344
  21294076.853   -19946486.359 9 -15290026.72347  21294079.375    21294086.8294
  20649882.142   -22983062.961 9 -17885626.78448  20649885.746    20649893.3694
  22615738.987   -11649655.018 8  -9057549.83646  22615746.263    22615755.2524
 00  7 30  3  9 30.0000000  0  7 20 25 22 31 03 01 19
  24444198.366    -2291037.162 7  -1761967.92745  24444199.027    24444209.8754
  23161011.829   -10185859.605 8  -7913543.72646  23161014.229    23161022.5554
  20551067.394   -21870848.644 9 -17020551.40548  20551068.498    20551075.6944
  23319375.080   -10874011.764 8  -8181310.09346  23319376.683    23319385.9564
  21282267.337   -20008541.722 9 -15338381.48847  21282270.860    21282278.1904
  20646471.450   -23000988.556 9 -17899594.78848  20646474.896    20646482.2374
  22600869.179   -11727791.348 8  -9118435.24146  22600876.375    22600886.2104
 00  7 30  3 10  0.0000000  0  7 20 25 22 31 03 01 19
  24460971.946    -2202898.245 8  -1693288.31845  24460970.409    24460981.8294
  23174810.683   -10113321.326 8  -7857020.47546  23174816.829    23174826.9764
  20561722.463   -21814846.341 9 -16976913.26748  20561725.303    20561732.7454
  23297632.533   -10988237.907 8  -8270317.28845  23297639.996    23297649.1064
  21270549.477   -20070121.012 9 -15386365.28447  21270552.683    21270560.2814
  20643166.331   -23018361.997 9 -17913132.54148  20643168.904    20643176.0764
  22586020.810   -11805845.052 8  -9179256.27146  22586024.694    22586032.4844
 00  7 30  3 10 30.0000000  0  7 20 25 22 31 03 01 19
  24477744.316    -2114716.743 7  -1624575.56945  24477752.042    24477761.6284
  23188650.982   -10040594.910 8  -7800350.62646  23188656.722    23188666.3224
  20572441.096   -21758528.451 9 -16933029.20548  20572442.102    20572449.4954
  23275931.158   -11102328.668 8  -8359219.00245  23275928.557    23275938.3244
  21258920.183   -20131222.048 9 -15433976.44947  21258925.478    21258933.1444
  20639965.247   -23035182.156 9 -17926239.16348  20639967.840    20639975.1194
  22571180.635   -11883815.082 8  -9240012.13346  22571186.927    22571194.6004
 00  7 30  3 11  0.0000000  0  7 20 25 22 31 03 01 19
  24494534.654    -2026495.613 8  -1555831.83945  24494539.852    24494551.0524
  23202529.777    -9967680.463 8  -7743534.24546  23202533.058    23202541.9824
  20583217.800   -21701896.821 9 -16888900.65048  20583219.043    20583226.3074
  23254237.274   -11216281.307 8  -8448013.07045  23254243.246    23254252.8204
  21247385.948   -20191842.877 9 -15481213.40647  21247389.548    21247397.2994
  20636869.407   -23051448.058 9 -17938913.89748  20636872.650    20636879.6894
  22556362.515   -11961700.351 8  -9300701.90446  22556365.385    22556374.2794
 00  7 30  3 11 30.0000000  0  7 20 25 22 31 03 01 19
  24511337.573    -1938237.971 8  -1487059.72045  24511336.101    24511345.7284
  23216435.789    -9894578.209 8  -7686571.53946  23216442.646    23216452.4684
  20594050.747   -21644953.421 9 -16844529.16248  20594055.209    20594062.0514
  23232587.882   -11330092.841 8  -8536697.18245  23232585.924    23232595.6724
  21235942.422   -20251981.282 9 -15528074.44447  21235945.587    21235953.4414
  20633879.812   -23067158.576 9 -17951155.85848  20633883.317    20633890.2314
  22541554.664   -12039499.723 8  -9361324.74246  22541560.861    22541568.9724
 00  7 30  3 12  0.0000000  0  7 20 25 22 31 03 01 19
  24528133.107    -1849946.931 8  -1418261.57245  24528136.566    24528145.6664
  23230384.967    -9821288.244 8  -7629462.57246  23230389.719    23230399.1034
  20604948.653   -21587700.650 9 -16799916.62048  20604950.294    20604957.0174
  23210949.228   -11443760.470 8  -8625269.14245  23210955.195    23210965.2774
  21224588.919   -20311635.264 9 -15574558.01147  21224593.751    21224601.7424
  20630996.419   -23082312.685 9 -17962964.25648  20630999.433    20631006.6824
  22526769.077   -12117212.019 8  -9421879.75046  22526773.383    22526780.6854
 00  7 30  3 12 30.0000000  0  7 20 25 22 31 03 01 19
  24544939.195    -1761625.319 8  -1349439.64845  24544943.061    24544953.6454
  23244369.483    -9747810.949 8  -7572207.63046  23244372.441    23244380.9744
  20615902.883   -21530140.733 9 -16755064.74848  20615903.705    20615910.3084
  23189349.099   -11557281.123 8  -8713726.58045  23189353.160    23189363.1734
  21213330.682   -20370802.637 9 -15620662.42247  21213334.496    21213342.0354
  20628218.718   -23096909.284 9 -17974338.22948  20628221.555    20628229.2104
  22511997.144   -12194836.237 8  -9482366.08746  22512000.386    22512009.1244
 00  7 30  3 13  0.0000000  0  7 20 25 22 31 03 01 19
  24561741.992    -1673276.163 7  -1280596.20145  24561754.517    24561764.9054
  23258390.552    -9674146.293 8  -7514806.68146  23258390.700    23258400.0544
  20626913.867   -21472275.135 9 -16709974.68248  20626914.734    20626921.8344
  23167776.718   -11670651.988 8  -8802067.31146  23167779.878    23167789.3434
  21202164.290   -20429481.316 9 -15666386.01047  21202168.310    21202175.4904
  20625546.711   -23110947.376 9 -17985277.00548  20625550.184    20625557.9844
  22497246.312   -12272371.402 8  -9542783.03446  22497246.549    22497255.6574
 00  7 30  3 13 30.0000000  0  7 20 25 22 31 03 01 19
  24578569.856    -1584902.758 8  -1211733.83345  24578572.648    24578581.8684
  23272439.511    -9600294.902 8  -7457260.23146  23272443.705    23272452.2294
  20637979.902   -21414105.591 9 -16664647.80847  20637983.455    20637991.4224
  23146229.925   -11783869.796 8  -8890288.81846  23146235.447    23146243.5494
  21191091.168   -20487669.307 9 -15711727.25547  21191095.532    21191102.5524
  20622983.537   -23124426.085 9 -17995779.89648  20622985.693    20622992.6844
  22482509.741   -12349816.209 8  -9603129.59346  22482510.706    22482518.1364
 00  7 30  3 14  0.0000000  0  7 20 25 22 31 03 01 19
  24595390.967    -1496507.807 8  -1142854.71445  24595393.437    24595403.4654
  23286531.270    -9526257.034 8  -7399568.45146  23286532.930    23286541.4344
  20649107.121   -21355634.315 9 -16619085.79747  20649110.355    20649117.7184
  23124722.368   -11896932.022 8  -8978389.06746  23124718.859    23124728.6294
  21180112.811   -20545364.449 9 -15756684.48247  21180116.507    21180123.7214
  20620524.843   -23137344.532 9 -18005846.21448  20620527.217    20620534.2634
  22467785.251   -12427169.557 8  -9663404.87146  22467789.961    22467797.6684
 00  7 30  3 14 30.0000000  0  7 20 25 22 31 03 01 19
  24612208.408    -1408094.565 8  -1073961.30545  24612219.050    24612227.9524
  23300656.535    -9452032.255 8  -7341731.05546  23300657.439    23300666.2934
  20660293.044   -21296863.614 9 -16573290.46747  20660294.613    20660301.3534
  23103236.981   -12009835.544 8  -9066365.67346  23103233.999    23103243.9384
  21169231.149   -20602564.847 9 -15801256.18847  21169231.594    21169239.0404
  20618171.486   -23149701.795 9 -18015475.24048  20618175.423    20618182.6684
  22453082.351   -12504430.300 8  -9723607.99046  22453087.252    22453094.8124
 00  7 30  3 15  0.0000000  0  7 20 25 22 31 03 01 19
  24629045.818    -1319665.874 8  -1005055.91045  24629045.424    24629055.4704
  23314806.687    -9377621.216 8  -7283748.49846  23314817.055    23314826.7804
  20671531.711   -21237795.501 9 -16527263.37747  20671535.218    20671541.8894
  23081775.877   -12122577.530 8  -9154216.42046  23081781.668    23081789.8004
  21158437.339   -20659268.630 9 -15845440.89447  21158440.790    21158448.5524
  20615928.191   -23161496.786 9 -18024666.13748  20615930.970    20615938.6634
  22438399.816   -12581597.323 8  -9783738.10546  22438404.158    22438411.3944
 00  7 30  3 15 30.0000000  0  7 20 25 22 31 03 01 19
  24645874.555    -1231224.699 8   -936140.76745  24645874.807    24645886.4004
  23329010.340    -9303024.277 8  -7225621.11546  23329012.537    23329022.6584
  20682829.582   -21178431.569 9 -16481005.78548  20682832.149    20682838.4334
  23060349.225   -12235154.909 8  -9241938.97446  23060357.698    23060366.5504
  21147741.787   -20715473.646 9 -15889236.96147  21147745.457    21147753.1554
  20613792.389   -23172728.705 9 -18033418.28248  20613793.918    20613801.3804
  22423733.652   -12658669.263 8  -9843794.12946  22423736.887    22423744.7654
 00  7 30  3 16  0.0000000  0  7 20 25 22 31 03 01 19
  24662702.741    -1142774.101 8   -867218.18645  24662707.136    24662717.0554
  23343238.775    -9228241.591 8  -7167348.98946  23343242.927    23343252.1444
  20694183.125   -21118773.545 9 -16434519.03248  20694184.396    20694191.2324
  23038964.330   -12347564.855 8  -9329531.02446  23038967.062    23038975.4444
  21137144.566   -20771177.817 9 -15932642.76447  21137145.663    21137152.7114
  20611762.240   -23183396.595 9 -18041730.91348  20611763.609    20611770.9694
  22409085.089   -12735645.249 8  -9903775.34546  22409088.333    22409096.7704
 00  7 30  3 16 30.0000000  0  7 20 25 22 31 03 01 19
  24679535.890    -1054317.158 8   -798290.72145  24679540.402    24679549.6024
  23357508.366    -9153273.280 8  -7108932.21246  23357509.390    23357519.1254
  20705589.705   -21058823.760 9 -16387804.95547  20705591.822    20705599.5674
  23017610.759   -12459804.438 8  -9416990.36746  23017608.011    23017616.5474
  21126635.777   -20826379.354 9 -15975656.90947  21126641.330    21126648.2154
  20609837.889   -23193499.672 9 -18049603.42748  20609840.935    20609848.3734
  22394458.235   -12812523.780 8  -9963680.64046  22394459.670    22394467.2074
 00  7 30  3 17  0.0000000  0  7 20 25 22 31 03 01 19
  24696377.778     -965856.675 8   -729360.48045  24696373.608    24696382.7824
  23371807.239    -9078119.505 8  -7050370.91346  23371810.377    23371820.9994
  20717051.475   -20998584.458 9 -16340865.27347  20717055.049    20717062.5884
  22996286.023   -12571870.185 8  -9504314.22746  22996282.743    22996292.1594
  21116227.723   -20881076.368 9 -16018277.91047  21116232.521    21116240.0524
  20608021.935   -23203037.090 9 -18057035.17048  20608026.041    20608033.6564
  22379845.585   -12889303.816 8 -10023509.20746  22379848.879    22379855.9994
 00  7 30  3 17 30.0000000  0  6 25 22 31 03 01 19
  23386144.148    -9002780.772 8  -6991665.51646  23386148.142    23386157.6364
  20728571.472   -20938057.472 9 -16293701.39147  20728573.135    20728580.4274
  22974984.716   -12683759.567 8  -9591500.61846  22974991.276    22974999.5504
  21105918.080   -20935266.995 9 -16060504.38447  21105920.408    21105927.9574
  20606315.387   -23212008.187 9 -18064025.62448  20606318.977    20606326.5944
  22365254.192   -12965984.182 8 -10083260.09246  22365256.285    22365264.5004
 00  7 30  3 18  0.0000000  0  6 25 22 31 03 01 19
  23400514.474    -8927257.292 8  -6932816.17346  23400519.176    23400528.3234
  20740145.722   -20877244.297 9 -16246314.50047  20740146.092    20740152.7424
  22953724.967   -12795469.577 8  -9678547.30446  22953733.344    22953741.8864
  21095702.178   -20988949.078 9 -16102334.51347  21095705.030    21095712.5344
  20604717.036   -23220412.095 9 -18070574.11348  20604719.681    20604727.1594
  22350675.071   -13042563.820 8 -10142932.46546  22350683.758    22350692.4414
 00  7 30  3 18 30.0000000  0  6 25 22 31 03 01 19
  23414922.295    -8851549.433 8  -6873823.15846  23414925.906    23414935.3104
  20751769.208   -20816147.001 9 -16198706.22047  20751772.049    20751779.3414
  22932507.402   -12906997.362 8  -9765451.94646  22932509.567    22932518.5104
  21085583.527   -21042120.951 9 -16143767.10147  21085586.964    21085594.3154
  20603225.428   -23228248.064 9 -18076680.05048  20603228.842    20603236.1204
  22336131.068   -13119041.535 8 -10202525.43346  22336130.747    22336137.8424
 00  7 30  3 19  0.0000000  0  6 25 22 31 03 01 19
  23429364.562    -8775657.464 8  -6814686.69746  23429368.380    23429376.4904
  20763448.956   -20754767.615 9 -16150878.12047  20763452.164    20763459.2194
  22911326.624   -13018340.064 8  -9852212.41046  22911322.753    22911331.0024
  21075562.747   -21094780.707 9 -16184800.65847  21075566.034    21075573.2824
  20601843.596   -23235515.258 9 -18082342.77848  20601845.824    20601853.0084
  22321592.464   -13195416.045 8 -10262037.99346  22321596.225    22321604.2994
 00  7 30  3 19 30.0000000  0  6 25 22 31 03 01 19
  23443841.194    -8699581.371 8  -6755406.69246  23443844.882    23443854.8914
  20775181.345   -20693108.617 9 -16102832.15247  20775184.513    20775192.7424
  22890162.284   -13129494.625 8  -9938826.26846  22890169.991    22890178.8934
  21065640.371   -21146926.131 9 -16225433.40947  21065642.895    21065650.4954
  20600568.951   -23242213.124 9 -18087561.88348  20600571.185    20600578.7154
  22307080.513   -13271685.999 8 -10321469.07246  22307083.179    22307091.4594
 00  7 30  3 20  0.0000000  0  6 25 22 31 03 01 19
  23458349.751    -8623321.356 8  -6695983.44546  23458355.931    23458367.5364
  20786968.524   -20631171.604 9 -16054569.54347  20786971.208    20786979.0934
  22869049.612   -13240457.882 8 -10025291.04946  22869054.401    22869062.7104
  21055813.473   -21198556.072 9 -16265664.48247  21055817.837    21055825.4654
  20599402.781   -23248340.959 9 -18092336.80248  20599405.069    20599412.4534
  22292586.931   -13347850.208 8 -10380817.75946  22292590.128    22292597.7324
 00  7 30  3 20 30.0000000  0  6 25 22 31 03 01 19
  23472899.056    -8546877.898 8  -6636417.26946  23472902.964    23472913.2604
  20798808.268   -20568957.986 9 -16006091.37747  20798810.505    20798818.1324
  22847972.018   -13351226.976 8 -10111604.54646  22847975.203    22847984.2004
  21046088.457   -21249668.349 9 -16305492.19847  21046091.623    21046098.9094
  20598344.447   -23253897.986 9 -18096666.93348  20598347.367    20598354.9454
  22278118.691   -13423907.433 8 -10440083.06146  22278116.132    22278124.2894
 00  7 30  3 21  0.0000000  0  6 25 22 31 03 01 19
  23487484.541    -8470251.432 8  -6576708.43845  23487485.065    23487493.4854
  20810700.857   -20506470.039 9 -15957399.48247  20810702.213    20810709.1454
  22826934.623   -13461798.833 8 -10197764.35246  22826933.640    22826943.6354
  21036459.151   -21300261.369 9 -16344915.30747  21036464.220    21036471.3194
  20597394.696   -23258883.780 9 -18100551.94648  20597398.854    20597406.5124
  22263662.883   -13499856.396 8 -10499264.05346  22263664.014    22263671.0184
 00  7 30  3 21 30.0000000  0  6 25 22 31 03 01 19
  23502093.031    -8393442.498 8  -6516857.42945  23502101.761    23502110.7624
  20822642.560   -20443709.955 9 -15908495.52847  20822644.823    20822651.9364
  22805923.684   -13572170.673 8 -10283768.28346  22805930.248    22805939.9774
  21026935.006   -21350333.106 9 -16383932.10747  21026935.847    21026942.7794
  20596555.132   -23263297.729 9 -18103991.37248  20596558.878    20596566.4674
  22249229.614   -13575695.762 8 -10558359.62146  22249231.249    22249239.8484
 00  7 30  3 22  0.0000000  0  6 25 22 31 03 01 19
  23516750.399    -8316451.001 8  -6456864.21845  23516751.894    23516763.3674
  20834637.475   -20380679.826 9 -15859381.13647  20834638.882    20834645.8724
  22784960.023   -13682339.600 8 -10369614.09546  22784966.135    22784975.2364
  21017503.571   -21399881.995 9 -16422541.57147  21017506.829    21017513.6274
  20595823.460   -23267139.259 9 -18106984.75648  20595827.693    20595835.1544
  22234817.290   -13651424.557 8 -10617369.00146  22234820.988    22234829.4074
 00  7 30  3 22 30.0000000  0  6 25 22 31 03 01 19
  23531434.455    -8239277.083 8  -6396728.86145  23531438.416    23531448.7724
  20846682.131   -20317381.189 9 -15810057.51047  20846683.748    20846691.0034
  22764032.183   -13792302.450 8 -10455299.32246  22764041.190    22764049.6934
  21008173.707   -21448906.236 9 -16460742.24047  21008177.830    21008184.3544
  20595202.676   -23270407.613 9 -18109531.50848  20595205.801    20595213.1214
  22220430.805   -13727041.467 8 -10676291.21146  22220432.362    22220439.6474
 00  7 30  3 23  0.0000000  0  6 25 22 31 03 01 19
  23546157.258    -8161920.895 8  -6336451.41645  23546158.755    23546168.6814
  20858778.660   -20253815.780 9 -15760526.03547  20858779.870    20858787.2514
  22743150.057   -13902056.383 8 -10540821.77746  22743155.662    22743163.5384
  20998947.067   -21497404.249 9 -16498532.82947  20998948.780    20998955.4854
  20594691.973   -23273102.196 9 -18111631.16348  20594693.227    20594700.5644
  22206062.880   -13802545.205 8 -10735125.23246  22206064.659    22206071.6634
 00  7 30  3 23 30.0000000  0  6 25 22 31 03 01 19
  23560913.908    -8084383.318 8  -6276032.62045  23560913.674    23560922.7704
  20870926.837   -20189985.604 9 -15710788.27047  20870927.080    20870933.9284
  22722312.793   -14011598.361 8 -10626179.06846  22722310.725    22722319.3344
  20989817.433   -21545374.361 9 -16535912.10947  20989820.242    20989827.4424
  20594287.085   -23275222.600 9 -18113283.41048  20594289.624    20594297.1304
  22191715.306   -13877934.322 8 -10793869.92046  22191717.777    22191725.2354
 00  7 30  3 24  0.0000000  0  6 25 22 31 03 01 19
  23575702.667    -8006664.360 8  -6215472.53545  23575704.104    23575713.5204
  20883122.372   -20125892.942 9 -15660845.95247  20883123.312    20883130.1974
  22701500.390   -14120925.355 8 -10711368.81146  22701506.544    22701514.8744
  20980791.646   -21592814.850 9 -16572878.72547  20980792.696    20980799.6214
  20593991.497   -23276768.304 9 -18114487.83948  20593995.488    20594002.9204
  22177389.528   -13953207.782 8 -10852524.50246  22177393.918    22177401.4514
 00  7 30  3 24 30.0000000  0  6 25 22 31 03 01 19
  23590525.935    -7928764.279 8  -6154771.34146  23590527.372    23590538.4964
  20895367.840   -20061539.898 9 -15610700.78147  20895369.600    20895376.7774
  22680741.267   -14230034.346 8 -10796388.70546  22680743.073    22680751.6964
  20971862.859   -21639724.186 9 -16609431.43047  20971865.972    20971873.5514
  20593807.340   -23277738.804 9 -18115244.06048  20593810.912    20593818.1154
  22163090.430   -14028364.066 8 -10911087.77146  22163091.609    22163099.4134
 00  7 30  3 25  0.0000000  0  6 25 22 31 03 01 19
  23605384.927    -7850683.443 8  -6093929.22945  23605386.168    23605395.4764
  20907661.933   -19996927.813 9 -15560353.75847  20907664.522    20907671.2004
  22660022.981   -14338922.584 8 -10881236.57646  22660022.396    22660030.8624
  20963035.791   -21686100.530 9 -16645568.81947  20963040.713    20963048.3574
  20593732.471   -23278133.569 9 -18115551.65848  20593735.762    20593743.0314
  22148810.165   -14103401.919 8 -10969558.75546  22148811.964    22148820.4034
 00  7 30  3 25 30.0000000  0  6 25 22 31 03 01 19
  23620276.086    -7772422.185 8  -6032946.52045  23620278.912    23620287.5184
  20920005.858   -19932058.455 9 -15509806.20447  20920007.873    20920015.6664
  22639337.670   -14447587.109 8 -10965910.15446  22639344.664    22639352.9604
  20954315.494   -21731942.454 9 -16681289.76047  20954317.698    20954325.3174
  20593765.663   -23277952.133 9 -18115410.26048  20593769.996    20593777.5074
  22134551.129   -14178320.143 8 -11027936.53446  22134556.218    22134564.0464
 00  7 30  3 26  0.0000000  0  6 25 22 31 03 01 19
  23635200.689    -7693981.206 8  -5971823.82345  23635205.757    23635215.4164
  20932398.482   -19866933.755 9 -15459059.71247  20932401.114    20932408.2954
  22618707.303   -14556025.159 8 -11050407.25746  22618708.974    22618717.8564
  20945693.520   -21777248.579 9 -16716593.21347  20945696.576    20945703.5834
  20593909.966   -23277194.302 9 -18114819.73248  20593914.027    20593921.5554
  22120321.075   -14253117.303 8 -11086219.97346  22120322.758    22120330.4654
 00  7 30  3 26 30.0000000  0  6 25 22 31 03 01 19
  23650167.667    -7615360.540 8  -5910561.08945  23650165.878    23650176.4164
  20944840.484   -19801556.187 9 -15408116.11247  20944842.199    20944849.3034
  22598120.058   -14664233.470 8 -11134725.34646  22598118.169    22598125.4594
  20937174.235   -21822016.966 9 -16751477.66347  20937177.156    20937184.3864
  20594166.014   -23275859.679 9 -18113779.76048  20594168.035    20594175.3414
  22106111.511   -14327792.161 8 -11144408.08946  22106111.745    22106120.7364
 00  7 30  3 27  0.0000000  0  6 25 22 31 03 01 19
  23665153.636    -7536560.635 8  -5849158.69445  23665162.292    23665170.1034
  20957326.169   -19735927.609 9 -15356976.98247  20957331.078    20957338.1534
  22577570.911   -14772209.070 8 -11218862.17246  22577570.595    22577578.9824
  20928757.470   -21866246.025 9 -16785941.85847  20928760.299    20928767.9664
  20594527.786   -23273947.977 9 -18112290.10448  20594532.177    20594539.1064
  22091923.082   -14402343.186 8 -11202499.72146  22091926.126    22091934.2164
 00  7 30  3 27 30.0000000  0  6 25 22 31 03 01 19
  23680187.605    -7457581.662 8  -5787616.74045  23680190.161    23680199.5014
  20969865.948   -19670049.528 9 -15305643.40147  20969867.579    20969874.5144
  22557064.921   -14879949.030 8 -11302815.31846  22557068.213    22557077.2304
  20920441.416   -21909934.317 9 -16819984.63047  20920446.412    20920454.0904
  20595003.671   -23271458.771 9 -18110350.44648  20595006.006    20595012.8234
  22077759.485   -14476769.172 8 -11260493.94846  22077762.821    22077770.7374
 00  7 30  3 28  0.0000000  0  6 25 22 31 03 01 19
  23695251.560    -7378424.145 8  -5725935.66245  23695254.590    23695264.2544
  20982449.081   -19603923.432 9 -15254116.56947  20982450.384    20982458.2194
  22536609.483   -14987450.624 8 -11386582.71246  22536611.545    22536619.4174
  20912232.180   -21953080.533 9 -16853605.01647  20912236.308    20912243.7014
  20595587.476   -23268391.617 9 -18107960.44948  20595589.560    20595596.8154
  22063620.064   -14551068.813 8 -11318389.70846  22063623.268    22063631.4134
 00  7 30  3 28 30.0000000  0  6 25 22 31 03 01 19
  23710347.854    -7299088.402 8  -5664115.75845  23710350.737    23710361.3184
  20995077.639   -19537551.654 9 -15202398.30747  20995080.327    20995087.8674
  22516198.427   -15094710.448 8 -11470161.70046  22516200.897    22516209.2184
  20904124.112   -21995683.140 9 -16886801.84347  20904129.468    20904136.3864
  20596279.924   -23264746.354 9 -18105119.97548  20596283.216    20596290.4774
  22049508.910   -14625240.753 8 -11376185.98246  22049508.596    22049517.7314
 00  7 30  3 29  0.0000000  0  6 25 22 31 03 01 19
  23725472.333    -7219575.022 8  -5602157.43345  23725483.272    23725492.1954
  21007754.647   -19470936.396 9 -15150490.31247  21007757.092    21007764.2084
  22495835.108   -15201725.861 8 -11553550.22146  22495836.672    22495844.3274
  20896121.587   -22037740.613 9 -16919573.87247  20896125.936    20896133.1954
  20597084.399   -23260522.725 9 -18101828.82848  20597086.973    20597094.1024
  22035415.447   -14699283.543 8 -11433881.58146  22035419.392    22035428.5254
 00  7 30  3 29 30.0000000  0  6 25 22 31 03 01 19
  23740651.100    -7139884.478 8  -5540060.99545  23740648.536    23740657.4144
  21020476.549   -19404079.343 9 -15098393.91047  21020479.488    21020486.7814
  22475515.881   -15308494.259 8 -11636746.28146  22475518.636    22475527.1454
  20888222.307   -22079251.650 9 -16951920.12047  20888226.282    20888233.8454
  20597998.785   -23255720.212 9 -18098086.60248  20598000.829    20598007.8504
  22021352.108   -14773196.097 8 -11491475.70247  22021354.449    22021362.3804
 00  7 30  3 30  0.0000000  0  6 25 22 31 03 01 19
  23755842.133    -7060016.626 8  -5477826.43745  23755846.043    23755856.7584
  21033247.507   -19336982.041 9 -15046110.31847  21033248.035    21033254.5964
  22455246.133   -15415012.497 8 -11719747.43346  22455249.345    22455256.9394
  20880425.940   -22120214.769 9 -16983839.39647  20880431.563    20880438.7284
  20599020.340   -23250338.726 9 -18093893.21848  20599024.734    20599031.9834
  22007306.390   -14846976.871 8 -11548967.14546  22007313.487    22007321.8494
 00  7 30  3 30 30.0000000  0  6 25 22 31 03 01 19
  23771072.520    -6979972.088 8  -5415454.23245  23771078.907    23771088.4794
  21046057.932   -19269646.205 9 -14993640.84047  21046061.692    21046068.4204
  22435028.982   -15521277.581 8 -11802551.37246  22435027.777    22435035.4044
  20872738.119   -22160628.876 9 -17015330.89247  20872741.410    20872748.1074
  20600156.987   -23244378.212 9 -18089248.65448  20600159.160    20600166.4314
  21993298.255   -14920624.292 8 -11606354.71147  21993300.369    21993307.6024
 00  7 30  3 31  0.0000000  0  6 25 22 31 03 01 19
  23786339.218    -6899751.315 8  -5352944.64245  23786344.091    23786352.8194
  21058918.425   -19202074.060 9 -14940987.24747  21058920.333    21058927.3504
  22414852.747   -15627286.445 8 -11885155.61946  22414854.779    22414861.8104
  20865152.859   -22200492.613 9 -17046393.54447  20865155.470    20865162.3844
  20601401.658   -23237838.466 9 -18084152.74448  20601403.734    20601410.9644
  21979308.513   -14994137.083 8 -11663637.35547  21979310.877    21979318.7144
 00  7 30  3 31 30.0000000  0  6 25 22 31 03 01 19
  23801636.637    -6819354.633 8  -5290297.97245  23801642.685    23801652.1264
  21071822.398   -19134267.570 9 -14888151.04447  21071823.122    21071830.3284
  22394730.244   -15733036.351 8 -11967558.09846  22394731.169    22394738.8924
  20857671.589   -22239804.249 9 -17077025.97747  20857674.530    20857681.9324
  20602755.040   -23230719.238 9 -18078605.28248  20602758.318    20602765.4304
  21965343.714   -15067513.902 8 -11720814.01747  21965347.220    21965355.1304
 00  7 30  3 32  0.0000000  0  6 25 22 31 03 01 19
  23816962.473    -6738782.433 8  -5227514.61445  23816973.897    23816985.8414
  21084767.996   -19066228.601 9 -14835133.70447  21084770.784    21084777.6544
  22374657.049   -15838524.133 8 -12049756.32446  22374657.200    22374665.0694
  20850295.444   -22278562.497 9 -17107227.21047  20850299.149    20850306.1654
  20604221.808   -23223020.444 9 -18072606.21248  20604223.448    20604230.7144
  21951405.552   -15140753.386 8 -11777883.68647  21951410.110    21951418.1034
 00  7 30  3 32 30.0000000  0  6 25 22 31 03 01 19
  23832338.980    -6658035.081 8  -5164594.77445  23832341.896    23832351.3594
  21097761.375   -18997958.378 9 -14781936.12247  21097761.849    21097769.0384
  22354630.842   -15943746.955 8 -12131748.07146  22354634.062    22354643.0354
  20843026.233   -22316766.079 9 -17136996.20947  20843029.014    20843036.3304
  20605796.169   -23214741.898 9 -18066155.39448  20605798.904    20605806.0204
  21937496.758   -15213853.914 8 -11834845.08047  21937499.791    21937507.2554
 00  7 30  3 33  0.0000000  0  7 25 22 31 03 27 01 19
  23847743.381    -6577112.970 8  -5101538.70345  23847741.286    23847749.7814
  21110793.696   -18929458.907 9 -14728559.97447  21110797.361    21110804.1174
  22334657.158   -16048701.865 8 -12213531.02646  22334661.776    22334669.7544
  20835860.926   -22354413.525 9 -17166331.86247  20835865.251    20835872.0154
  24990070.791     -257107.34217   -188970.43854                  24990082.3564
  20607482.617   -23205883.630 9 -18059252.83448  20607484.467    20607491.5094
  21923611.446   -15286814.276 8 -11891697.27447  21923615.847    21923623.5424
 00  7 30  3 33 30.0000000  0  7 25 22 31 03 27 01 19
  23863159.505    -6496016.484 7  -5038346.76645  23863171.396    23863181.7574
  21123872.351   -18860732.323 9 -14675006.81147  21123875.557    21123882.6974
  22314741.635   -16153385.801 8 -12295102.89646  22314740.375    22314748.7204
  20828804.823   -22391503.819 9 -17195233.40547  20828807.134    20828814.0574
  24972801.588     -347857.592 7   -259684.79745  24972801.747    24972813.1104
  20609277.996   -23196445.589 9 -18051898.50448  20609280.184    20609287.4934
  21909758.062   -15359633.021 8 -11948439.14847  21909759.502    21909766.6174
 00  7 30  3 34  0.0000000  0  7 25 22 31 03 27 01 19
  23878633.285    -6414746.149 8  -4975019.42545  23878637.648    23878647.7024
  21136992.039   -18791780.516 9 -14621278.15047  21136996.038    21137003.6574
  22294869.093   -16257796.238 8 -12376461.62246  22294872.150    22294879.7824
  20821852.781   -22428035.669 9 -17223699.71447  20821855.119    20821861.8454
  24955516.623     -438666.665 7   -330445.01145  24955521.978    24955531.5604
  20611182.705   -23186427.780 9 -18044092.41148  20611186.549    20611193.9414
  21895927.239   -15432308.630 8 -12005069.46747  21895929.975    21895936.9684
 00  7 30  3 34 30.0000000  0  7 25 22 31 03 27 01 19
  23894132.159    -6333302.454 8  -4911556.97545  23894136.503    23894147.0344
  21150158.705   -18722605.095 9 -14567375.24747  21150159.919    21150167.3844
  22275054.956   -16361929.826 8 -12457604.61446  22275056.119    22275064.6924
  20815008.488   -22464008.074 9 -17251730.15047  20815009.979    20815016.9884
  24938221.817     -529534.130 7   -401250.75245  24938231.445    24938240.4694
  20613199.206   -23175830.243 9 -18035834.57948  20613203.058    20613210.5634
  21882126.154   -15504839.752 8 -12061587.17447  21882126.822    21882134.7444
 00  7 30  3 35  0.0000000  0  7 25 22 31 03 27 01 19
  23909665.979    -6251685.668 8  -4847959.65845  23909665.981    23909675.8314
  21163363.252   -18653207.703 9 -14513299.38647  21163365.654    21163373.6874
  22255287.998   -16465783.860 8 -12538529.78146  22255293.354    22255301.7334
  20808265.866   -22499419.843 9 -17279323.70047  20808271.576    20808278.4624
  24920924.269     -620459.037 7   -472101.26245  24920928.208    24920938.8964
  20615325.914   -23164652.959 9 -18027124.99948  20615330.233    20615337.5344
  21868348.595   -15577224.905 8 -12117991.16047  21868352.554    21868360.2114
 00  7 30  3 35 30.0000000  0  7 25 22 31 03 27 01 19
  23925233.638    -6169896.485 8  -4784227.96745  23925231.847    23925240.8754
  21176610.792   -18583590.069 9 -14459051.95147  21176613.066    21176621.4794
  22235578.660   -16569355.587 8 -12619234.99146  22235584.498    22235592.4114
  20801636.495   -22534269.892 9 -17306479.57147  20801639.772    20801647.0184
  24903609.201     -711440.758 7   -542995.97345  24903616.440    24903623.1624
  20617565.420   -23152895.771 9 -18017963.54448  20617567.726    20617574.9574
  21854600.833   -15649462.813 8 -12174280.43347  21854606.699    21854613.8724
 00  7 30  3 36  0.0000000  0  7 25 22 31 03 27 01 19
  23940825.439    -6087935.219 8  -4720362.17445  23940827.863    23940839.0884
  21189898.354   -18513754.449 9 -14404634.64447  21189902.854    21189910.2124
  22215928.697   -16672641.952 8 -12699717.80446  22215928.947    22215937.0234
  20795111.626   -22568556.938 9 -17333196.73247  20795114.667    20795122.3024
  24886293.244     -802478.375 7   -613934.27745  24886291.487    24886300.4104
  20619912.309   -23140558.839 9 -18008350.34348  20619914.988    20619922.4664
  21840886.729   -15721551.826 8 -12230453.62447  21840887.856    21840896.1484
 00  7 30  3 36 30.0000000  0  7 25 22 31 03 27 01 19
  23956459.874    -6005802.207 7  -4656362.61645  23956456.432    23956469.2564
  21203232.412   -18443702.591 9 -14350048.83047  21203233.622    21203240.6344
  22196327.641   -16775640.250 8 -12779976.13846  22196329.231    22196337.9874
  20788693.944   -22602279.670 9 -17359474.12447  20788697.546    20788704.5994
  24868960.478     -893571.384 7   -684915.76945  24868956.697    24868966.0854
  20622369.537   -23127642.323 9 -17998285.52548  20622372.968    20622380.2084
  21827194.945   -15793490.571 8 -12286509.72947  21827198.838    21827206.2624
 00  7 30  3 37  0.0000000  0  7 25 22 31 03 27 01 19
  23972111.688    -5923498.148 8  -4592229.78345  23972120.583    23972130.1414
  21216602.307   -18373435.902 9 -14295295.58647  21216605.085    21216612.6834
  22176784.075   -16878347.359 8 -12860007.60446  22176784.848    22176793.7864
  20782383.151   -22635437.100 9 -17385310.97047  20782387.809    20782394.8194
  24851605.206     -984718.919 7   -755939.75545  24851611.641    24851621.8194
  20624937.605   -23114146.345 9 -17987769.17448  20624941.303    20624948.3454
  21813535.682   -15865277.621 8 -12342447.67147  21813537.953    21813545.6394
 00  7 30  3 37 30.0000000  0  7 25 22 31 03 27 01 19
  23987813.092    -5841023.617 8  -4527964.02745  23987812.730    23987822.8284
  21230012.350   -18302956.115 9 -14240376.31647  21230016.745    21230023.9594
  22157292.882   -16980760.290 8 -12939809.80746  22157296.199    22157304.7984
  20776184.208   -22668028.216 9 -17410706.63847  20776185.836    20776192.9844
  24834261.712    -1075920.230 7   -827005.60345  24834257.080    24834267.2844
  20627618.132   -23100070.995 9 -17976801.35848  20627619.859    20627626.8894
  21799907.373   -15936911.438 8 -12398266.18447  21799906.427    21799914.1074
 00  7 30  3 38  0.0000000  0  7 25 22 31 03 27 01 19
  24003538.547    -5758378.605 7  -4463565.44645  24003539.699    24003551.4614
  21243466.906   -18232265.032 9 -14185292.45847  21243468.894    21243476.2024
  22137862.256   -17082876.389 8 -13019380.69346  22137863.717    22137871.9424
  20770088.997   -22700051.925 9 -17435660.15047  20770091.909    20770099.0984
  24816889.638    -1167174.657 7   -898112.89245  24816891.695    24816901.4794
  20630406.389   -23085416.545 9 -17965382.29648  20630408.504    20630415.6494
  21786302.728   -16008390.305 8 -12453963.95647  21786304.340    21786312.4484
 00  7 30  3 38 30.0000000  0  7 25 22 31 03 27 01 19
  24019288.248    -5675563.757 7  -4399034.60845  24019299.640    24019310.2914
  21256958.588   -18161364.780 9 -14130045.58347  21256961.119    21256968.3754
  22118489.093   -17184692.564 8 -13098717.87346  22118488.835    22118497.0514
  20764104.132   -22731507.321 9 -17460170.82847  20764105.920    20764113.0934
  24799510.446    -1258481.319 7   -969260.84245  24799516.960    24799526.6984
  20633304.753   -23070183.063 9 -17953512.04948  20633307.169    20633314.2794
  21772727.959   -16079713.045 8 -12509540.10047  21772731.632    21772739.7234
 00  7 30  3 39  0.0000000  0  7 25 22 31 03 27 01 19
  24035090.592    -5592579.658 8  -4334371.84845  24035093.722    24035102.8654
  21270491.520   -18090257.121 9 -14074637.02347  21270492.244    21270499.7624
  22099164.960   -17286206.170 8 -13177819.26146  22099171.824    22099179.9254
  20758222.709   -22762393.407 9 -17484237.90047  20758228.591    20758236.1494
  24782130.607    -1349839.511 7  -1040449.00845  24782133.229    24782141.5194
  20636313.736   -23054370.707 9 -17941190.73348  20636315.973    20636323.1414
  21759186.976   -16150877.995 8 -12564993.28947  21759189.935    21759197.2994
 00  7 30  3 39 30.0000000  0  7 25 22 31 03 27 01 19
  24050910.060    -5509426.481 8  -4269577.32245  24050915.574    24050925.3054
  21284062.324   -18018943.248 9 -14019067.74447  21284062.652    21284070.2084
  22079909.175   -17387414.183 8 -13256682.60346  22079911.697    22079919.7704
  20752457.285   -22792709.017 9 -17507860.44247  20752459.829    20752467.1804
  24764735.623    -1441248.333 7  -1111676.64645  24764737.705    24764747.1814
  20639431.819   -23037979.883 9 -17928418.66048  20639434.975    20639442.2384
  21745676.908   -16221883.732 9 -12620322.42047  21745678.337    21745685.6304
 00  7 30  3 40  0.0000000  0  7 25 22 31 03 27 01 19
  24066760.124    -5426104.996 7  -4204651.63345  24066769.219    24066781.3104
  21297672.855   -17947425.005 9 -13963339.23847  21297672.578    21297679.4654
  22060707.425   -17488313.918 8 -13335305.68446  22060712.127    22060719.5944
  20746798.549   -22822453.341 9 -17531037.82847  20746799.929    20746806.8964
  24747325.854    -1532707.069 7  -1182943.17545  24747333.412    24747342.5764
  20642661.155   -23021010.810 9 -17915196.00748  20642664.286    20642671.3974
  21732194.127   -16292728.534 8 -12675526.11447  21732196.672    21732204.0944
 00  7 30  3 40 30.0000000  0  7 25 22 31 03 27 01 19
  24082661.772    -5342615.795 8  -4139595.30745  24082658.698    24082670.0674
  21311316.823   -17875704.185 9 -13907452.82547  21311320.216    21311327.5754
  22041563.978   -17588902.170 8 -13413686.02746  22041569.823    22041578.3294
  20741244.322   -22851625.152 9 -17553769.08947  20741248.511    20741255.6204
  24729915.865    -1624214.833 7  -1254247.90845  24729918.896    24729928.4464
  20646000.237   -23003463.674 9 -17901522.90748  20646003.383    20646010.5124
  21718743.117   -16363411.059 8 -12730603.38247  21718745.876    21718753.3014
 00  7 30  3 41  0.0000000  0  7 25 22 31 03 27 01 19
  24098578.314    -5258959.219 8  -4074408.52645  24098579.901    24098589.7874
  21325002.530   -17803783.304 9 -13851410.71847  21325006.512    21325013.6274
  22022484.026   -17689176.141 8 -13491821.46146  22022488.400    22022496.9874
  20735802.740   -22880223.979 9 -17576053.86547  20735806.725    20735813.2264
  24712489.159    -1715770.774 7  -1325590.15745  24712496.483    24712506.8164
  20649447.993   -22985338.804 9 -17887399.63548  20649452.420    20649459.6434
  21705323.882   -16433929.647 8 -12785552.90747  21705326.854    21705334.3874
 00  7 30  3 41 30.0000000  0  7 25 22 31 03 27 01 19
  24114528.496    -5175135.962 7  -4009091.88245  24114528.182    24114539.6154
  21338729.192   -17731663.383 9 -13795213.38747  21338730.285    21338737.5354
  22003467.261   -17789133.400 8 -13569710.13047  22003467.485    22003475.3794
  20730469.648   -22908248.857 9 -17597891.38347  20730473.712    20730480.2214
  24695058.553    -1807374.014 7  -1396969.24545  24695065.501    24695074.9344
  20653009.041   -22966636.628 9 -17872826.50948  20653011.550    20653018.4364
  21691935.117   -16504282.742 8 -12840373.51647  21691939.243    21691946.8204
 00  7 30  3 42  0.0000000  0  7 25 22 31 03 27 01 19
  24130511.926    -5091146.195 7  -3943645.47345  24130511.758    24130521.7434
  21352490.276   -17659345.911 9 -13738862.06947  21352492.004    21352499.3064
  21984505.831   -17888770.909 8 -13647349.64347  21984506.689    21984514.7404
  20725248.537   -22935698.952 9 -17619281.04047  20725250.186    20725256.7234
  24677618.784    -1899023.741 7  -1468384.55445  24677623.474    24677634.6084
  20656677.700   -22947357.569 9 -17857803.85848  20656680.018    20656687.3584
  21678579.397   -16574468.970 8 -12895064.06347  21678583.217    21678590.6084
 00  7 30  3 42 30.0000000  0  7 25 22 31 03 27 01 19
  24146523.376    -5006990.813 7  -3878069.97945  24146526.053    24146537.8904
  21366286.516   -17586832.630 9 -13682358.17647  21366291.182    21366298.4344
  21965600.935   -17988085.363 8 -13724737.40447  21965607.972    21965615.8474
  20720132.699   -22962573.660 9 -17640222.36347  20720135.831    20720142.7554
  24660171.969    -1990719.185 7  -1539835.49245  24660176.170    24660185.0064
  20660454.211   -22927501.953 9 -17842331.95148  20660458.140    20660465.6794
  21665253.384   -16644486.555 9 -12949623.20947  21665259.032    21665266.4724
 00  7 30  3 43  0.0000000  0  7 25 22 31 03 27 01 19
  24162570.917    -4922670.296 7  -3812365.89145  24162570.717    24162584.1094
  21380123.952   -17514125.556 9 -13625703.31647  21380126.120    21380133.8384
  21946767.847   -18087074.334 8 -13801871.54647  21946770.762    21946778.3924
  20715125.685   -22988871.760 9 -17660714.39447  20715131.329    20715138.2704
  24642717.418    -2082459.489 7  -1611321.34445  24642717.827    24642726.9034
  20664343.618   -22907070.152 9 -17826411.06948  20664346.592    20664353.4684
  21651963.816   -16714334.022 9 -13004049.77347  21651968.204    21651975.3364
 00  7 30  3 43 30.0000000  0  7 25 22 31 03 27 01 19
  24178643.424    -4838185.007 7  -3746533.40245  24178650.819    24178659.2124
  21393997.102   -17441226.719 9 -13568899.07747  21393998.288    21394006.5084
  21927993.577   -18185735.058 8 -13878749.92546  21927995.827    21928003.6714
  20710233.746   -23014592.341 9 -17680756.38847  20710237.236    20710243.9074
  24625251.529    -2174243.903 7  -1682841.57545  24625252.345    24625260.6464
  20668340.917   -22886062.582 9 -17810041.53448  20668344.284    20668351.1234
  21638706.877   -16784009.772 9 -13058342.54247  21638708.772    21638716.7954
 00  7 30  3 44  0.0000000  0  7 25 22 31 03 27 01 19
  24194756.210    -4753535.478 8  -3680572.81745  24194758.239    24194767.3754
  21407905.515   -17368137.494 9 -13511946.47747  21407906.966    21407914.4704
  21909281.651   -18284064.514 8 -13955370.19446  21909284.395    21909292.1734
  20705448.867   -23039734.905 9 -17700347.98748  20705453.041    20705459.4924
  24607779.361    -2266071.428 7  -1754395.43145  24607779.290    24607786.7954
  20672449.434   -22864479.680 9 -17793223.68548  20672451.414    20672458.5054
  21625479.021   -16853512.271 8 -13112500.31147  21625482.720    21625490.7094
 00  7 30  3 44 30.0000000  0  7 25 22 31 03 27 01 19
  24210891.641    -4668722.165 7  -3614484.69245  24210897.315    24210907.8964
  21421849.055   -17294859.284 9 -13454846.61147  21421851.483    21421858.6534
  21890635.532   -18382059.894 8 -14031730.08746  21890636.734    21890643.8364
  20700774.452   -23064298.848 9 -17719488.74948  20700778.543    20700785.3574
  24590294.179    -2357941.254 8  -1825982.23445  24590296.546    24590303.2714
  20676664.661   -22842321.852 9 -17775957.84548  20676667.620    20676674.9494
  21612284.371   -16922840.032 8 -13166521.93247  21612289.982    21612297.9124
 00  7 30  3 45  0.0000000  0  7 25 22 31 03 27 01 19
  24227072.466    -4583745.549 7  -3548269.38045  24227066.537    24227080.2844
  21435831.518   -17221393.618 9 -13397600.68247  21435831.744    21435838.9524
  21872048.629   -18479718.636 8 -14107827.67047  21872052.575    21872060.5524
  20696211.710   -23088283.274 9 -17738177.92448  20696214.092    20696220.9404
  24572805.202    -2449852.237 8  -1897601.12145  24572806.738    24572814.1404
  20680991.810   -22819589.616 9 -17758244.40748  20680993.447    20681000.5494
  21599127.962   -16991991.534 8 -13220406.21447  21599130.936    21599139.1354
 00  7 30  3 45 30.0000000  0  7 25 22 31 03 27 01 19
  24243269.619    -4498606.687 8  -3481927.62245  24243270.552    24243280.6054
  21449844.767   -17147742.564 9 -13340210.25347  21449847.088    21449854.1494
  21853534.825   -18577037.525 8 -14183660.41047  21853533.642    21853541.1964
  20691756.945   -23111687.419 9 -17756414.91848  20691760.341    20691767.3054
  24555311.800    -2541803.697 7  -1969251.46745  24555308.393    24555316.6804
  20685425.421   -22796283.713 9 -17740083.96348  20685428.443    20685435.2144
  21586001.994   -17060965.056 8 -13274151.80047  21586005.708    21586013.4834
 00  7 30  3 46  0.0000000  0  7 25 22 31 03 27 01 19
  24259494.762    -4413306.031 7  -3415459.63445  24259501.578    24259511.4324
  21463894.738   -17073907.971 8 -13282676.80647  21463896.866    21463904.2274
  21835078.801   -18674013.846 8 -14259226.22547  21835079.302    21835087.0924
  20687414.454   -23134510.788 9 -17774199.34747  20687417.210    20687424.1904
  24537801.198    -2633794.669 7  -2040932.68045  24537803.743    24537811.2894
  20689970.013   -22772404.444 9 -17721476.74048  20689972.680    20689979.1854
  21572912.005   -17129759.073 8 -13327757.50147  21572914.743    21572922.7124
 00  7 30  3 46 30.0000000  0  7 25 22 31 03 27 01 19
  24275754.820    -4327843.601 7  -3348865.70445  24275763.746    24275777.9054
  21477981.580   -16999891.284 9 -13225001.49347  21477982.323    21477988.8634
  21816686.824   -18770644.762 8 -14334522.92247  21816690.793    21816699.0544
  20683180.091   -23156752.804 9 -17791530.76447  20683184.424    20683191.5514
  24520287.201    -2725824.223 7  -2112643.89345  24520290.316    24520298.9584
  20694622.209   -22747952.593 9 -17702423.35048  20694625.617    20694632.7744
  21559856.340   -17198371.746 8 -13381221.89747  21559858.306    21559865.7154
 00  7 30  3 47  0.0000000  0  7 25 22 31 03 27 01 19
  24292055.557    -4242220.349 7  -3282146.49645  24292058.965    24292070.0774
  21492096.793   -16925693.657 9 -13167185.11247  21492101.209    21492109.0584
  21798363.655   -18866927.883 8 -14409548.55847  21798368.876    21798376.4334
  20679060.163   -23178412.608 9 -17808408.49547  20679062.670    20679069.6604
  24502765.449    -2817891.467 7  -2184384.52245  24502769.449    24502779.6834
  20699384.442   -22722928.603 9 -17682924.13748  20699387.209    20699394.7174
  21546834.382   -17266801.667 8 -13434543.90747  21546836.349    21546843.6744
 00  7 30  3 47 30.0000000  0  7 25 22 31 03 27 01 19
  24308383.309    -4156436.727 8  -3215302.29745  24308383.197    24308394.7934
  21506250.945   -16851316.932 9 -13109229.19247  21506254.810    21506262.5074
  21780108.664   -18962860.422 8 -14484300.98647  21780113.280    21780120.8154
  20675050.200   -23199489.641 9 -17824832.16747  20675051.902    20675059.0544
  24485235.732    -2909995.399 7  -2256153.72345  24485242.705    24485252.6894
  20704254.338   -22697333.159 9 -17662979.63148  20704257.753    20704265.1864
  21533846.253   -17335047.122 8 -13487722.18247  21533849.251    21533856.6614
 00  7 30  3 48  0.0000000  0  7 25 22 31 03 27 01 19
  24324730.705    -4070493.394 7  -3148333.58945  24324734.686    24324747.0494
  21520439.274   -16776763.248 9 -13051135.41647  21520441.689    21520449.1544
  21761923.916   -19058439.764 8 -14558778.30347  21761925.334    21761931.9234
  20671149.053   -23219983.790 9 -17840801.64448  20671152.039    20671159.1144
  24467705.166    -3002135.098 7  -2327950.81145  24467709.565    24467719.0054
  20709232.087   -22671166.864 9 -17642590.31048  20709237.305    20709244.4114
  21520895.622   -17403106.588 8 -13540755.52447  21520898.369    21520905.9494
 00  7 30  3 48 30.0000000  0  7 25 22 31 03 27 01 19
  24341120.699    -3984391.078 7  -3081241.06745  24341123.338    24341134.5774
  21534657.996   -16702034.241 8 -12992905.02347  21534662.052    21534670.0664
  21743803.836   -19153662.593 8 -14632977.82347  21743804.757    21743811.9334
  20667361.724   -23239894.110 9 -17856316.15047  20667363.186    20667370.4244
  24450165.593    -3094309.757 7  -2399775.15545  24450168.436    24450177.2474
  20714320.852   -22644430.416 9 -17621756.71648  20714324.929    20714332.0084
  21507981.892   -17470978.633 9 -13593642.83247  21507983.109    21507990.1484
 00  7 30  3 49  0.0000000  0  7 25 22 31 03 27 01 19
  24357532.963    -3898130.399 8  -3014025.11845  24357538.260    24357549.1564
  21548914.715   -16627131.053 9 -12934538.87947  21548916.308    21548923.5904
  21725752.461   -19248526.252 8 -14706897.39447  21725752.361    21725759.9374
  20663682.415   -23259220.005 9 -17871375.26647  20663685.618    20663692.6234
  24432614.151    -3186518.270 7  -2471625.88845  24432622.579    24432631.0684
  20719517.260   -22617124.422 9 -17600479.31147  20719521.087    20719528.1624
  21495100.364   -17538661.461 8 -13646382.72347  21495103.264    21495111.0434
 00  7 30  3 49 30.0000000  0  7 25 22 31 03 27 01 19
  24373979.790    -3811711.850 7  -2946686.18945  24373983.524    24373994.2204
  21563199.770   -16552055.331 8 -12876038.34347  21563202.313    21563210.0514
  21707767.098   -19343028.144 8 -14780535.13847  21707769.830    21707777.2744
  20660115.396   -23277961.156 9 -17885978.75247  20660119.212    20660126.0234
  24415061.474    -3278759.715 8  -2543502.24645  24415070.302    24415078.0034
  20724821.681   -22589249.736 9 -17578758.77348  20724825.572    20724832.7894
  21482258.916   -17606153.319 9 -13698973.77747  21482260.325    21482267.8004
 00  7 30  3 50  0.0000000  0  7 25 22 31 03 27 01 19
  24390456.202    -3725136.135 7  -2879224.78745  24390456.513    24390466.4614
  21577521.023   -16476808.575 9 -12817404.51147  21577521.615    21577528.5704
  21689855.483   -19437165.494 8 -14853888.81647  21689855.798    21689863.7934
  20656661.804   -23296116.902 9 -17900126.10247  20656664.461    20656671.4634
  24397514.069    -3371033.222 8  -2615403.62645  24397511.279    24397518.5044
  20730234.316   -22560807.115 9 -17556595.68848  20730238.113    20730245.3694
  21469448.582   -17673452.703 8 -13751414.85447  21469453.150    21469460.8784
 00  7 30  3 50 30.0000000  0  7 25 22 31 03 27 01 19
  24406956.171    -3638403.832 7  -2811641.26645  24406963.088    24406971.9454
  21591869.067   -16401392.885 9 -12758639.09147  21591872.809    21591879.7244
  21672009.732   -19530935.873 8 -14926956.47747  21672011.384    21672018.9674
  20653317.374   -23313687.141 9 -17913817.21448  20653321.034    20653328.0534
  24379947.426    -3463337.727 8  -2687329.19445  24379945.974    24379954.3004
  20735756.238   -22531797.348 9 -17533990.67848  20735758.353    20735765.7594
  21456678.942   -17740557.760 8 -13803704.48047  21456683.519    21456691.6684
 00  7 30  3 51  0.0000000  0  7 25 22 31 03 27 01 19
  24423498.208    -3551515.570 7  -2743936.30045  24423496.083    24423509.3914
  21606253.540   -16325809.704 9 -12699743.10147  21606256.080    21606263.0284
  21654237.377   -19624336.433 8 -14999736.03647  21654237.890    21654245.3864
  20650083.379   -23330671.386 9 -17927051.70748  20650088.937    20650095.9604
  24362373.689    -3555672.132 7  -2759278.03145  24362374.778    24362383.5784
  20741383.059   -22502221.080 9 -17510944.24148  20741386.557    20741394.1414
  21443947.206   -17807467.151 8 -13855841.64747  21443950.868    21443959.1754
 00  7 30  3 51 30.0000000  0  7 25 22 31 03 27 01 19
  24440054.849    -3464471.587 7  -2676110.08545  24440060.730    24440071.5704
  21620666.318   -16250060.566 9 -12640717.80047  21620670.686    21620677.2954
  21636531.079   -19717363.931 8 -15072224.90347  21636535.561    21636542.5794
  20646964.145   -23347068.987 9 -17939829.05348  20646968.565    20646975.5384
  24344795.353    -3648035.475 8  -2831249.45145  24344799.972    24344807.6384
  20747120.548   -22472079.299 9 -17487457.13748  20747122.528    20747129.9274
  21431255.302   -17874178.973 9 -13907824.87547  21431256.437    21431264.0364
 00  7 30  3 52  0.0000000  0  7 25 22 31 03 27 01 19
  24456657.106    -3377272.859 8  -2608163.13245  24456655.310    24456663.9444
  21635116.806   -16174146.555 8 -12581564.06247  21635116.018    21635123.5364
  21618905.187   -19810016.027 9 -15144421.29547  21618904.716    21618911.4614
  20643956.728   -23362879.531 9 -17952148.96048  20643960.040    20643966.9604
  24327214.003    -3740426.704 7  -2903242.62045  24327218.135    24327225.8044
  20752959.714   -22441372.800 9 -17463530.00148  20752965.498    20752973.0894
  21418597.034   -17940691.439 9 -13959652.76347  21418599.324    21418607.0584
 00  7 30  3 52 30.0000000  0  7 25 22 31 03 27 01 19
  24473268.210    -3289919.832 7  -2540095.93045  24473276.236    24473288.2334
  21649590.515   -16098069.482 9 -12522283.23947  21649593.077    21649600.9404
  21601342.967   -19902289.830 8 -15216322.87547  21601345.079    21601352.3654
  20641058.522   -23378102.841 9 -17964011.23348  20641063.135    20641070.1144
  24309627.037    -3832844.862 7  -2975256.75245  24309631.009    24309638.4304
  20758914.091   -22410102.555 9 -17439163.57748  20758916.252    20758923.3984
  21405976.123   -18007003.051 8 -14011324.12247  21405980.224    21405988.2944
 00  7 30  3 53  0.0000000  0  7 25 22 31 03 27 01 19
  24489929.819    -3202413.305 7  -2471909.25545  24489928.949    24489940.8364
  21664099.378   -16021831.363 9 -12462876.96347  21664100.831    21664108.4704
  21583854.164   -19994182.667 8 -15287927.61147  21583858.078    21583866.0274
  20638274.679   -23392738.571 9 -17975415.63348  20638277.952    20638284.9594
  24292032.478    -3925288.872 7  -3047290.93345  24292039.072    24292046.9594
  20764970.729   -22378269.339 9 -17414358.47648  20764973.966    20764981.0404
  21393397.030   -18073112.252 8 -14062837.76647  21393400.141    21393408.0194
 00  7 30  3 53 30.0000000  0  7 25 22 31 03 27 01 19
  24506604.938    -3114753.754 7  -2403603.28045  24506610.110    24506620.1394
  21678637.291   -15945433.735 9 -12403346.38447  21678638.762    21678646.6444
  21566441.608   -20085692.283 8 -15359233.67847  21566444.540    21566451.6554
  20635602.315   -23406786.604 9 -17986362.19948  20635604.917    20635611.7454
  24274443.193    -4017757.745 7  -3119344.60145  24274442.323    24274451.2624
  20771136.609   -22345874.091 9 -17389115.42948  20771138.643    20771145.6354
  21380857.024   -18139017.367 8 -14114192.37747  21380859.100    21380866.9504
 00  7 30  3 54  0.0000000  0  7 25 22 31 03 27 01 19
  24523307.303    -3026941.998 7  -2335178.63445  24523318.714    24523330.0344
  21693200.811   -15868877.638 8 -12343692.34547  21693206.710    21693214.8414
  21549099.945   -20176815.896 8 -15430239.02747  21549104.200    21549111.1654
  20633041.814   -23420246.383 9 -17996850.36948  20633043.478    20633050.6444
  24256838.768    -4110250.498 7  -3191416.83245  24256841.859    24256850.7784
  20777408.747   -22312917.692 9 -17363435.11548  20777409.938    20777417.1334
  21368354.133   -18204716.788 9 -14165386.72447  21368356.942    21368364.5124
 00  7 30  3 54 30.0000000  0  7 25 22 31 03 27 01 19
  24540067.191    -2938978.747 7  -2266636.03545  24540057.574    24540072.0344
  21707803.063   -15792164.438 9 -12283915.82947  21707805.437    21707812.8344
  21531834.424   -20267550.744 8 -15500941.43947  21531837.996    21531845.0294
  20630588.159   -23433117.863 9 -18006880.08948  20630593.703    20630601.1654
  24239230.511    -4202765.979 8  -3263506.77745  24239236.311    24239246.0484
  20783785.562   -22279401.093 9 -17337318.28847  20783788.029    20783794.8454
  21355892.471   -18270208.615 9 -14216419.31847  21355894.512    21355901.8084
 00  7 30  3 55  0.0000000  0  7 25 22 31 03 27 01 19
  24556819.699    -2850864.703 7  -2197975.92245  24556827.005    24556838.9324
  21722432.570   -15715296.029 8 -12224018.37347  21722432.569    21722440.6514
  21514643.693   -20357894.225 8 -15571338.83647  21514645.799    21514653.1294
  20628252.939   -23445400.843 9 -18016451.24548  20628256.581    20628263.9804
  24221627.137    -4295303.110 7  -3335613.57545  24221626.587    24221636.4134
  20790270.580   -22245325.301 9 -17310765.72747  20790272.470    20790279.0924
  21343468.164   -18335491.117 9 -14267288.80747  21343471.525    21343478.8514
 00  7 30  3 55 30.0000000  0  7 25 22 31 03 27 01 19
  24573619.310    -2762600.053 7  -2129198.42845  24573624.666    24573634.8204
  21737087.923   -15638274.224 8 -12164001.45347  21737089.043    21737096.9484
  21497525.866   -20447843.760 8 -15641429.26447  21497529.272    21497536.6364
  20626028.468   -23457095.023 9 -18025563.59848  20626031.608    20626038.4874
  24204008.502    -4387860.679 8  -3407736.26845  24204014.178    24204023.3364
  20796860.496   -22210691.416 9 -17283778.28647  20796862.933    20796869.7344
  21331084.508   -18400562.738 9 -14317993.97247  21331088.791    21331095.7484
 00  7 30  3 56  0.0000000  0  6 22 31 03 27 01 19
  21751773.183   -15561100.344 8 -12103865.96847  21751774.867    21751783.0974
  21480485.835   -20537396.304 8 -15711210.36347  21480487.523    21480495.2204
  20623914.427   -23468200.306 9 -18034217.06348  20623918.054    20623924.9764
  24186393.723    -4480437.758 7  -3479874.12945  24186396.248    24186405.6734
  20803554.715   -22175500.273 9 -17256356.61747  20803559.350    20803566.5234
  21318744.929   -18465421.674 9 -14368533.40647  21318746.557    21318754.1654
 00  7 30  3 56 30.0000000  0  6 22 31 03 27 01 19
  21766489.502   -15483775.582 8 -12043612.95847  21766490.194    21766497.3764
  21463520.568   -20626549.306 8 -15780680.12747  21463522.015    21463530.0504
  20621913.060   -23478716.505 9 -18042411.53548  20621916.972    20621923.8174
  24168777.737    -4573033.241 8  -3552026.37145  24168776.882    24168785.5094
  20810359.100   -22139752.817 9 -17228501.46647  20810361.795    20810369.1444
  21306442.384   -18530066.192 9 -14418905.73547  21306444.835    21306452.4444
 00  7 30  3 57  0.0000000  0  6 22 31 03 27 01 19
  21781230.558   -15406301.354 8 -11983243.48447  21781233.063    21781240.0624
  21446627.545   -20715300.449 8 -15849836.79147  21446633.334    21446640.8404
  20620023.814   -23488643.565 9 -18050146.92048  20620027.990    20620034.5394
  24151150.185    -4665646.044 8  -3624192.12145  24151153.285    24151161.2324
  20817268.858   -22103450.346 9 -17200213.83447  20817270.050    20817277.3584
  21294181.313   -18594494.590 9 -14469109.64847  21294184.496    21294192.3224
 00  7 30  3 57 30.0000000  0  6 22 31 03 27 01 19
  21796002.417   -15328679.416 8 -11922758.88047  21796003.509    21796011.4204
  21429818.752   -20803647.076 8 -15918678.22747  21429821.645    21429829.0644
  20618245.894   -23497981.262 9 -18057423.05948  20618250.838    20618257.9284
  24133527.180    -4758275.140 7  -3696370.53345  24133527.006    24133534.3984
  20824280.216   -22066594.052 9 -17171494.65047  20824283.664    20824290.9074
  21281963.837   -18658705.013 9 -14519143.72447  21281965.880    21281973.0124
 00  7 30  3 58  0.0000000  0  6 22 31 03 27 01 19
  21810800.729   -15250911.695 9 -11862160.70547  21810802.901    21810809.9514
  21413084.259   -20891586.461 8 -15987202.31847  21413087.394    21413094.3844
  20616583.101   -23506729.545 9 -18064239.90348  20616586.233    20616593.2814
  24115897.335    -4850919.269 8  -3768560.64645  24115896.895    24115905.0804
  20831398.712   -22029184.999 9 -17142344.74847  20831402.584    20831410.0254
  21269783.614   -18722695.738 9 -14569006.58047  21269788.867    21269796.0374
 00  7 30  3 58 30.0000000  0  6 22 31 03 27 01 19
  21825626.017   -15172999.226 8 -11801449.75347  21825628.555    21825635.8844
  21396424.167   -20979116.318 8 -16055407.36147  21396431.114    21396438.4304
  20615029.256   -23514888.369 9 -18070597.44048  20615033.937    20615040.6754
  24098263.525    -4943577.230 8  -3840761.52045  24098265.100    24098272.4784
  20838623.594   -21991224.192 9 -17112764.91147  20838626.314    20838633.8154
  21257650.041   -18786465.055 9 -14618696.92247  21257653.596    21257661.6604
 00  7 30  3 59  0.0000000  0  6 22 31 03 27 01 19
  21840480.516   -15094943.069 8 -11740626.76947  21840481.955    21840490.0794
  21379850.914   -21066233.859 9 -16123291.08047  21379853.408    21379859.8724
  20613589.193   -23522457.801 9 -18076495.68848  20613593.363    20613600.0904
  24080625.466    -5036248.065 8  -3912972.45445  24080629.607    24080638.4714
  20845951.968   -21952712.653 9 -17082755.92848  20845954.926    20845962.3994
  21245556.573   -18850011.242 9 -14668213.37347  21245560.769    21245568.8654
 00  7 30  3 59 30.0000000  0  6 22 31 03 27 01 19
  21855362.544   -15016744.761 9 -11679693.01547  21855363.182    21855369.9374
  21363352.217   -21152936.609 8 -16190851.55847  21363353.834    21363361.0754
  20612260.114   -23529438.051 9 -18081934.84848  20612264.912    20612271.8744
  24062988.931    -5128930.575 8  -3985192.54345  24062992.837    24063000.8294
  20853385.657   -21913651.595 9 -17052318.75147  20853387.769    20853394.9874
  21233508.657   -18913332.894 9 -14717554.89147  21233511.118    21233518.9584
 00  7 30  4  0  0.0000000  0  6 22 31 03 27 01 19
  21870268.486   -14938406.317 8 -11618650.05947  21870269.903    21870277.2954
  21346933.067   -21239221.847 9 -16258086.73447  21346934.441    21346941.2554
  20611046.510   -23535828.820 9 -18086914.67048  20611048.851    20611056.1014
  24045350.029    -5221623.581 8  -4057420.80845  24045353.410    24045361.1654
  20860921.632   -21874042.388 9 -17021454.43747  20860925.378    20860932.2124
  21221499.531   -18976428.060 9 -14766719.91147  21221504.726    21221512.2464
 00  7 30  4  0 30.0000000  0  6 22 31 03 27 01 19
  21885198.556   -14859929.163 8 -11557499.04447  21885203.837    21885211.1454
  21330593.348   -21325087.200 9 -16324994.73947  21330594.878    21330601.3574
  20609939.949   -23541630.278 9 -18091435.28648  20609945.098    20609952.2084
  24027709.163    -5314325.828 8  -4129656.26945  24027713.136    24027720.3404
  20868563.248   -21833886.302 9 -16990163.98947  20868566.709    20868573.4854
  21209541.859   -19039294.688 9 -14815706.85647  21209541.760    21209549.0974
 00  7 30  4  1  0.0000000  0  6 22 31 03 27 01 19
  21900161.350   -14781314.435 8 -11496240.81847  21900163.655    21900170.9064
  21314332.146   -21410530.065 9 -16391573.52347  21314335.786    21314342.7334
  20608951.616   -23546842.396 9 -18095496.68848  20608953.170    20608960.0874
  24010063.088    -5407036.286 8  -4201898.13345  24010070.166    24010078.4304
  20876311.130   -21793184.612 9 -16958448.39447  20876312.171    20876318.6894
  21197618.632   -19101931.181 9 -14864514.46447  21197622.585    21197629.7934
 00  7 30  4  1 30.0000000  0  6 22 31 03 27 01 19
  21915146.270   -14702563.409 8 -11434876.39447  21915149.261    21915157.6184
  21298156.192   -21495547.705 9 -16457820.97547  21298157.656    21298164.4424
  20608068.934   -23551465.350 9 -18099098.99748  20608073.362    20608080.3944
  23992423.431    -5499753.723 8  -4274145.41545  23992427.362    23992435.7994
  20884156.480   -21751938.556 9 -16926308.61147  20884160.854    20884167.8834
  21185745.928   -19164335.929 9 -14913141.50847  21185747.638    21185754.4084
 00  7 30  4  2  0.0000000  0  6 22 31 03 27 01 19
  21930158.887   -14623677.511 8 -11373406.92247  21930161.406    21930169.2734
  21282056.771   -21580137.881 9 -16523735.32747  21282059.691    21282067.1014
  20607302.236   -23555499.188 9 -18102242.24648  20607305.796    20607312.8364
  23974779.326    -5592476.940 8  -4346397.21445  23974782.884    23974790.8114
  20892109.345   -21710149.558 9 -16893745.76047  20892112.789    20892120.1944
  21173914.557   -19226507.319 9 -14961586.71847  21173916.560    21173922.8934
 00  7 30  4  2 30.0000000  0  6 22 31 03 27 01 19
  21945195.971   -14544658.471 8 -11311833.67147  21945196.881    21945205.7044
  21266042.434   -21664298.190 9 -16589314.71847  21266044.943    21266052.1444
  20606647.506   -23558944.108 9 -18104926.60548  20606650.156    20606657.1534
  23957135.188    -5685204.842 8  -4418652.76545  23957136.939    23957145.9534
  20900164.223   -21667818.758 9 -16860760.72747  20900167.947    20900175.3074
  21162125.317   -19288443.549 9 -15009848.68447  21162129.963    21162137.2194
 00  7 30  4  3  0.0000000  0  6 22 31 03 27 01 19
  21960256.789   -14465507.861 8 -11250157.89547  21960259.224    21960267.7084
  21250110.542   -21748025.878 9 -16654557.00447  21250112.348    21250118.4414
  20606102.919   -23561799.964 9 -18107151.95348  20606106.790    20606113.7974
  23939484.217    -5777935.878 8  -4490910.62445  23939489.985    23939500.1774
  20908325.357   -21624947.642 9 -16827354.67047  20908326.376    20908333.6394
  21150388.229   -19350142.567 9 -15057925.79547  21150389.285    21150396.1544
 00  7 30  4  3 30.0000000  0  6 22 31 03 27 01 19
  21975343.730   -14386226.684 8 -11188380.36547  21975346.168    21975354.4044
  21234261.173   -21831318.721 9 -16719460.46947  21234261.966    21234268.8304
  20605671.249   -23564067.288 9 -18108918.70648  20605675.179    20605682.4324
  23921846.849    -5870669.090 8  -4563170.20145  23921843.784    23921852.5414
  20916583.488   -21581537.370 9 -16793528.49047  20916587.095    20916594.3424
  21138692.081   -19411602.672 9 -15105816.75447  21138694.287    21138701.1844
 00  7 30  4  4  0.0000000  0  6 22 31 03 27 01 19
  21990454.034   -14306816.038 8 -11126501.94547  21990457.082    21990465.3034
  21218493.223   -21914174.184 9 -16784023.11647  21218494.710    21218501.6864
  20605352.868   -23565746.550 9 -18110227.22548  20605355.528    20605362.9454
  23904199.962    -5963403.105 8  -4635430.44045  23904197.000    23904205.6944
  20924946.950   -21537589.262 9 -16759283.21347  20924950.086    20924957.1714
  21127040.326   -19472822.005 9 -15153520.10747  21127044.233    21127051.3664
 00  7 30  4  4 30.0000000  0  6 22 31 03 27 01 19
  22005593.148   -14227277.583 8 -11064523.96247  22005593.520    22005600.8174
  21202808.896   -21996589.904 9 -16848243.10847  21202811.991    21202818.3694
  20605145.672   -23566837.636 9 -18111077.42348  20605148.010    20605155.0464
  23886547.394    -6056136.785 8  -4707690.38445  23886549.387    23886558.8684
  20933411.083   -21493104.916 9 -16724620.08247  20933414.886    20933421.9724
  21115437.142   -19533798.861 9 -15201034.51347  21115440.108    21115447.7694
 00  7 30  4  5  0.0000000  0  6 22 31 03 27 01 19
  22020749.268   -14147612.902 8 -11002447.60447  22020753.551    22020760.4914
  21187208.604   -22078563.486 9 -16912118.59047  21187213.215    21187219.3364
  20605048.582   -23567341.022 9 -18111469.67848  20605052.303    20605059.1604
  23868899.665    -6148868.908 8  -4779949.17545  23868904.849    23868912.4644
  20941979.765   -21448085.687 9 -16689540.17047  20941982.203    20941989.3224
  21103881.326   -19594531.380 9 -15248358.54347  21103883.376    21103891.1164
 00  7 30  4  5 30.0000000  0  6 22 31 03 27 01 19
  22035935.633   -14067823.663 8 -10940274.21547  22035936.275    22035944.0114
  21171691.408   -22160092.438 9 -16975647.60547  21171698.186    21171704.9874
  20605064.879   -23567257.019 9 -18111404.22548  20605068.244    20605075.2564
  23851258.914    -6241598.058 8  -4852205.63645  23851259.725    23851266.6564
  20950647.432   -21402532.979 9 -16654044.55747  20950650.504    20950657.8774
  21092368.929   -19655017.865 9 -15295490.86847  21092373.324    21092380.3824
 00  7 30  4  6  0.0000000  0  6 22 31 03 27 01 19
  22051140.524   -13987910.520 8 -10878004.30147  22051143.366    22051151.1304
  21156267.093   -22241174.503 9 -17038828.40047  21156268.556    21156275.7624
  20605192.886   -23566585.964 9 -18110881.31748  20605195.900    20605202.9584
  23833613.940    -6334322.957 8  -4924458.73145  23833614.553    23833621.2144
  20959416.844   -21356448.313 9 -16618134.42947  20959420.014    20959427.1514
  21080906.740   -19715256.622 9 -15342430.15147  21080910.083    21080917.8914
 00  7 30  4  6 30.0000000  0  6 22 31 03 27 01 19
  22066371.270   -13907874.822 8 -10815638.84847  22066374.571    22066381.2634
  21140920.969   -22321807.063 9 -17101658.91847  21140924.620    21140931.8554
  20605432.785   -23565327.864 9 -18109900.97548  20605435.372    20605442.1954
  23815969.764    -6427042.023 8  -4996707.29745  23815969.844    23815977.8334
  20968289.177   -21309833.129 9 -16581810.90747  20968290.686    20968297.7764
  21069494.124   -19775245.850 9 -15389174.98047  21069494.907    21069501.9744
 00  7 30  4  7  0.0000000  0  6 22 31 03 27 01 19
  22081622.345   -13827718.114 8 -10753179.11247  22081627.338    22081635.0924
  21125667.138   -22401987.574 9 -17164137.21447  21125667.420    21125673.8264
  20605784.482   -23563483.436 9 -18108463.75848  20605786.575    20605793.4424
  23798328.653    -6519754.346 8  -5068950.55145  23798327.802    23798334.7514
  20977258.890   -21262689.014 9 -16545075.24147  20977261.918    20977269.0074
  21058122.877   -19834983.693 9 -15435723.91047  21058127.521    21058133.9334
 00  7 30  4  7 30.0000000  0  6 22 31 03 27 01 19
  22096900.649   -13747441.930 8 -10690626.27347  22096903.087    22096911.2414
  21110489.281   -22481714.089 9 -17226261.74247  21110495.306    21110502.1674
  20606245.089   -23561053.018 9 -18106569.92048  20606249.063    20606256.2284
  23780680.873    -6612458.815 8  -5141187.89945  23780686.825    23780694.6874
  20986329.995   -21215017.481 9 -16507928.60247  20986333.522    20986340.4664
  21046805.037   -19894468.130 9 -15482075.37747  21046807.795    21046814.4914
 00  7 30  4  8  0.0000000  0  6 22 31 03 27 01 19
  22112195.872   -13667047.532 8 -10627981.29747  22112202.263    22112209.4064
  21095411.041   -22560984.242 9 -17288030.66847  21095410.731    21095417.2844
  20606821.808   -23558036.802 9 -18104219.63348  20606822.937    20606829.9674
  23763046.794    -6705153.663 8  -5213417.61545  23763046.336    23763054.4904
  20995501.743   -21166820.169 9 -16470372.25747  20995504.888    20995512.3614
  21035534.859   -19953697.281 9 -15528227.95447  21035536.542    21035543.7294
 00  7 30  4  8 30.0000000  0  6 22 31 03 27 01 19
  22127518.691   -13586536.078 8 -10565245.13947  22127523.276    22127530.8214
  21080410.369   -22639795.634 9 -17349442.12647  21080413.543    21080420.1724
  20607505.939   -23554435.431 9 -18101413.37248  20607508.536    20607515.1194
  23745409.153    -6797837.660 8  -5285638.81845  23745409.451    23745418.2974
  21004772.147   -21118098.733 9 -16432407.51547  21004776.440    21004783.8314
  21024311.377   -20012669.519 9 -15574180.30347  21024314.645    21024321.5414
 00  7 30  4  9  0.0000000  0  6 22 31 03 27 01 19
  22142863.930   -13505908.648 8 -10502418.65047  22142865.960    22142873.5744
  21065502.720   -22718146.024 9 -17410494.34747  21065504.110    21065510.7034
  20608301.354   -23550249.308 9 -18098151.44448  20608305.126    20608311.6144
  23727773.936    -6890509.631 8  -5357850.67246  23727774.141    23727783.6604
  21014142.965   -21068854.530 9 -16394035.42147  21014147.246    21014154.8044
  21013136.872   -20071382.946 9 -15619930.98247  21013141.618    21013148.7214
 00  7 30  4  9 30.0000000  0  6 22 31 03 27 01 19
  22158229.155   -13425166.747 8 -10439502.94147  22158230.832    22158238.2724
  21050681.850   -22796032.939 9 -17471185.41447  21050682.714    21050689.3444
  20609208.154   -23545478.768 9 -18094434.14448  20609212.617    20609219.5224
  23710140.356    -6983168.252 8  -5430052.03545  23710141.886    23710150.5004
  21023615.292   -21019089.308 9 -16355257.34347  21023617.378    21023624.7764
  21002016.693   -20129835.849 9 -15665478.65947  21002018.563    21002025.4054
 00  7 30  4 10  0.0000000  0  6 22 31 03 27 01 19
  22173615.225   -13344312.060 8 -10376499.36146  22173617.041    22173624.4954
  21035946.624   -22873454.233 9 -17531513.66247  21035949.867    21035956.9454
  20610226.694   -23540124.242 9 -18090261.78048  20610231.549    20610238.5534
  23692509.225    -7075812.077 8  -5502241.94046  23692513.256    23692520.2454
  21033181.551   -20968804.705 9 -16316074.54447  21033186.258    21033193.3314
  20990941.670   -20188026.481 9 -15710821.97347  20990945.417    20990951.9974
 00  7 30  4 10 30.0000000  0  6 22 31 03 27 01 19
  22189020.899   -13263345.522 8 -10313408.60546  22189024.159    22189031.7414
  21021300.354   -22950407.359 9 -17591477.11147  21021305.654    21021312.4704
  20611357.572   -23534186.770 9 -18085635.16948  20611361.581    20611368.1604
  23674886.391    -7168440.001 8  -5574419.57246  23674886.093    23674894.1104
  21042850.930   -20918002.269 9 -16276488.24347  21042854.060    21042860.7964
  20979918.213   -20245952.872 9 -15755959.38347  20979922.153    20979928.8854
 00  7 30  4 11  0.0000000  0  6 22 31 03 27 01 19
  22204453.543   -13182268.316 8 -10250231.63446  22204452.084    22204459.6234
  21006748.175   -23026890.130 9 -17651074.04047  21006751.607    21006758.4184
  20612599.772   -23527666.484 9 -18080554.40648  20612601.929    20612609.1254
  23657261.533    -7261050.395 8  -5646583.48646  23657264.044    23657271.1234
  21052616.175   -20866683.718 9 -16236499.77547  21052619.578    21052626.1644
  20968943.906   -20303613.408 9 -15800889.64847  20968949.397    20968956.8594
 00  7 30  4 11 30.0000000  0  6 22 31 03 27 01 19
  22219898.517   -13101081.510 8 -10186969.25846  22219901.397    22219909.1524
  20992284.946   -23102900.779 9 -17710303.08047  20992287.160    20992293.9114
  20613950.358   -23520563.865 9 -18075019.86448  20613954.090    20613960.5224
  23639634.236    -7353641.924 8  -5718732.69846  23639643.960    23639650.7784
  21062479.639   -20814850.753 9 -16196110.46647  21062482.819    21062489.8124
  20958024.950   -20361006.247 9 -15845611.30547  20958028.044    20958035.0024
 00  7 30  4 12  0.0000000  0  7 13 22 31 03 27 01 19
  24960118.931    -1532413.41217  -1170757.07655  24960121.784    24960127.9924
  22235369.351   -13019786.665 8 -10123622.67446  22235371.513    22235379.1914
  20977910.968   -23178436.762 9 -17769162.25347  20977913.565    20977919.5434
  20615412.788   -23512879.631 9 -18069032.14448  20615416.065    20615422.8944
  23622024.686    -7446213.020 8  -5790865.91646  23622028.247    23622035.0934
  21072438.923   -20762505.159 9 -16155321.70347  21072443.595    21072451.4054
  20947154.786   -20418129.356 9 -15890122.79347  20947157.632    20947164.7504
 00  7 30  4 12 30.0000000  0  7 13 22 31 03 27 01 19
  24942529.705    -1624894.161 7  -1242819.91845  24942523.579    24942528.8824
  22250857.376   -12938385.366 8 -10060193.13346  22250862.091    22250869.1834
  20963627.875   -23253495.734 9 -17827649.72947  20963630.448    20963636.4394
  20616984.933   -23504614.712 9 -18062591.95348  20616988.699    20616995.7624
  23604414.911    -7538762.635 8  -5862982.39446  23604416.518    23604425.0534
  21082496.320   -20709648.660 9 -16114134.84647  21082501.893    21082509.6074
  20936336.949   -20474981.020 9 -15934422.77047  20936338.954    20936346.2554
 00  7 30  4 13  0.0000000  0  7 13 22 31 03 27 01 19
  24924975.352    -1717103.441 7  -1314671.32545  24924976.533    24924983.1024
  22266370.157   -12856878.461 8  -9996681.28046  22266372.363    22266379.6294
  20949436.201   -23328075.315 9 -17885763.65647  20949438.221    20949444.7284
  20618668.257   -23495769.578 9 -18055699.62648  20618671.967    20618679.4394
  23586807.001    -7631289.298 8  -5935081.07546  23586808.765    23586816.6904
  21092653.916   -20656282.874 9 -16072551.12047  21092657.708    21092664.6894
  20925570.049   -20531559.130 9 -15978509.59147  20925572.814    20925580.0394
 00  7 30  4 13 30.0000000  0  7 13 22 31 03 27 01 19
  24907477.048    -1809038.434 7  -1386309.14145  24907482.098    24907488.4014
  22281900.725   -12775266.896 8  -9933087.87346  22281902.900    22281910.1674
  20935334.642   -23402173.693 9 -17943502.61547  20935337.256    20935344.2364
  20620461.547   -23486344.769 9 -18048355.60948  20620465.269    20620472.3734
  23569204.913    -7723791.405 8  -6007160.62646  23569206.539    23569212.7854
  21102906.963   -20602409.638 9 -16030571.98547  21102909.171    21102916.2404
  20914855.082   -20587862.059 9 -16022381.98947  20914858.967    20914865.6724
 00  7 30  4 14  0.0000000  0  7 13 22 31 03 27 01 19
  24890041.350    -1900696.600 7  -1457730.97545  24890039.673    24890044.7964
  22297449.181   -12693551.994 8  -9869413.99046  22297452.527    22297460.2314
  20921325.084   -23475788.562 9 -18000864.80447  20921328.830    20921336.0604
  20622365.429   -23476340.907 9 -18040560.37448  20622369.142    20622376.0704
  23551604.074    -7816267.558 8  -6079219.91446  23551607.883    23551616.8304
  21113254.452   -20548030.700 9 -15988198.80347  21113256.944    21113264.2294
  20904194.213   -20643888.144 9 -16066038.67047  20904197.406    20904204.3194
 00  7 30  4 14 30.0000000  0  7 13 22 31 03 27 01 19
  24872643.685    -1992075.254 7  -1528935.10645  24872650.633    24872656.0084
  22313017.270   -12611735.359 8  -9805660.83146  22313021.468    22313030.0474
  20907408.098   -23548917.725 9 -18057848.51547  20907412.792    20907420.0714
  20624378.701   -23465758.856 9 -18032314.61548  20624382.666    20624389.7664
  23534013.270    -7908716.359 8  -6151257.83146  23534015.157    23534024.0854
  21123698.106   -20493147.905 9 -15945433.00747  21123700.825    21123708.0364
  20893585.162   -20699635.152 9 -16109477.86847  20893588.964    20893596.0544
 00  7 30  4 15  0.0000000  0  7 13 22 31 03 27 01 19
  24855312.762    -2083171.718 7  -1599919.50645  24855315.842    24855322.6694
  22328606.635   -12529818.314 8  -9741829.43046  22328609.842    22328617.7774
  20893590.018   -23621559.082 9 -18114452.13347  20893590.036    20893596.6374
  20626501.899   -23454599.652 9 -18023619.09548  20626505.555    20626513.4234
  23516424.811    -8001136.339 8  -6223273.34946  23516429.624    23516437.1654
  21134238.336   -20437763.085 9 -15902276.02047  21134240.515    21134247.2474
  20883031.432   -20755101.409 9 -16152698.29447  20883034.167    20883041.2384
 00  7 30  4 15 30.0000000  0  7 13 22 31 03 27 01 19
  24838033.106    -2173983.791 7  -1670682.11545  24838034.216    24838041.6944
  22344210.551   -12447801.614 8  -9677920.35146  22344216.691    22344225.2064
  20879856.552   -23693710.580 9 -18170674.04147  20879859.482    20879866.5114
  20628736.706   -23442863.709 9 -18014474.20148  20628738.925    20628746.7704
  23498843.880    -8093526.144 8  -6295265.33146  23498847.166    23498855.9264
  21144871.149   -20381878.209 9 -15858729.37547  21144874.924    21144881.8434
  20872529.297   -20810285.023 9 -16195698.51147  20872533.004    20872540.4514
 00  7 30  4 16  0.0000000  0  7 13 22 31 03 27 01 19
  24820806.644    -2264508.626 7  -1741220.90145  24820807.697    24820815.4134
  22359838.820   -12365686.274 8  -9613934.40846  22359842.618    22359851.5074
  20866221.788   -23765370.260 9 -18226512.71447  20866222.940    20866229.9854
  20631077.940   -23430551.744 9 -18004880.45748  20631082.040    20631089.4184
  23481262.476    -8185884.219 8  -6367232.64946  23481271.753    23481280.2854
  21155600.016   -20325495.065 9 -15814794.47947  21155604.019    21155611.1664
  20862081.190   -20865184.121 9 -16238477.02947  20862085.867    20862093.3994
 00  7 30  4 16 30.0000000  0  7 13 22 31 03 27 01 19
  24803637.496    -2354743.721 7  -1811534.09945  24803637.299    24803642.4034
  22375483.181   -12283473.689 8  -9549872.69346  22375487.110    22375496.0944
  20852677.023   -23836536.095 9 -18281966.55447  20852681.016    20852687.5654
  20633530.203   -23417664.839 9 -17994838.67748  20633534.310    20633541.7744
  23463697.969    -8278209.100 8  -6439174.03146  23463703.372    23463711.6704
  21166424.690   -20268615.424 9 -15770472.69247  21166428.017    21166435.1454
  20851690.722   -20919797.039 9 -16281032.55247  20851693.396    20851700.8144
 00  7 30  4 17  0.0000000  0  7 13 22 31 03 27 01 19
  24786517.977    -2444686.508 7  -1881619.52345  24786522.165    24786530.3314
  22391151.080   -12201165.498 8  -9485736.49746  22391150.153    22391158.4004
  20839231.679   -23907205.718 9 -18337033.76147  20839232.767    20839239.1914
  20636093.785   -23404203.931 9 -17984349.65048  20636096.069    20636103.4604
  23446139.476    -8370499.477 8  -6511088.60746  23446141.506    23446149.8654
  21177342.788   -20211241.431 9 -15725765.70447  21177346.020    21177353.2884
  20841354.845   -20974121.810 9 -16323363.54647  20841356.302    20841363.2164
 00  7 30  4 17 30.0000000  0  7 13 22 31 03 27 01 19
  24769457.493    -2534334.004 7  -1951474.66245  24769461.260    24769469.5374
  22406829.137   -12118762.652 8  -9421526.53946  22406831.087    22406838.1644
  20825878.003   -23977377.198 9 -18391712.80747  20825880.011    20825886.4994
  20638764.500   -23390169.551 9 -17973413.76048  20638766.434    20638773.7594
  23428583.407    -8462753.536 8  -6582974.82446  23428585.763    23428593.7374
  21188357.670   -20153374.774 9 -15680674.82547  21188357.755    21188364.9034
  20831070.337   -21028156.686 9 -16365468.62847  20831073.524    20831080.4674
 00  7 30  4 18  0.0000000  0  7 13 22 31 03 27 01 19
  24752462.106    -2623683.973 8  -2021098.09645  24752460.293    24752465.7774
  22422526.672   -12036265.795 8  -9357243.23946  22422529.994    22422538.0704
  20812619.249   -24047048.457 9 -18446002.05747  20812621.397    20812628.5034
  20641544.689   -23375562.856 9 -17962031.91248  20641545.949    20641553.1434
  23411041.352    -8554969.887 8  -6654831.66846  23411037.753    23411045.2454
  21199460.824   -20095017.516 9 -15635201.65547  21199462.623    21199469.9234
  20820842.604   -21081899.959 9 -16407346.52347  20820846.067    20820853.5044
 00  7 30  4 18 30.0000000  0  7 13 22 31 03 27 01 19
  24735509.169    -2712733.971 7  -2090487.65745  24735514.119    24735520.2344
  22438245.710   -11953676.377 8  -9292887.87746  22438246.446    22438254.4824
  20799455.904   -24116217.531 9 -18499899.99747  20799459.335    20799465.7224
  20644430.199   -23360384.541 9 -17950204.64248  20644434.599    20644441.4604
  23393499.584    -8647146.992 8  -6726657.94046  23393496.786    23393505.5054
  21210655.788   -20036171.632 9 -15589347.73047  21210660.591    21210668.0614
  20810672.031   -21135349.571 9 -16448995.56847  20810674.853    20810682.1394
 00  7 30  4 19  0.0000000  0  7 13 22 31 03 27 01 19
  24718620.949    -2801481.048 7  -2159641.27045  24718625.750    24718632.7624
  22453975.286   -11870995.587 8  -9228461.35346  22453979.242    22453988.0754
  20786389.505   -24184882.572 9 -18553405.18847  20786392.519    20786398.9664
  20647427.044   -23344635.304 9 -17937932.51248  20647431.361    20647438.5534
  23375962.168    -8739283.586 8  -6798452.65646  23375963.656    23375972.5904
  21221949.308   -19976839.071 9 -15543114.59047  21221951.370    21221958.9674
  20800556.881   -21188503.597 9 -16490414.28047  20800559.881    20800567.5434
